Wetterdaten: Mittwoch, 27.03.2024
Datum Zeit Temp. I. Temp. A. Feuchte I. Feuchte A. Luftdruck Regen Wind Richtung Richtung Sonnenschein Solar Taupunkt Windchill Windböen
27.03.2024 00:00 21,1 °C 2,3 °C 49 % 90 % 991,1 hPa 0,0 l/m² 0,0 km/h (0 Bft) O-NO 57 ° 0 min 0 W/m² 0,8 °C 2,3 °C 0,0 km/h (0 Bft)
27.03.2024 00:01 21,1 °C 2,3 °C 49 % 90 % 991,1 hPa 0,0 l/m² 0,0 km/h (0 Bft) O-NO 57 ° 0 min 0 W/m² 0,8 °C 2,3 °C 0,0 km/h (0 Bft)
27.03.2024 00:02 21,1 °C 2,3 °C 49 % 90 % 991,1 hPa 0,0 l/m² 0,0 km/h (0 Bft) O-NO 57 ° 0 min 0 W/m² 0,8 °C 2,3 °C 0,0 km/h (0 Bft)
27.03.2024 00:03 21,1 °C 2,3 °C 49 % 90 % 991,1 hPa 0,0 l/m² 0,0 km/h (0 Bft) O-NO 57 ° 0 min 0 W/m² 0,8 °C 2,3 °C 0,0 km/h (0 Bft)
27.03.2024 00:05 21,1 °C 2,3 °C 49 % 90 % 991,1 hPa 0,0 l/m² 0,0 km/h (0 Bft) O-NO 57 ° 0 min 0 W/m² 0,8 °C 2,3 °C 0,0 km/h (0 Bft)
27.03.2024 00:07 21,1 °C 2,3 °C 49 % 90 % 991,1 hPa 0,0 l/m² 0,0 km/h (0 Bft) O-NO 57 ° 0 min 0 W/m² 0,8 °C 2,3 °C 0,0 km/h (0 Bft)
27.03.2024 00:09 21,1 °C 2,3 °C 49 % 90 % 991,1 hPa 0,0 l/m² 0,0 km/h (0 Bft) O-NO 57 ° 0 min 0 W/m² 0,8 °C 2,3 °C 0,0 km/h (0 Bft)
27.03.2024 00:10 21,1 °C 2,3 °C 49 % 90 % 991,1 hPa 0,0 l/m² 0,0 km/h (0 Bft) O-NO 57 ° 0 min 0 W/m² 0,8 °C 2,3 °C 0,0 km/h (0 Bft)
27.03.2024 00:12 21,1 °C 2,2 °C 49 % 90 % 991,1 hPa 0,0 l/m² 0,0 km/h (0 Bft) O-NO 57 ° 0 min 0 W/m² 0,7 °C 2,2 °C 0,0 km/h (0 Bft)
27.03.2024 00:13 21,1 °C 2,2 °C 49 % 90 % 991,1 hPa 0,0 l/m² 0,0 km/h (0 Bft) O-NO 57 ° 0 min 0 W/m² 0,7 °C 2,2 °C 0,0 km/h (0 Bft)
27.03.2024 00:15 21,1 °C 2,2 °C 49 % 90 % 991,1 hPa 0,0 l/m² 0,0 km/h (0 Bft) O-NO 57 ° 0 min 0 W/m² 0,7 °C 2,2 °C 0,0 km/h (0 Bft)
27.03.2024 00:17 21,1 °C 2,1 °C 49 % 90 % 991,1 hPa 0,0 l/m² 0,0 km/h (0 Bft) O-NO 57 ° 0 min 0 W/m² 0,6 °C 2,1 °C 0,0 km/h (0 Bft)
27.03.2024 00:19 21,1 °C 2,1 °C 49 % 90 % 991,0 hPa 0,0 l/m² 0,0 km/h (0 Bft) O-NO 57 ° 0 min 0 W/m² 0,6 °C 2,1 °C 0,0 km/h (0 Bft)
27.03.2024 00:21 21,1 °C 2,1 °C 49 % 91 % 991,0 hPa 0,0 l/m² 0,0 km/h (0 Bft) O-NO 57 ° 0 min 0 W/m² 0,8 °C 2,1 °C 0,0 km/h (0 Bft)
27.03.2024 00:22 21,1 °C 2,1 °C 49 % 90 % 991,0 hPa 0,0 l/m² 0,0 km/h (0 Bft) O-NO 57 ° 0 min 0 W/m² 0,6 °C 2,1 °C 0,0 km/h (0 Bft)
27.03.2024 00:23 21,1 °C 2,1 °C 49 % 91 % 991,0 hPa 0,0 l/m² 0,0 km/h (0 Bft) O-NO 57 ° 0 min 0 W/m² 0,8 °C 2,1 °C 0,0 km/h (0 Bft)
27.03.2024 00:24 21,1 °C 2,0 °C 49 % 90 % 991,0 hPa 0,0 l/m² 0,0 km/h (0 Bft) O-NO 57 ° 0 min 0 W/m² 0,5 °C 2,0 °C 0,0 km/h (0 Bft)
27.03.2024 00:26 21,1 °C 2,0 °C 49 % 90 % 991,1 hPa 0,0 l/m² 0,0 km/h (0 Bft) O-NO 57 ° 0 min 0 W/m² 0,5 °C 2,0 °C 0,0 km/h (0 Bft)
27.03.2024 00:28 21,1 °C 1,9 °C 49 % 90 % 991,0 hPa 0,0 l/m² 0,0 km/h (0 Bft) O-NO 57 ° 0 min 0 W/m² 0,4 °C 1,9 °C 0,0 km/h (0 Bft)
27.03.2024 00:30 21,2 °C 2,0 °C 49 % 91 % 991,0 hPa 0,0 l/m² 0,0 km/h (0 Bft) O-NO 57 ° 0 min 0 W/m² 0,7 °C 2,0 °C 0,0 km/h (0 Bft)
27.03.2024 00:33 21,1 °C 2,0 °C 49 % 91 % 991,1 hPa 0,0 l/m² 0,0 km/h (0 Bft) O-NO 57 ° 0 min 0 W/m² 0,7 °C 2,0 °C 0,0 km/h (0 Bft)
27.03.2024 00:35 21,1 °C 2,0 °C 49 % 91 % 991,0 hPa 0,0 l/m² 0,0 km/h (0 Bft) O-NO 57 ° 0 min 0 W/m² 0,7 °C 2,0 °C 0,0 km/h (0 Bft)
27.03.2024 00:37 21,2 °C 1,9 °C 49 % 91 % 991,0 hPa 0,0 l/m² 0,0 km/h (0 Bft) O-NO 57 ° 0 min 0 W/m² 0,6 °C 1,9 °C 0,0 km/h (0 Bft)
27.03.2024 00:39 21,2 °C 1,9 °C 49 % 91 % 991,0 hPa 0,0 l/m² 0,0 km/h (0 Bft) O-NO 57 ° 0 min 0 W/m² 0,6 °C 1,9 °C 0,0 km/h (0 Bft)
27.03.2024 00:41 21,2 °C 1,8 °C 49 % 91 % 991,0 hPa 0,0 l/m² 0,0 km/h (0 Bft) O-NO 57 ° 0 min 0 W/m² 0,5 °C 1,8 °C 0,0 km/h (0 Bft)
27.03.2024 00:44 21,2 °C 1,8 °C 49 % 91 % 991,0 hPa 0,0 l/m² 0,0 km/h (0 Bft) O-NO 57 ° 0 min 0 W/m² 0,5 °C 1,8 °C 0,0 km/h (0 Bft)
27.03.2024 00:47 21,2 °C 1,6 °C 49 % 91 % 991,0 hPa 0,0 l/m² 0,0 km/h (0 Bft) O-NO 57 ° 0 min 0 W/m² 0,3 °C 1,6 °C 0,0 km/h (0 Bft)
27.03.2024 00:49 21,2 °C 1,6 °C 49 % 91 % 991,0 hPa 0,0 l/m² 0,0 km/h (0 Bft) O-NO 57 ° 0 min 0 W/m² 0,3 °C 1,6 °C 0,0 km/h (0 Bft)
27.03.2024 00:51 21,2 °C 1,4 °C 49 % 91 % 990,9 hPa 0,0 l/m² 0,0 km/h (0 Bft) O-NO 57 ° 0 min 0 W/m² 0,1 °C 1,4 °C 0,0 km/h (0 Bft)
27.03.2024 00:52 21,2 °C 1,4 °C 49 % 91 % 991,0 hPa 0,0 l/m² 0,0 km/h (0 Bft) O-NO 57 ° 0 min 0 W/m² 0,1 °C 1,4 °C 0,0 km/h (0 Bft)
27.03.2024 00:53 21,2 °C 1,4 °C 49 % 91 % 991,0 hPa 0,0 l/m² 0,0 km/h (0 Bft) O-NO 57 ° 0 min 0 W/m² 0,1 °C 1,4 °C 0,0 km/h (0 Bft)
27.03.2024 00:54 21,2 °C 1,4 °C 49 % 91 % 991,0 hPa 0,0 l/m² 0,0 km/h (0 Bft) O-NO 57 ° 0 min 0 W/m² 0,1 °C 1,4 °C 0,0 km/h (0 Bft)
27.03.2024 00:56 21,2 °C 1,4 °C 49 % 91 % 990,9 hPa 0,0 l/m² 0,0 km/h (0 Bft) O-NO 57 ° 0 min 0 W/m² 0,1 °C 1,4 °C 0,0 km/h (0 Bft)
27.03.2024 00:58 21,2 °C 1,4 °C 49 % 91 % 990,9 hPa 0,0 l/m² 0,0 km/h (0 Bft) O-NO 57 ° 0 min 0 W/m² 0,1 °C 1,4 °C 0,0 km/h (0 Bft)
27.03.2024 01:00 21,2 °C 1,5 °C 49 % 91 % 990,9 hPa 0,0 l/m² 0,0 km/h (0 Bft) O-NO 57 ° 0 min 0 W/m² 0,2 °C 1,5 °C 0,0 km/h (0 Bft)
27.03.2024 01:03 21,2 °C 1,4 °C 49 % 91 % 990,9 hPa 0,0 l/m² 0,0 km/h (0 Bft) O-NO 57 ° 0 min 0 W/m² 0,1 °C 1,4 °C 0,0 km/h (0 Bft)
27.03.2024 01:05 21,2 °C 1,4 °C 49 % 91 % 990,7 hPa 0,0 l/m² 0,0 km/h (0 Bft) O-NO 57 ° 0 min 0 W/m² 0,1 °C 1,4 °C 0,0 km/h (0 Bft)
27.03.2024 01:07 21,2 °C 1,3 °C 49 % 91 % 990,8 hPa 0,0 l/m² 0,0 km/h (0 Bft) O-NO 57 ° 0 min 0 W/m² -0,0 °C 1,3 °C 0,0 km/h (0 Bft)
27.03.2024 01:09 21,2 °C 1,3 °C 49 % 91 % 990,8 hPa 0,0 l/m² 0,0 km/h (0 Bft) O-NO 57 ° 0 min 0 W/m² -0,0 °C 1,3 °C 0,0 km/h (0 Bft)
27.03.2024 01:11 21,2 °C 1,4 °C 49 % 92 % 990,8 hPa 0,0 l/m² 0,0 km/h (0 Bft) O-NO 57 ° 0 min 0 W/m² 0,2 °C 1,4 °C 0,0 km/h (0 Bft)
27.03.2024 01:12 21,2 °C 1,4 °C 49 % 92 % 990,8 hPa 0,0 l/m² 0,0 km/h (0 Bft) O-NO 57 ° 0 min 0 W/m² 0,2 °C 1,4 °C 0,0 km/h (0 Bft)
27.03.2024 01:13 21,2 °C 1,4 °C 49 % 92 % 990,8 hPa 0,0 l/m² 0,0 km/h (0 Bft) O-NO 57 ° 0 min 0 W/m² 0,2 °C 1,4 °C 0,0 km/h (0 Bft)
27.03.2024 01:14 21,2 °C 1,5 °C 49 % 92 % 990,7 hPa 0,0 l/m² 0,0 km/h (0 Bft) O-NO 57 ° 0 min 0 W/m² 0,3 °C 1,5 °C 0,0 km/h (0 Bft)
27.03.2024 01:16 21,2 °C 1,6 °C 49 % 92 % 990,7 hPa 0,0 l/m² 0,0 km/h (0 Bft) O-NO 57 ° 0 min 0 W/m² 0,4 °C 1,6 °C 0,0 km/h (0 Bft)
27.03.2024 01:18 21,2 °C 1,6 °C 49 % 92 % 990,7 hPa 0,0 l/m² 0,0 km/h (0 Bft) O-NO 57 ° 0 min 0 W/m² 0,4 °C 1,6 °C 0,0 km/h (0 Bft)
27.03.2024 01:20 21,2 °C 1,5 °C 49 % 91 % 990,7 hPa 0,0 l/m² 0,0 km/h (0 Bft) O-NO 57 ° 0 min 0 W/m² 0,2 °C 1,5 °C 0,0 km/h (0 Bft)
27.03.2024 01:23 21,2 °C 1,5 °C 49 % 91 % 990,6 hPa 0,0 l/m² 0,3 km/h (0 Bft) O-NO 57 ° 0 min 0 W/m² 0,2 °C 1,5 °C 1,6 km/h (1 Bft)
27.03.2024 01:25 21,2 °C 1,5 °C 49 % 91 % 990,6 hPa 0,0 l/m² 0,2 km/h (0 Bft) O-NO 57 ° 0 min 0 W/m² 0,2 °C 1,5 °C 1,6 km/h (1 Bft)
27.03.2024 01:27 21,2 °C 1,5 °C 49 % 92 % 990,6 hPa 0,0 l/m² 0,0 km/h (0 Bft) O-NO 57 ° 0 min 0 W/m² 0,3 °C 1,5 °C 0,0 km/h (0 Bft)
27.03.2024 01:29 21,2 °C 1,4 °C 49 % 91 % 990,5 hPa 0,0 l/m² 0,0 km/h (0 Bft) O-NO 57 ° 0 min 0 W/m² 0,1 °C 1,4 °C 0,0 km/h (0 Bft)
27.03.2024 01:31 21,2 °C 1,3 °C 49 % 91 % 990,5 hPa 0,0 l/m² 0,0 km/h (0 Bft) O-NO 57 ° 0 min 0 W/m² -0,0 °C 1,3 °C 0,0 km/h (0 Bft)
27.03.2024 01:32 21,2 °C 1,2 °C 49 % 91 % 990,5 hPa 0,0 l/m² 0,0 km/h (0 Bft) O-NO 57 ° 0 min 0 W/m² -0,1 °C 1,2 °C 0,0 km/h (0 Bft)
27.03.2024 01:33 21,2 °C 1,2 °C 49 % 91 % 990,5 hPa 0,0 l/m² 0,0 km/h (0 Bft) O-NO 57 ° 0 min 0 W/m² -0,1 °C 1,2 °C 0,0 km/h (0 Bft)
27.03.2024 01:34 21,2 °C 1,2 °C 49 % 91 % 990,5 hPa 0,0 l/m² 0,0 km/h (0 Bft) O-NO 57 ° 0 min 0 W/m² -0,1 °C 1,2 °C 0,0 km/h (0 Bft)
27.03.2024 01:36 21,2 °C 1,2 °C 49 % 91 % 990,5 hPa 0,0 l/m² 0,0 km/h (0 Bft) O-NO 57 ° 0 min 0 W/m² -0,1 °C 1,2 °C 0,0 km/h (0 Bft)
27.03.2024 01:38 21,2 °C 1,2 °C 49 % 91 % 990,4 hPa 0,0 l/m² 0,0 km/h (0 Bft) O-NO 57 ° 0 min 0 W/m² -0,1 °C 1,2 °C 0,0 km/h (0 Bft)
27.03.2024 01:40 21,2 °C 1,2 °C 49 % 91 % 990,4 hPa 0,0 l/m² 0,0 km/h (0 Bft) O-NO 57 ° 0 min 0 W/m² -0,1 °C 1,2 °C 0,0 km/h (0 Bft)
27.03.2024 01:43 21,2 °C 1,1 °C 49 % 91 % 990,4 hPa 0,0 l/m² 0,0 km/h (0 Bft) O-NO 57 ° 0 min 0 W/m² -0,2 °C 1,1 °C 0,0 km/h (0 Bft)
27.03.2024 01:44 21,2 °C 1,1 °C 49 % 91 % 990,5 hPa 0,0 l/m² 0,0 km/h (0 Bft) O-NO 57 ° 0 min 0 W/m² -0,2 °C 1,1 °C 0,0 km/h (0 Bft)
27.03.2024 01:45 21,2 °C 1,1 °C 49 % 91 % 990,5 hPa 0,0 l/m² 0,0 km/h (0 Bft) O-NO 57 ° 0 min 0 W/m² -0,2 °C 1,1 °C 0,0 km/h (0 Bft)
27.03.2024 01:46 21,2 °C 1,1 °C 49 % 91 % 990,4 hPa 0,0 l/m² 0,0 km/h (0 Bft) O-NO 57 ° 0 min 0 W/m² -0,2 °C 1,1 °C 0,0 km/h (0 Bft)
27.03.2024 01:48 21,2 °C 1,0 °C 49 % 91 % 990,5 hPa 0,0 l/m² 0,0 km/h (0 Bft) O-NO 57 ° 0 min 0 W/m² -0,3 °C 1,0 °C 0,0 km/h (0 Bft)
27.03.2024 01:50 21,2 °C 1,0 °C 49 % 91 % 990,4 hPa 0,0 l/m² 0,0 km/h (0 Bft) O-NO 57 ° 0 min 0 W/m² -0,3 °C 1,0 °C 0,0 km/h (0 Bft)
27.03.2024 01:53 21,2 °C 0,9 °C 49 % 91 % 990,3 hPa 0,0 l/m² 0,0 km/h (0 Bft) O-NO 57 ° 0 min 0 W/m² -0,4 °C 0,9 °C 0,0 km/h (0 Bft)
27.03.2024 01:55 21,2 °C 1,0 °C 49 % 92 % 990,4 hPa 0,0 l/m² 0,0 km/h (0 Bft) O-NO 57 ° 0 min 0 W/m² -0,2 °C 1,0 °C 0,0 km/h (0 Bft)
27.03.2024 01:57 21,2 °C 1,1 °C 49 % 92 % 990,3 hPa 0,0 l/m² 0,0 km/h (0 Bft) O-NO 57 ° 0 min 0 W/m² -0,1 °C 1,1 °C 1,6 km/h (1 Bft)
27.03.2024 01:59 21,2 °C 1,1 °C 49 % 92 % 990,3 hPa 0,0 l/m² 0,0 km/h (0 Bft) O-NO 57 ° 0 min 0 W/m² -0,1 °C 1,1 °C 1,6 km/h (1 Bft)
27.03.2024 02:01 21,2 °C 1,1 °C 49 % 92 % 990,3 hPa 0,0 l/m² 1,0 km/h (0 Bft) O-NO 57 ° 0 min 0 W/m² -0,1 °C 1,1 °C 3,2 km/h (1 Bft)
27.03.2024 02:02 21,2 °C 1,1 °C 49 % 92 % 990,2 hPa 0,0 l/m² 1,5 km/h (1 Bft) O-NO 57 ° 0 min 0 W/m² -0,1 °C 1,1 °C 3,2 km/h (1 Bft)
27.03.2024 02:03 21,2 °C 1,1 °C 49 % 92 % 990,2 hPa 0,0 l/m² 1,8 km/h (1 Bft) O-NO 57 ° 0 min 0 W/m² -0,1 °C 1,1 °C 3,2 km/h (1 Bft)
27.03.2024 02:04 21,2 °C 1,1 °C 49 % 92 % 990,2 hPa 0,0 l/m² 0,8 km/h (0 Bft) O-NO 57 ° 0 min 0 W/m² -0,1 °C 1,1 °C 1,6 km/h (1 Bft)
27.03.2024 02:06 21,2 °C 1,1 °C 49 % 92 % 990,1 hPa 0,0 l/m² 0,1 km/h (0 Bft) O-NO 57 ° 0 min 0 W/m² -0,1 °C 1,1 °C 1,6 km/h (1 Bft)
27.03.2024 02:08 21,2 °C 1,1 °C 49 % 92 % 990,2 hPa 0,0 l/m² 0,0 km/h (0 Bft) O-NO 57 ° 0 min 0 W/m² -0,1 °C 1,1 °C 0,0 km/h (0 Bft)
27.03.2024 02:10 21,2 °C 0,8 °C 49 % 91 % 990,2 hPa 0,0 l/m² 0,0 km/h (0 Bft) O-NO 57 ° 0 min 0 W/m² -0,5 °C 0,8 °C 0,0 km/h (0 Bft)
27.03.2024 02:13 21,2 °C 0,7 °C 49 % 91 % 990,1 hPa 0,0 l/m² 0,7 km/h (0 Bft) O-NO 57 ° 0 min 0 W/m² -0,6 °C 0,7 °C 1,6 km/h (1 Bft)
27.03.2024 02:15 21,2 °C 0,7 °C 49 % 92 % 990,1 hPa 0,0 l/m² 3,0 km/h (1 Bft) O-NO 57 ° 0 min 0 W/m² -0,4 °C 0,7 °C 4,8 km/h (1 Bft)
27.03.2024 02:17 21,2 °C 0,7 °C 49 % 92 % 990,0 hPa 0,0 l/m² 4,2 km/h (1 Bft) O-NO 63 ° 0 min 0 W/m² -0,4 °C 0,7 °C 4,8 km/h (1 Bft)
27.03.2024 02:19 21,2 °C 0,7 °C 49 % 92 % 990,0 hPa 0,0 l/m² 3,9 km/h (1 Bft) O-NO 63 ° 0 min 0 W/m² -0,4 °C 0,7 °C 4,8 km/h (1 Bft)
27.03.2024 02:22 21,2 °C 0,8 °C 49 % 92 % 990,0 hPa 0,0 l/m² 3,4 km/h (1 Bft) O-NO 63 ° 0 min 0 W/m² -0,3 °C 0,8 °C 4,8 km/h (1 Bft)
27.03.2024 02:23 21,2 °C 0,8 °C 49 % 92 % 989,9 hPa 0,0 l/m² 2,9 km/h (1 Bft) O-NO 63 ° 0 min 0 W/m² -0,3 °C 0,8 °C 4,8 km/h (1 Bft)
27.03.2024 02:24 21,2 °C 0,8 °C 49 % 92 % 989,9 hPa 0,0 l/m² 2,8 km/h (1 Bft) O-NO 63 ° 0 min 0 W/m² -0,3 °C 0,8 °C 3,2 km/h (1 Bft)
27.03.2024 02:25 21,2 °C 0,8 °C 49 % 92 % 990,0 hPa 0,0 l/m² 2,6 km/h (1 Bft) O-NO 63 ° 0 min 0 W/m² -0,3 °C 0,8 °C 3,2 km/h (1 Bft)
27.03.2024 02:27 21,2 °C 0,9 °C 49 % 92 % 989,9 hPa 0,0 l/m² 2,6 km/h (1 Bft) O-NO 63 ° 0 min 0 W/m² -0,2 °C 0,9 °C 3,2 km/h (1 Bft)
27.03.2024 02:29 21,2 °C 0,9 °C 49 % 92 % 989,9 hPa 0,0 l/m² 2,7 km/h (1 Bft) O-NO 63 ° 0 min 0 W/m² -0,2 °C 0,9 °C 4,8 km/h (1 Bft)
27.03.2024 02:31 21,2 °C 0,9 °C 49 % 92 % 989,9 hPa 0,0 l/m² 2,7 km/h (1 Bft) O-NO 63 ° 0 min 0 W/m² -0,2 °C 0,9 °C 4,8 km/h (1 Bft)
27.03.2024 02:32 21,2 °C 0,9 °C 49 % 92 % 989,9 hPa 0,0 l/m² 2,3 km/h (1 Bft) O-NO 63 ° 0 min 0 W/m² -0,2 °C 0,9 °C 3,2 km/h (1 Bft)
27.03.2024 02:33 21,2 °C 0,9 °C 49 % 92 % 989,9 hPa 0,0 l/m² 1,3 km/h (1 Bft) O-NO 63 ° 0 min 0 W/m² -0,2 °C 0,9 °C 1,6 km/h (1 Bft)
27.03.2024 02:34 21,2 °C 0,9 °C 49 % 92 % 989,8 hPa 0,0 l/m² 1,4 km/h (1 Bft) O-NO 63 ° 0 min 0 W/m² -0,2 °C 0,9 °C 3,2 km/h (1 Bft)
27.03.2024 02:36 21,2 °C 0,9 °C 49 % 92 % 989,8 hPa 0,0 l/m² 3,3 km/h (1 Bft) O-NO 67 ° 0 min 0 W/m² -0,2 °C 0,9 °C 4,8 km/h (1 Bft)
27.03.2024 02:38 21,2 °C 0,9 °C 49 % 92 % 989,9 hPa 0,0 l/m² 5,3 km/h (1 Bft) O-NO 75 ° 0 min 0 W/m² -0,2 °C 0,9 °C 8,0 km/h (2 Bft)
27.03.2024 02:40 21,2 °C 1,0 °C 49 % 92 % 989,8 hPa 0,0 l/m² 7,6 km/h (2 Bft) O-NO 72 ° 0 min 0 W/m² -0,2 °C -0,2 °C 8,0 km/h (2 Bft)
27.03.2024 02:43 21,2 °C 1,1 °C 49 % 92 % 989,8 hPa 0,0 l/m² 6,7 km/h (2 Bft) O-NO 74 ° 0 min 0 W/m² -0,1 °C 0,8 °C 8,0 km/h (2 Bft)
27.03.2024 02:45 21,2 °C 1,1 °C 49 % 92 % 989,8 hPa 0,0 l/m² 6,3 km/h (2 Bft) O-NO 77 ° 0 min 0 W/m² -0,1 °C 1,1 °C 8,0 km/h (2 Bft)
27.03.2024 02:47 21,2 °C 1,2 °C 49 % 92 % 989,8 hPa 0,0 l/m² 6,2 km/h (2 Bft) O-NO 76 ° 0 min 0 W/m² 0,0 °C 1,2 °C 8,0 km/h (2 Bft)
27.03.2024 02:49 21,2 °C 1,2 °C 49 % 93 % 989,8 hPa 0,0 l/m² 5,3 km/h (1 Bft) O-NO 78 ° 0 min 0 W/m² 0,2 °C 1,2 °C 6,4 km/h (2 Bft)
27.03.2024 02:52 21,2 °C 1,2 °C 49 % 93 % 989,8 hPa 0,0 l/m² 4,8 km/h (1 Bft) O 84 ° 0 min 0 W/m² 0,2 °C 1,2 °C 6,4 km/h (2 Bft)
27.03.2024 02:53 21,2 °C 1,2 °C 49 % 92 % 989,8 hPa 0,0 l/m² 4,6 km/h (1 Bft) O 84 ° 0 min 0 W/m² 0,0 °C 1,2 °C 6,4 km/h (2 Bft)
27.03.2024 02:54 21,1 °C 1,2 °C 49 % 92 % 989,9 hPa 0,0 l/m² 3,5 km/h (1 Bft) O 84 ° 0 min 0 W/m² 0,0 °C 1,2 °C 4,8 km/h (1 Bft)
27.03.2024 02:55 21,1 °C 1,2 °C 49 % 92 % 989,9 hPa 0,0 l/m² 4,0 km/h (1 Bft) O 85 ° 0 min 0 W/m² 0,0 °C 1,2 °C 4,8 km/h (1 Bft)
27.03.2024 02:57 21,1 °C 1,2 °C 49 % 92 % 989,9 hPa 0,0 l/m² 4,5 km/h (1 Bft) O 83 ° 0 min 0 W/m² 0,0 °C 1,2 °C 6,4 km/h (2 Bft)
27.03.2024 02:59 21,2 °C 1,2 °C 49 % 92 % 989,9 hPa 0,0 l/m² 5,2 km/h (1 Bft) O 84 ° 0 min 0 W/m² 0,0 °C 1,2 °C 6,4 km/h (2 Bft)
27.03.2024 03:00 21,2 °C 1,2 °C 49 % 92 % 989,9 hPa 0,0 l/m² 4,8 km/h (1 Bft) O 90 ° 0 min 0 W/m² 0,0 °C 1,2 °C 8,0 km/h (2 Bft)
27.03.2024 03:06 21,1 °C 1,3 °C 49 % 93 % 989,8 hPa 0,0 l/m² 4,8 km/h (1 Bft) O-NO 77 ° 0 min 0 W/m² 0,3 °C 1,3 °C 6,4 km/h (2 Bft)
27.03.2024 03:07 21,1 °C 1,3 °C 49 % 93 % 989,9 hPa 0,0 l/m² 5,2 km/h (1 Bft) O-NO 77 ° 0 min 0 W/m² 0,3 °C 1,3 °C 6,4 km/h (2 Bft)
27.03.2024 03:08 21,1 °C 1,3 °C 49 % 93 % 989,8 hPa 0,0 l/m² 4,8 km/h (1 Bft) O-NO 76 ° 0 min 0 W/m² 0,3 °C 1,3 °C 6,4 km/h (2 Bft)
27.03.2024 03:09 21,1 °C 1,3 °C 49 % 93 % 989,8 hPa 0,0 l/m² 4,5 km/h (1 Bft) O-NO 76 ° 0 min 0 W/m² 0,3 °C 1,3 °C 4,8 km/h (1 Bft)
27.03.2024 03:11 21,1 °C 1,4 °C 49 % 93 % 989,8 hPa 0,0 l/m² 4,1 km/h (1 Bft) O-NO 76 ° 0 min 0 W/m² 0,4 °C 1,4 °C 6,4 km/h (2 Bft)
27.03.2024 03:12 21,1 °C 1,4 °C 49 % 93 % 989,8 hPa 0,0 l/m² 4,4 km/h (1 Bft) O-NO 76 ° 0 min 0 W/m² 0,4 °C 1,4 °C 4,8 km/h (1 Bft)
27.03.2024 03:14 21,1 °C 1,4 °C 49 % 93 % 989,7 hPa 0,0 l/m² 2,7 km/h (1 Bft) O-NO 76 ° 0 min 0 W/m² 0,4 °C 1,4 °C 4,8 km/h (1 Bft)
27.03.2024 03:16 21,1 °C 1,4 °C 49 % 93 % 989,7 hPa 0,0 l/m² 0,0 km/h (0 Bft) O-NO 76 ° 0 min 0 W/m² 0,4 °C 1,4 °C 0,0 km/h (0 Bft)
27.03.2024 03:18 21,1 °C 1,4 °C 49 % 93 % 989,7 hPa 0,0 l/m² 0,0 km/h (0 Bft) O-NO 76 ° 0 min 0 W/m² 0,4 °C 1,4 °C 0,0 km/h (0 Bft)
27.03.2024 03:20 21,1 °C 1,3 °C 49 % 93 % 989,7 hPa 0,0 l/m² 0,0 km/h (0 Bft) O-NO 76 ° 0 min 0 W/m² 0,3 °C 1,3 °C 0,0 km/h (0 Bft)
27.03.2024 03:21 21,1 °C 1,3 °C 49 % 93 % 989,7 hPa 0,0 l/m² 0,0 km/h (0 Bft) O-NO 76 ° 0 min 0 W/m² 0,3 °C 1,3 °C 0,0 km/h (0 Bft)
27.03.2024 03:22 21,1 °C 1,4 °C 49 % 93 % 989,7 hPa 0,0 l/m² 0,0 km/h (0 Bft) O-NO 76 ° 0 min 0 W/m² 0,4 °C 1,4 °C 0,0 km/h (0 Bft)
27.03.2024 03:23 21,1 °C 1,3 °C 49 % 93 % 989,7 hPa 0,0 l/m² 0,0 km/h (0 Bft) O-NO 76 ° 0 min 0 W/m² 0,3 °C 1,3 °C 0,0 km/h (0 Bft)
27.03.2024 03:25 21,1 °C 1,3 °C 49 % 93 % 989,7 hPa 0,0 l/m² 0,0 km/h (0 Bft) O-NO 76 ° 0 min 0 W/m² 0,3 °C 1,3 °C 0,0 km/h (0 Bft)
27.03.2024 03:27 21,1 °C 1,2 °C 49 % 93 % 989,7 hPa 0,0 l/m² 0,0 km/h (0 Bft) O-NO 76 ° 0 min 0 W/m² 0,2 °C 1,2 °C 0,0 km/h (0 Bft)
27.03.2024 03:29 21,1 °C 1,2 °C 49 % 92 % 989,6 hPa 0,0 l/m² 0,0 km/h (0 Bft) O-NO 76 ° 0 min 0 W/m² 0,0 °C 1,2 °C 0,0 km/h (0 Bft)
27.03.2024 03:30 21,1 °C 1,1 °C 49 % 92 % 989,5 hPa 0,0 l/m² 0,0 km/h (0 Bft) O-NO 76 ° 0 min 0 W/m² -0,1 °C 1,1 °C 0,0 km/h (0 Bft)
27.03.2024 03:32 21,1 °C 1,1 °C 49 % 92 % 989,6 hPa 0,0 l/m² 0,0 km/h (0 Bft) O-NO 76 ° 0 min 0 W/m² -0,1 °C 1,1 °C 0,0 km/h (0 Bft)
27.03.2024 03:33 21,1 °C 1,1 °C 49 % 92 % 989,5 hPa 0,0 l/m² 0,0 km/h (0 Bft) O-NO 76 ° 0 min 0 W/m² -0,1 °C 1,1 °C 0,0 km/h (0 Bft)
27.03.2024 03:35 21,1 °C 1,1 °C 49 % 93 % 989,6 hPa 0,0 l/m² 0,0 km/h (0 Bft) O-NO 76 ° 0 min 0 W/m² 0,1 °C 1,1 °C 0,0 km/h (0 Bft)
27.03.2024 03:37 21,1 °C 1,0 °C 49 % 93 % 989,5 hPa 0,0 l/m² 0,0 km/h (0 Bft) O-NO 76 ° 0 min 0 W/m² -0,0 °C 1,0 °C 0,0 km/h (0 Bft)
27.03.2024 03:38 21,1 °C 1,1 °C 49 % 93 % 989,5 hPa 0,0 l/m² 0,0 km/h (0 Bft) O-NO 76 ° 0 min 0 W/m² 0,1 °C 1,1 °C 0,0 km/h (0 Bft)
27.03.2024 03:40 21,1 °C 1,1 °C 49 % 93 % 989,5 hPa 0,0 l/m² 0,0 km/h (0 Bft) O-NO 76 ° 0 min 0 W/m² 0,1 °C 1,1 °C 0,0 km/h (0 Bft)
27.03.2024 03:41 21,1 °C 1,1 °C 49 % 93 % 989,5 hPa 0,0 l/m² 0,0 km/h (0 Bft) O-NO 76 ° 0 min 0 W/m² 0,1 °C 1,1 °C 0,0 km/h (0 Bft)
27.03.2024 03:42 21,1 °C 1,1 °C 49 % 93 % 989,5 hPa 0,0 l/m² 0,0 km/h (0 Bft) O-NO 76 ° 0 min 0 W/m² 0,1 °C 1,1 °C 0,0 km/h (0 Bft)
27.03.2024 03:43 21,1 °C 1,1 °C 49 % 93 % 989,4 hPa 0,0 l/m² 0,0 km/h (0 Bft) O-NO 76 ° 0 min 0 W/m² 0,1 °C 1,1 °C 0,0 km/h (0 Bft)
27.03.2024 03:45 21,1 °C 1,1 °C 49 % 93 % 989,5 hPa 0,0 l/m² 0,0 km/h (0 Bft) O-NO 76 ° 0 min 0 W/m² 0,1 °C 1,1 °C 0,0 km/h (0 Bft)
27.03.2024 03:48 21,1 °C 1,0 °C 49 % 92 % 989,4 hPa 0,0 l/m² 0,0 km/h (0 Bft) O-NO 76 ° 0 min 0 W/m² -0,2 °C 1,0 °C 0,0 km/h (0 Bft)
27.03.2024 03:50 21,1 °C 0,9 °C 49 % 92 % 989,4 hPa 0,0 l/m² 0,0 km/h (0 Bft) O-NO 76 ° 0 min 0 W/m² -0,2 °C 0,9 °C 0,0 km/h (0 Bft)
27.03.2024 03:51 21,1 °C 0,9 °C 49 % 92 % 989,4 hPa 0,0 l/m² 0,0 km/h (0 Bft) O-NO 76 ° 0 min 0 W/m² -0,2 °C 0,9 °C 0,0 km/h (0 Bft)
27.03.2024 03:52 21,1 °C 0,8 °C 49 % 92 % 989,4 hPa 0,0 l/m² 0,0 km/h (0 Bft) O-NO 76 ° 0 min 0 W/m² -0,3 °C 0,8 °C 0,0 km/h (0 Bft)
27.03.2024 03:53 21,1 °C 0,7 °C 49 % 92 % 989,4 hPa 0,0 l/m² 0,0 km/h (0 Bft) O-NO 76 ° 0 min 0 W/m² -0,4 °C 0,7 °C 0,0 km/h (0 Bft)
27.03.2024 03:55 21,1 °C 0,7 °C 49 % 92 % 989,4 hPa 0,0 l/m² 0,0 km/h (0 Bft) O-NO 76 ° 0 min 0 W/m² -0,4 °C 0,7 °C 0,0 km/h (0 Bft)
27.03.2024 03:57 21,1 °C 0,8 °C 49 % 93 % 989,3 hPa 0,0 l/m² 0,0 km/h (0 Bft) O-NO 76 ° 0 min 0 W/m² -0,2 °C 0,8 °C 0,0 km/h (0 Bft)
27.03.2024 03:59 21,1 °C 0,8 °C 49 % 93 % 989,3 hPa 0,0 l/m² 0,0 km/h (0 Bft) O-NO 76 ° 0 min 0 W/m² -0,2 °C 0,8 °C 0,0 km/h (0 Bft)
27.03.2024 04:00 21,1 °C 0,8 °C 49 % 93 % 989,3 hPa 0,0 l/m² 0,0 km/h (0 Bft) O-NO 76 ° 0 min 0 W/m² -0,2 °C 0,8 °C 0,0 km/h (0 Bft)
27.03.2024 04:02 21,1 °C 0,8 °C 49 % 93 % 989,3 hPa 0,0 l/m² 0,0 km/h (0 Bft) O-NO 76 ° 0 min 0 W/m² -0,2 °C 0,8 °C 0,0 km/h (0 Bft)
27.03.2024 04:03 21,1 °C 0,8 °C 49 % 92 % 989,3 hPa 0,0 l/m² 0,0 km/h (0 Bft) O-NO 76 ° 0 min 0 W/m² -0,3 °C 0,8 °C 0,0 km/h (0 Bft)
27.03.2024 04:05 21,1 °C 0,8 °C 49 % 93 % 989,1 hPa 0,0 l/m² 0,0 km/h (0 Bft) O-NO 76 ° 0 min 0 W/m² -0,2 °C 0,8 °C 0,0 km/h (0 Bft)
27.03.2024 04:07 21,1 °C 0,9 °C 49 % 93 % 989,3 hPa 0,0 l/m² 0,0 km/h (0 Bft) O-NO 76 ° 0 min 0 W/m² -0,1 °C 0,9 °C 0,0 km/h (0 Bft)
27.03.2024 04:09 21,1 °C 0,9 °C 49 % 93 % 989,2 hPa 0,0 l/m² 0,0 km/h (0 Bft) O-NO 76 ° 0 min 0 W/m² -0,1 °C 0,9 °C 0,0 km/h (0 Bft)
27.03.2024 04:10 21,1 °C 0,9 °C 49 % 93 % 989,2 hPa 0,0 l/m² 0,0 km/h (0 Bft) O-NO 76 ° 0 min 0 W/m² -0,1 °C 0,9 °C 0,0 km/h (0 Bft)
27.03.2024 04:12 21,1 °C 0,9 °C 49 % 93 % 989,1 hPa 0,0 l/m² 0,0 km/h (0 Bft) O-NO 64 ° 0 min 0 W/m² -0,1 °C 0,9 °C 0,0 km/h (0 Bft)
27.03.2024 04:13 21,1 °C 0,9 °C 49 % 93 % 989,1 hPa 0,0 l/m² 0,0 km/h (0 Bft) NO 55 ° 0 min 0 W/m² -0,1 °C 0,9 °C 0,0 km/h (0 Bft)
27.03.2024 04:15 21,2 °C 0,9 °C 49 % 93 % 989,1 hPa 0,0 l/m² 0,0 km/h (0 Bft) NO 55 ° 0 min 0 W/m² -0,1 °C 0,9 °C 0,0 km/h (0 Bft)
27.03.2024 04:16 21,1 °C 0,9 °C 49 % 93 % 989,1 hPa 0,0 l/m² 0,0 km/h (0 Bft) NO 55 ° 0 min 0 W/m² -0,1 °C 0,9 °C 0,0 km/h (0 Bft)
27.03.2024 04:18 21,2 °C 0,9 °C 49 % 93 % 989,0 hPa 0,0 l/m² 0,0 km/h (0 Bft) NO 55 ° 0 min 0 W/m² -0,1 °C 0,9 °C 0,0 km/h (0 Bft)
27.03.2024 04:20 21,2 °C 0,8 °C 49 % 93 % 989,0 hPa 0,0 l/m² 0,0 km/h (0 Bft) NO 55 ° 0 min 0 W/m² -0,2 °C 0,8 °C 0,0 km/h (0 Bft)
27.03.2024 04:21 21,1 °C 0,8 °C 49 % 93 % 988,9 hPa 0,0 l/m² 0,0 km/h (0 Bft) NO 55 ° 0 min 0 W/m² -0,2 °C 0,8 °C 0,0 km/h (0 Bft)
27.03.2024 04:22 21,1 °C 0,9 °C 49 % 93 % 988,9 hPa 0,0 l/m² 0,0 km/h (0 Bft) NO 55 ° 0 min 0 W/m² -0,1 °C 0,9 °C 0,0 km/h (0 Bft)
27.03.2024 04:23 21,1 °C 0,9 °C 49 % 93 % 988,9 hPa 0,0 l/m² 0,0 km/h (0 Bft) NO 55 ° 0 min 0 W/m² -0,1 °C 0,9 °C 0,0 km/h (0 Bft)
27.03.2024 04:25 21,2 °C 0,8 °C 49 % 92 % 988,8 hPa 0,0 l/m² 0,0 km/h (0 Bft) NO 55 ° 0 min 0 W/m² -0,3 °C 0,8 °C 0,0 km/h (0 Bft)
27.03.2024 04:27 21,1 °C 0,6 °C 49 % 92 % 988,9 hPa 0,0 l/m² 0,0 km/h (0 Bft) NO 55 ° 0 min 0 W/m² -0,5 °C 0,6 °C 0,0 km/h (0 Bft)
27.03.2024 04:29 21,1 °C 0,4 °C 49 % 92 % 988,9 hPa 0,0 l/m² 0,0 km/h (0 Bft) NO 55 ° 0 min 0 W/m² -0,7 °C 0,4 °C 0,0 km/h (0 Bft)
27.03.2024 04:31 21,2 °C 0,3 °C 49 % 92 % 988,9 hPa 0,0 l/m² 0,0 km/h (0 Bft) NO 55 ° 0 min 0 W/m² -0,8 °C 0,3 °C 0,0 km/h (0 Bft)
27.03.2024 04:32 21,1 °C 0,3 °C 49 % 92 % 989,0 hPa 0,0 l/m² 0,0 km/h (0 Bft) NO 55 ° 0 min 0 W/m² -0,8 °C 0,3 °C 0,0 km/h (0 Bft)
27.03.2024 04:33 21,2 °C 0,3 °C 49 % 93 % 989,0 hPa 0,0 l/m² 0,0 km/h (0 Bft) NO 55 ° 0 min 0 W/m² -0,7 °C 0,3 °C 0,0 km/h (0 Bft)
27.03.2024 04:34 21,1 °C 0,3 °C 49 % 92 % 989,0 hPa 0,0 l/m² 0,0 km/h (0 Bft) NO 55 ° 0 min 0 W/m² -0,8 °C 0,3 °C 0,0 km/h (0 Bft)
27.03.2024 04:36 21,2 °C 0,4 °C 49 % 93 % 989,0 hPa 0,0 l/m² 0,0 km/h (0 Bft) NO 55 ° 0 min 0 W/m² -0,6 °C 0,4 °C 0,0 km/h (0 Bft)
27.03.2024 04:38 21,2 °C 0,5 °C 49 % 93 % 989,0 hPa 0,0 l/m² 0,0 km/h (0 Bft) NO 55 ° 0 min 0 W/m² -0,5 °C 0,5 °C 0,0 km/h (0 Bft)
27.03.2024 04:40 21,2 °C 0,6 °C 49 % 93 % 989,0 hPa 0,0 l/m² 0,0 km/h (0 Bft) NO 55 ° 0 min 0 W/m² -0,4 °C 0,6 °C 0,0 km/h (0 Bft)
27.03.2024 04:41 21,1 °C 0,7 °C 49 % 93 % 988,9 hPa 0,0 l/m² 0,0 km/h (0 Bft) NO 55 ° 0 min 0 W/m² -0,3 °C 0,7 °C 0,0 km/h (0 Bft)
27.03.2024 04:43 21,2 °C 0,7 °C 49 % 93 % 988,8 hPa 0,0 l/m² 0,0 km/h (0 Bft) NO 55 ° 0 min 0 W/m² -0,3 °C 0,7 °C 0,0 km/h (0 Bft)
27.03.2024 04:44 21,2 °C 0,6 °C 49 % 93 % 988,7 hPa 0,0 l/m² 0,0 km/h (0 Bft) NO 55 ° 0 min 0 W/m² -0,4 °C 0,6 °C 0,0 km/h (0 Bft)
27.03.2024 04:46 21,2 °C 0,6 °C 49 % 93 % 988,7 hPa 0,0 l/m² 0,0 km/h (0 Bft) NO 55 ° 0 min 0 W/m² -0,4 °C 0,6 °C 0,0 km/h (0 Bft)
27.03.2024 04:48 21,2 °C 0,6 °C 49 % 93 % 988,6 hPa 0,0 l/m² 0,0 km/h (0 Bft) NO 55 ° 0 min 0 W/m² -0,4 °C 0,6 °C 1,6 km/h (1 Bft)
27.03.2024 04:50 21,2 °C 0,7 °C 49 % 93 % 988,5 hPa 0,0 l/m² 0,0 km/h (0 Bft) NO 55 ° 0 min 0 W/m² -0,3 °C 0,7 °C 0,0 km/h (0 Bft)
27.03.2024 04:51 21,2 °C 0,7 °C 49 % 93 % 988,7 hPa 0,0 l/m² 0,0 km/h (0 Bft) NO 55 ° 0 min 0 W/m² -0,3 °C 0,7 °C 0,0 km/h (0 Bft)
27.03.2024 04:53 21,2 °C 0,8 °C 49 % 93 % 988,7 hPa 0,0 l/m² 0,0 km/h (0 Bft) NO 55 ° 0 min 0 W/m² -0,2 °C 0,8 °C 0,0 km/h (0 Bft)
27.03.2024 04:54 21,2 °C 0,8 °C 49 % 93 % 988,7 hPa 0,0 l/m² 0,0 km/h (0 Bft) NO 55 ° 0 min 0 W/m² -0,2 °C 0,8 °C 0,0 km/h (0 Bft)
27.03.2024 04:56 21,2 °C 0,8 °C 49 % 93 % 988,7 hPa 0,0 l/m² 0,0 km/h (0 Bft) NO 55 ° 0 min 0 W/m² -0,2 °C 0,8 °C 0,0 km/h (0 Bft)
27.03.2024 04:58 21,2 °C 0,7 °C 49 % 93 % 988,7 hPa 0,0 l/m² 0,0 km/h (0 Bft) NO 55 ° 0 min 0 W/m² -0,3 °C 0,7 °C 0,0 km/h (0 Bft)
27.03.2024 05:00 21,2 °C 0,8 °C 49 % 93 % 988,5 hPa 0,0 l/m² 0,0 km/h (0 Bft) NO 55 ° 0 min 0 W/m² -0,2 °C 0,8 °C 0,0 km/h (0 Bft)
27.03.2024 05:01 21,2 °C 0,8 °C 49 % 93 % 988,4 hPa 0,0 l/m² 0,0 km/h (0 Bft) NO 55 ° 0 min 0 W/m² -0,2 °C 0,8 °C 0,0 km/h (0 Bft)
27.03.2024 05:03 21,2 °C 0,8 °C 49 % 93 % 988,2 hPa 0,0 l/m² 0,0 km/h (0 Bft) NO 55 ° 0 min 0 W/m² -0,2 °C 0,8 °C 0,0 km/h (0 Bft)
27.03.2024 05:04 21,2 °C 0,8 °C 49 % 93 % 988,2 hPa 0,0 l/m² 0,0 km/h (0 Bft) NO 55 ° 0 min 0 W/m² -0,2 °C 0,8 °C 0,0 km/h (0 Bft)
27.03.2024 05:06 21,2 °C 0,9 °C 49 % 93 % 988,3 hPa 0,0 l/m² 0,0 km/h (0 Bft) NO 55 ° 0 min 0 W/m² -0,1 °C 0,9 °C 0,0 km/h (0 Bft)
27.03.2024 05:08 21,2 °C 0,9 °C 49 % 93 % 988,2 hPa 0,0 l/m² 0,0 km/h (0 Bft) NO 55 ° 0 min 0 W/m² -0,1 °C 0,9 °C 0,0 km/h (0 Bft)
27.03.2024 05:10 21,2 °C 0,8 °C 49 % 93 % 988,3 hPa 0,0 l/m² 0,0 km/h (0 Bft) NO 55 ° 0 min 0 W/m² -0,2 °C 0,8 °C 0,0 km/h (0 Bft)
27.03.2024 05:11 21,2 °C 0,8 °C 49 % 93 % 988,3 hPa 0,0 l/m² 0,0 km/h (0 Bft) NO 55 ° 0 min 0 W/m² -0,2 °C 0,8 °C 0,0 km/h (0 Bft)
27.03.2024 05:13 21,2 °C 0,8 °C 49 % 93 % 988,2 hPa 0,0 l/m² 0,0 km/h (0 Bft) NO 55 ° 0 min 0 W/m² -0,2 °C 0,8 °C 0,0 km/h (0 Bft)
27.03.2024 05:14 21,2 °C 0,8 °C 49 % 93 % 988,2 hPa 0,0 l/m² 0,0 km/h (0 Bft) NO 55 ° 0 min 0 W/m² -0,2 °C 0,8 °C 0,0 km/h (0 Bft)
27.03.2024 05:16 21,2 °C 0,8 °C 49 % 93 % 988,2 hPa 0,0 l/m² 0,0 km/h (0 Bft) NO 55 ° 0 min 0 W/m² -0,2 °C 0,8 °C 0,0 km/h (0 Bft)
27.03.2024 05:18 21,2 °C 0,8 °C 49 % 93 % 988,1 hPa 0,0 l/m² 0,0 km/h (0 Bft) NO 55 ° 0 min 0 W/m² -0,2 °C 0,8 °C 0,0 km/h (0 Bft)
27.03.2024 05:20 21,2 °C 0,9 °C 49 % 93 % 988,2 hPa 0,0 l/m² 0,0 km/h (0 Bft) NO 55 ° 0 min 0 W/m² -0,1 °C 0,9 °C 0,0 km/h (0 Bft)
27.03.2024 05:21 21,2 °C 0,9 °C 49 % 93 % 988,1 hPa 0,0 l/m² 0,0 km/h (0 Bft) NO 55 ° 0 min 0 W/m² -0,1 °C 0,9 °C 0,0 km/h (0 Bft)
27.03.2024 05:23 21,2 °C 0,9 °C 49 % 93 % 988,1 hPa 0,0 l/m² 0,0 km/h (0 Bft) NO 55 ° 0 min 0 W/m² -0,1 °C 0,9 °C 0,0 km/h (0 Bft)
27.03.2024 05:24 21,2 °C 0,9 °C 49 % 93 % 988,1 hPa 0,0 l/m² 0,0 km/h (0 Bft) NO 55 ° 0 min 0 W/m² -0,1 °C 0,9 °C 0,0 km/h (0 Bft)
27.03.2024 05:26 21,2 °C 0,9 °C 49 % 93 % 988,2 hPa 0,0 l/m² 0,0 km/h (0 Bft) NO 55 ° 0 min 0 W/m² -0,1 °C 0,9 °C 0,0 km/h (0 Bft)
27.03.2024 05:28 21,2 °C 0,8 °C 49 % 93 % 988,2 hPa 0,0 l/m² 0,0 km/h (0 Bft) NO 55 ° 0 min 0 W/m² -0,2 °C 0,8 °C 0,0 km/h (0 Bft)
27.03.2024 05:30 21,2 °C 0,8 °C 49 % 93 % 988,2 hPa 0,0 l/m² 0,0 km/h (0 Bft) NO 55 ° 0 min 0 W/m² -0,2 °C 0,8 °C 0,0 km/h (0 Bft)
27.03.2024 05:31 21,1 °C 0,8 °C 49 % 93 % 988,1 hPa 0,0 l/m² 0,0 km/h (0 Bft) NO 55 ° 0 min 0 W/m² -0,2 °C 0,8 °C 0,0 km/h (0 Bft)
27.03.2024 05:33 21,2 °C 0,8 °C 49 % 93 % 988,1 hPa 0,0 l/m² 0,0 km/h (0 Bft) NO 55 ° 0 min 0 W/m² -0,2 °C 0,8 °C 0,0 km/h (0 Bft)
27.03.2024 05:35 21,2 °C 0,8 °C 49 % 93 % 988,1 hPa 0,0 l/m² 0,0 km/h (0 Bft) NO 55 ° 0 min 0 W/m² -0,2 °C 0,8 °C 0,0 km/h (0 Bft)
27.03.2024 05:37 21,2 °C 0,8 °C 49 % 93 % 988,1 hPa 0,0 l/m² 0,0 km/h (0 Bft) NO 55 ° 0 min 0 W/m² -0,2 °C 0,8 °C 0,0 km/h (0 Bft)
27.03.2024 05:39 21,2 °C 0,9 °C 49 % 93 % 988,3 hPa 0,0 l/m² 0,0 km/h (0 Bft) NO 55 ° 0 min 0 W/m² -0,1 °C 0,9 °C 0,0 km/h (0 Bft)
27.03.2024 05:41 21,2 °C 0,9 °C 49 % 93 % 988,2 hPa 0,0 l/m² 0,0 km/h (0 Bft) NO 55 ° 0 min 0 W/m² -0,1 °C 0,9 °C 0,0 km/h (0 Bft)
27.03.2024 05:43 21,1 °C 0,9 °C 49 % 93 % 988,2 hPa 0,0 l/m² 0,0 km/h (0 Bft) NO 55 ° 0 min 0 W/m² -0,1 °C 0,9 °C 0,0 km/h (0 Bft)
27.03.2024 05:45 21,1 °C 0,9 °C 49 % 93 % 988,2 hPa 0,0 l/m² 0,0 km/h (0 Bft) NO 55 ° 0 min 0 W/m² -0,1 °C 0,9 °C 0,0 km/h (0 Bft)
27.03.2024 05:47 21,2 °C 0,9 °C 49 % 93 % 988,1 hPa 0,0 l/m² 0,0 km/h (0 Bft) NO 55 ° 0 min 0 W/m² -0,1 °C 0,9 °C 0,0 km/h (0 Bft)
27.03.2024 05:49 21,1 °C 0,9 °C 49 % 93 % 988,1 hPa 0,0 l/m² 0,0 km/h (0 Bft) NO 55 ° 0 min 0 W/m² -0,1 °C 0,9 °C 0,0 km/h (0 Bft)
27.03.2024 05:51 21,1 °C 0,8 °C 49 % 93 % 988,1 hPa 0,0 l/m² 0,0 km/h (0 Bft) NO 55 ° 0 min 0 W/m² -0,2 °C 0,8 °C 0,0 km/h (0 Bft)
27.03.2024 05:53 21,1 °C 0,8 °C 49 % 93 % 988,1 hPa 0,0 l/m² 0,0 km/h (0 Bft) NO 55 ° 0 min 0 W/m² -0,2 °C 0,8 °C 0,0 km/h (0 Bft)
27.03.2024 05:55 21,1 °C 0,8 °C 49 % 93 % 988,2 hPa 0,0 l/m² 0,0 km/h (0 Bft) NO 55 ° 0 min 0 W/m² -0,2 °C 0,8 °C 0,0 km/h (0 Bft)
27.03.2024 05:57 21,1 °C 0,8 °C 49 % 93 % 988,2 hPa 0,0 l/m² 0,0 km/h (0 Bft) NO 55 ° 0 min 0 W/m² -0,2 °C 0,8 °C 0,0 km/h (0 Bft)
27.03.2024 05:59 21,1 °C 0,8 °C 49 % 93 % 988,1 hPa 0,0 l/m² 0,0 km/h (0 Bft) NO 55 ° 0 min 0 W/m² -0,2 °C 0,8 °C 0,0 km/h (0 Bft)
27.03.2024 06:01 21,1 °C 0,7 °C 49 % 93 % 988,2 hPa 0,0 l/m² 0,0 km/h (0 Bft) NO 55 ° 0 min 0 W/m² -0,3 °C 0,7 °C 0,0 km/h (0 Bft)
27.03.2024 06:03 21,1 °C 0,8 °C 49 % 93 % 988,1 hPa 0,0 l/m² 0,0 km/h (0 Bft) NO 55 ° 0 min 0 W/m² -0,2 °C 0,8 °C 0,0 km/h (0 Bft)
27.03.2024 06:05 21,1 °C 0,8 °C 49 % 93 % 988,1 hPa 0,0 l/m² 0,0 km/h (0 Bft) NO 55 ° 0 min 0 W/m² -0,2 °C 0,8 °C 0,0 km/h (0 Bft)
27.03.2024 06:07 21,1 °C 0,8 °C 49 % 93 % 988,2 hPa 0,0 l/m² 0,0 km/h (0 Bft) NO 55 ° 0 min 0 W/m² -0,2 °C 0,8 °C 0,0 km/h (0 Bft)
27.03.2024 06:09 21,1 °C 0,8 °C 49 % 93 % 988,3 hPa 0,0 l/m² 0,0 km/h (0 Bft) NO 55 ° 0 min 5 W/m² -0,2 °C 0,8 °C 0,0 km/h (0 Bft)
27.03.2024 06:11 21,1 °C 0,7 °C 49 % 93 % 988,2 hPa 0,0 l/m² 0,0 km/h (0 Bft) NO 55 ° 0 min 7 W/m² -0,3 °C 0,7 °C 0,0 km/h (0 Bft)
27.03.2024 06:13 21,1 °C 0,4 °C 49 % 93 % 988,3 hPa 0,0 l/m² 0,0 km/h (0 Bft) NO 55 ° 0 min 7 W/m² -0,6 °C 0,4 °C 0,0 km/h (0 Bft)
27.03.2024 06:15 21,1 °C 0,4 °C 49 % 93 % 988,2 hPa 0,0 l/m² 0,0 km/h (0 Bft) NO 55 ° 0 min 9 W/m² -0,6 °C 0,4 °C 0,0 km/h (0 Bft)
27.03.2024 06:17 21,1 °C 0,4 °C 49 % 93 % 988,2 hPa 0,0 l/m² 0,0 km/h (0 Bft) NO 55 ° 0 min 11 W/m² -0,6 °C 0,4 °C 0,0 km/h (0 Bft)
27.03.2024 06:19 21,1 °C 0,6 °C 49 % 93 % 988,2 hPa 0,0 l/m² 0,0 km/h (0 Bft) NO 55 ° 0 min 12 W/m² -0,4 °C 0,6 °C 0,0 km/h (0 Bft)
27.03.2024 06:21 21,1 °C 0,7 °C 49 % 93 % 988,1 hPa 0,0 l/m² 0,0 km/h (0 Bft) NO 55 ° 0 min 14 W/m² -0,3 °C 0,7 °C 0,0 km/h (0 Bft)
27.03.2024 06:23 21,1 °C 0,7 °C 49 % 93 % 988,0 hPa 0,0 l/m² 0,0 km/h (0 Bft) NO 55 ° 0 min 16 W/m² -0,3 °C 0,7 °C 0,0 km/h (0 Bft)
27.03.2024 06:25 21,1 °C 0,7 °C 49 % 93 % 988,1 hPa 0,0 l/m² 0,0 km/h (0 Bft) NO 55 ° 0 min 18 W/m² -0,3 °C 0,7 °C 0,0 km/h (0 Bft)
27.03.2024 06:27 21,1 °C 0,8 °C 49 % 93 % 988,0 hPa 0,0 l/m² 0,0 km/h (0 Bft) NO 55 ° 0 min 21 W/m² -0,2 °C 0,8 °C 0,0 km/h (0 Bft)
27.03.2024 06:29 21,1 °C 0,8 °C 49 % 93 % 988,1 hPa 0,0 l/m² 0,0 km/h (0 Bft) NO 55 ° 0 min 23 W/m² -0,2 °C 0,8 °C 0,0 km/h (0 Bft)
27.03.2024 06:31 21,1 °C 0,8 °C 49 % 93 % 988,0 hPa 0,0 l/m² 0,0 km/h (0 Bft) NO 55 ° 0 min 25 W/m² -0,2 °C 0,8 °C 0,0 km/h (0 Bft)
27.03.2024 06:33 21,1 °C 0,8 °C 49 % 93 % 987,9 hPa 0,0 l/m² 0,0 km/h (0 Bft) NO 55 ° 0 min 28 W/m² -0,2 °C 0,8 °C 0,0 km/h (0 Bft)
27.03.2024 06:35 21,1 °C 0,9 °C 49 % 94 % 988,0 hPa 0,0 l/m² 0,0 km/h (0 Bft) NO 55 ° 0 min 30 W/m² 0,0 °C 0,9 °C 0,0 km/h (0 Bft)
27.03.2024 06:37 21,1 °C 0,9 °C 49 % 94 % 987,9 hPa 0,0 l/m² 0,0 km/h (0 Bft) NO 55 ° 0 min 32 W/m² 0,0 °C 0,9 °C 0,0 km/h (0 Bft)
27.03.2024 06:39 21,1 °C 1,0 °C 49 % 94 % 987,9 hPa 0,0 l/m² 0,0 km/h (0 Bft) NO 55 ° 0 min 35 W/m² 0,1 °C 1,0 °C 0,0 km/h (0 Bft)
27.03.2024 06:41 21,1 °C 1,1 °C 49 % 94 % 987,9 hPa 0,0 l/m² 0,0 km/h (0 Bft) NO 55 ° 0 min 37 W/m² 0,2 °C 1,1 °C 0,0 km/h (0 Bft)
27.03.2024 06:43 21,1 °C 1,1 °C 49 % 93 % 987,8 hPa 0,0 l/m² 0,0 km/h (0 Bft) NO 55 ° 0 min 39 W/m² 0,1 °C 1,1 °C 0,0 km/h (0 Bft)
27.03.2024 06:45 21,1 °C 1,2 °C 49 % 94 % 987,8 hPa 0,0 l/m² 0,0 km/h (0 Bft) NO 55 ° 0 min 42 W/m² 0,3 °C 1,2 °C 0,0 km/h (0 Bft)
27.03.2024 06:48 21,1 °C 1,2 °C 49 % 94 % 987,8 hPa 0,0 l/m² 0,0 km/h (0 Bft) NO 55 ° 0 min 46 W/m² 0,3 °C 1,2 °C 0,0 km/h (0 Bft)
27.03.2024 06:50 21,1 °C 1,3 °C 49 % 94 % 987,9 hPa 0,0 l/m² 0,0 km/h (0 Bft) NO 55 ° 0 min 51 W/m² 0,4 °C 1,3 °C 0,0 km/h (0 Bft)
27.03.2024 06:52 21,1 °C 1,4 °C 49 % 94 % 987,8 hPa 0,0 l/m² 0,0 km/h (0 Bft) NO 55 ° 2 min 54 W/m² 0,5 °C 1,4 °C 0,0 km/h (0 Bft)
27.03.2024 06:54 21,1 °C 1,4 °C 49 % 94 % 987,7 hPa 0,0 l/m² 0,0 km/h (0 Bft) NO 55 ° 2 min 58 W/m² 0,5 °C 1,4 °C 0,0 km/h (0 Bft)
27.03.2024 06:56 21,1 °C 1,4 °C 49 % 94 % 987,8 hPa 0,0 l/m² 0,0 km/h (0 Bft) NO 55 ° 2 min 65 W/m² 0,5 °C 1,4 °C 0,0 km/h (0 Bft)
27.03.2024 06:58 21,1 °C 1,6 °C 49 % 94 % 987,8 hPa 0,0 l/m² 0,0 km/h (0 Bft) NO 55 ° 2 min 67 W/m² 0,7 °C 1,6 °C 0,0 km/h (0 Bft)
27.03.2024 07:00 21,1 °C 1,6 °C 49 % 94 % 987,7 hPa 0,0 l/m² 0,0 km/h (0 Bft) NO 55 ° 2 min 70 W/m² 0,7 °C 1,6 °C 0,0 km/h (0 Bft)
27.03.2024 07:02 21,1 °C 1,7 °C 49 % 94 % 987,8 hPa 0,0 l/m² 0,0 km/h (0 Bft) NO 55 ° 2 min 74 W/m² 0,8 °C 1,7 °C 0,0 km/h (0 Bft)
27.03.2024 07:04 21,1 °C 1,8 °C 49 % 94 % 987,9 hPa 0,0 l/m² 0,0 km/h (0 Bft) NO 55 ° 2 min 76 W/m² 0,9 °C 1,8 °C 0,0 km/h (0 Bft)
27.03.2024 07:06 21,1 °C 1,8 °C 49 % 94 % 987,9 hPa 0,0 l/m² 0,0 km/h (0 Bft) NO 55 ° 2 min 77 W/m² 0,9 °C 1,8 °C 0,0 km/h (0 Bft)
27.03.2024 07:08 21,1 °C 1,9 °C 49 % 94 % 987,9 hPa 0,0 l/m² 0,0 km/h (0 Bft) NO 55 ° 2 min 81 W/m² 1,0 °C 1,9 °C 0,0 km/h (0 Bft)
27.03.2024 07:10 21,1 °C 1,9 °C 49 % 94 % 987,9 hPa 0,0 l/m² 0,0 km/h (0 Bft) NO 55 ° 2 min 81 W/m² 1,0 °C 1,9 °C 0,0 km/h (0 Bft)
27.03.2024 07:12 21,1 °C 1,9 °C 49 % 94 % 987,9 hPa 0,0 l/m² 0,0 km/h (0 Bft) NO 55 ° 2 min 83 W/m² 1,0 °C 1,9 °C 0,0 km/h (0 Bft)
27.03.2024 07:14 21,1 °C 1,7 °C 49 % 93 % 988,0 hPa 0,0 l/m² 0,0 km/h (0 Bft) NO 55 ° 2 min 90 W/m² 0,7 °C 1,7 °C 0,0 km/h (0 Bft)
27.03.2024 07:16 21,1 °C 1,6 °C 49 % 93 % 988,0 hPa 0,0 l/m² 0,0 km/h (0 Bft) NO 55 ° 2 min 83 W/m² 0,6 °C 1,6 °C 0,0 km/h (0 Bft)
27.03.2024 07:18 21,1 °C 1,7 °C 49 % 93 % 988,0 hPa 0,0 l/m² 0,0 km/h (0 Bft) NO 55 ° 2 min 83 W/m² 0,7 °C 1,7 °C 0,0 km/h (0 Bft)
27.03.2024 07:20 21,1 °C 1,8 °C 49 % 94 % 988,1 hPa 0,0 l/m² 0,0 km/h (0 Bft) NO 55 ° 2 min 90 W/m² 0,9 °C 1,8 °C 0,0 km/h (0 Bft)
27.03.2024 07:22 21,1 °C 1,8 °C 49 % 94 % 988,1 hPa 0,0 l/m² 3,6 km/h (1 Bft) W 277 ° 2 min 90 W/m² 0,9 °C 1,8 °C 6,4 km/h (2 Bft)
27.03.2024 07:24 21,1 °C 1,7 °C 49 % 93 % 988,1 hPa 0,0 l/m² 3,3 km/h (1 Bft) W 272 ° 2 min 102 W/m² 0,7 °C 1,7 °C 6,4 km/h (2 Bft)
27.03.2024 07:26 21,1 °C 1,8 °C 49 % 93 % 988,2 hPa 0,0 l/m² 0,2 km/h (0 Bft) W 272 ° 2 min 97 W/m² 0,8 °C 1,8 °C 1,6 km/h (1 Bft)
27.03.2024 07:28 21,1 °C 1,8 °C 49 % 94 % 988,1 hPa 0,0 l/m² 0,0 km/h (0 Bft) W 272 ° 2 min 95 W/m² 0,9 °C 1,8 °C 0,0 km/h (0 Bft)
27.03.2024 07:30 21,1 °C 1,9 °C 49 % 94 % 988,0 hPa 0,0 l/m² 0,0 km/h (0 Bft) W 272 ° 2 min 100 W/m² 1,0 °C 1,9 °C 0,0 km/h (0 Bft)
27.03.2024 07:32 21,1 °C 2,1 °C 49 % 94 % 988,1 hPa 0,0 l/m² 0,0 km/h (0 Bft) W 272 ° 2 min 104 W/m² 1,2 °C 2,1 °C 0,0 km/h (0 Bft)
27.03.2024 07:34 21,1 °C 2,2 °C 49 % 94 % 988,1 hPa 0,0 l/m² 0,0 km/h (0 Bft) W 272 ° 2 min 111 W/m² 1,3 °C 2,2 °C 0,0 km/h (0 Bft)
27.03.2024 07:35 21,1 °C 2,3 °C 49 % 94 % 988,1 hPa 0,0 l/m² 0,0 km/h (0 Bft) W 272 ° 1 min 125 W/m² 1,4 °C 2,3 °C 0,0 km/h (0 Bft)
27.03.2024 07:37 21,1 °C 2,3 °C 49 % 94 % 988,1 hPa 0,0 l/m² 0,0 km/h (0 Bft) W 272 ° 2 min 125 W/m² 1,4 °C 2,3 °C 0,0 km/h (0 Bft)
27.03.2024 07:39 21,1 °C 2,4 °C 49 % 94 % 988,0 hPa 0,0 l/m² 0,0 km/h (0 Bft) W 272 ° 2 min 158 W/m² 1,5 °C 2,4 °C 0,0 km/h (0 Bft)
27.03.2024 07:41 21,1 °C 2,5 °C 49 % 94 % 988,0 hPa 0,0 l/m² 0,0 km/h (0 Bft) W 272 ° 2 min 142 W/m² 1,6 °C 2,5 °C 0,0 km/h (0 Bft)
27.03.2024 07:43 21,1 °C 2,6 °C 49 % 94 % 988,0 hPa 0,0 l/m² 0,0 km/h (0 Bft) W 272 ° 2 min 176 W/m² 1,7 °C 2,6 °C 0,0 km/h (0 Bft)
27.03.2024 07:45 21,1 °C 2,7 °C 49 % 94 % 988,0 hPa 0,0 l/m² 0,0 km/h (0 Bft) W 272 ° 2 min 192 W/m² 1,8 °C 2,7 °C 0,0 km/h (0 Bft)
27.03.2024 07:47 21,1 °C 2,8 °C 49 % 94 % 988,1 hPa 0,0 l/m² 0,0 km/h (0 Bft) W 272 ° 2 min 218 W/m² 1,9 °C 2,8 °C 0,0 km/h (0 Bft)
27.03.2024 07:49 21,1 °C 3,1 °C 49 % 94 % 988,1 hPa 0,0 l/m² 0,0 km/h (0 Bft) W 272 ° 2 min 264 W/m² 2,2 °C 3,1 °C 0,0 km/h (0 Bft)
27.03.2024 07:51 21,1 °C 3,2 °C 49 % 93 % 988,1 hPa 0,0 l/m² 0,2 km/h (0 Bft) W 272 ° 2 min 232 W/m² 2,2 °C 3,2 °C 3,2 km/h (1 Bft)
27.03.2024 07:53 21,1 °C 3,3 °C 49 % 93 % 988,2 hPa 0,0 l/m² 1,9 km/h (1 Bft) W 272 ° 2 min 195 W/m² 2,3 °C 3,3 °C 4,8 km/h (1 Bft)
27.03.2024 07:55 21,1 °C 3,4 °C 49 % 93 % 988,3 hPa 0,0 l/m² 0,3 km/h (0 Bft) W 272 ° 2 min 313 W/m² 2,4 °C 3,4 °C 1,6 km/h (1 Bft)
27.03.2024 07:57 21,1 °C 3,8 °C 49 % 93 % 988,4 hPa 0,0 l/m² 0,1 km/h (0 Bft) W 272 ° 2 min 299 W/m² 2,8 °C 3,8 °C 1,6 km/h (1 Bft)
27.03.2024 07:59 21,1 °C 3,9 °C 49 % 92 % 988,3 hPa 0,0 l/m² 3,1 km/h (1 Bft) W 272 ° 2 min 265 W/m² 2,7 °C 3,9 °C 4,8 km/h (1 Bft)
27.03.2024 08:01 21,1 °C 4,2 °C 49 % 92 % 988,3 hPa 0,0 l/m² 3,7 km/h (1 Bft) W 272 ° 2 min 234 W/m² 3,0 °C 4,2 °C 4,8 km/h (1 Bft)
27.03.2024 08:03 21,1 °C 4,4 °C 49 % 91 % 988,3 hPa 0,0 l/m² 2,7 km/h (1 Bft) W 280 ° 2 min 190 W/m² 3,1 °C 4,4 °C 6,4 km/h (2 Bft)
27.03.2024 08:05 21,1 °C 4,6 °C 49 % 91 % 988,4 hPa 0,0 l/m² 1,4 km/h (1 Bft) W 272 ° 2 min 178 W/m² 3,3 °C 4,6 °C 4,8 km/h (1 Bft)
27.03.2024 08:07 21,1 °C 4,6 °C 49 % 90 % 988,2 hPa 0,0 l/m² 2,7 km/h (1 Bft) W-NW 282 ° 2 min 176 W/m² 3,1 °C 4,6 °C 4,8 km/h (1 Bft)
27.03.2024 08:09 21,1 °C 4,7 °C 49 % 90 % 988,2 hPa 0,0 l/m² 0,0 km/h (0 Bft) W-NW 282 ° 2 min 237 W/m² 3,2 °C 4,7 °C 0,0 km/h (0 Bft)
27.03.2024 08:11 21,1 °C 4,8 °C 49 % 89 % 988,2 hPa 0,0 l/m² 0,4 km/h (0 Bft) W-NW 282 ° 2 min 239 W/m² 3,1 °C 4,8 °C 3,2 km/h (1 Bft)
27.03.2024 08:13 21,2 °C 4,9 °C 49 % 89 % 988,1 hPa 0,0 l/m² 0,1 km/h (0 Bft) W-NW 282 ° 2 min 244 W/m² 3,2 °C 4,9 °C 1,6 km/h (1 Bft)
27.03.2024 08:15 21,1 °C 5,1 °C 49 % 89 % 988,2 hPa 0,0 l/m² 0,0 km/h (0 Bft) W-NW 282 ° 2 min 350 W/m² 3,4 °C 5,1 °C 0,0 km/h (0 Bft)
27.03.2024 08:17 21,1 °C 5,1 °C 49 % 88 % 988,2 hPa 0,0 l/m² 0,6 km/h (0 Bft) W-NW 282 ° 2 min 345 W/m² 3,3 °C 5,1 °C 3,2 km/h (1 Bft)
27.03.2024 08:19 21,1 °C 5,3 °C 49 % 88 % 988,1 hPa 0,0 l/m² 0,7 km/h (0 Bft) W-NW 282 ° 2 min 271 W/m² 3,5 °C 5,3 °C 3,2 km/h (1 Bft)
27.03.2024 08:21 21,2 °C 5,4 °C 49 % 88 % 988,2 hPa 0,0 l/m² 0,8 km/h (0 Bft) W-NW 282 ° 2 min 281 W/m² 3,6 °C 5,4 °C 3,2 km/h (1 Bft)
27.03.2024 08:23 21,2 °C 5,4 °C 49 % 86 % 988,1 hPa 0,0 l/m² 0,0 km/h (0 Bft) W-NW 282 ° 2 min 341 W/m² 3,3 °C 5,4 °C 1,6 km/h (1 Bft)
27.03.2024 08:25 21,2 °C 5,6 °C 49 % 86 % 988,1 hPa 0,0 l/m² 0,0 km/h (0 Bft) W-NW 282 ° 2 min 353 W/m² 3,4 °C 5,6 °C 0,0 km/h (0 Bft)
27.03.2024 08:27 21,2 °C 5,9 °C 49 % 86 % 988,2 hPa 0,0 l/m² 0,0 km/h (0 Bft) W-NW 282 ° 2 min 367 W/m² 3,7 °C 5,9 °C 0,0 km/h (0 Bft)
27.03.2024 08:29 21,2 °C 5,9 °C 49 % 86 % 988,1 hPa 0,0 l/m² 0,0 km/h (0 Bft) W-NW 282 ° 2 min 316 W/m² 3,7 °C 5,9 °C 0,0 km/h (0 Bft)
27.03.2024 08:31 21,2 °C 6,2 °C 49 % 88 % 988,2 hPa 0,0 l/m² 0,0 km/h (0 Bft) W-NW 282 ° 2 min 272 W/m² 4,4 °C 6,2 °C 0,0 km/h (0 Bft)
27.03.2024 08:33 21,2 °C 6,2 °C 49 % 87 % 988,1 hPa 0,0 l/m² 0,0 km/h (0 Bft) W-NW 282 ° 2 min 276 W/m² 4,2 °C 6,2 °C 0,0 km/h (0 Bft)
27.03.2024 08:35 21,2 °C 6,2 °C 49 % 88 % 988,1 hPa 0,0 l/m² 0,0 km/h (0 Bft) W-NW 282 ° 2 min 283 W/m² 4,4 °C 6,2 °C 0,0 km/h (0 Bft)
27.03.2024 08:37 21,2 °C 6,3 °C 49 % 86 % 988,1 hPa 0,0 l/m² 0,0 km/h (0 Bft) W-NW 282 ° 2 min 290 W/m² 4,1 °C 6,3 °C 0,0 km/h (0 Bft)
27.03.2024 08:39 21,2 °C 6,5 °C 49 % 87 % 988,1 hPa 0,0 l/m² 0,0 km/h (0 Bft) W-NW 282 ° 2 min 279 W/m² 4,5 °C 6,5 °C 0,0 km/h (0 Bft)
27.03.2024 08:41 21,2 °C 6,6 °C 49 % 86 % 988,1 hPa 0,0 l/m² 0,0 km/h (0 Bft) W-NW 282 ° 2 min 257 W/m² 4,4 °C 6,6 °C 0,0 km/h (0 Bft)
27.03.2024 08:43 21,2 °C 6,5 °C 49 % 86 % 988,1 hPa 0,0 l/m² 0,0 km/h (0 Bft) W-NW 282 ° 2 min 283 W/m² 4,3 °C 6,5 °C 0,0 km/h (0 Bft)
27.03.2024 08:45 21,2 °C 6,6 °C 49 % 85 % 988,2 hPa 0,0 l/m² 0,0 km/h (0 Bft) W-NW 282 ° 2 min 323 W/m² 4,3 °C 6,6 °C 0,0 km/h (0 Bft)
27.03.2024 08:47 21,2 °C 6,6 °C 49 % 85 % 988,1 hPa 0,0 l/m² 0,0 km/h (0 Bft) W-NW 282 ° 2 min 207 W/m² 4,3 °C 6,6 °C 0,0 km/h (0 Bft)
27.03.2024 08:49 21,2 °C 6,7 °C 49 % 85 % 988,1 hPa 0,0 l/m² 0,0 km/h (0 Bft) W-NW 282 ° 2 min 172 W/m² 4,4 °C 6,7 °C 0,0 km/h (0 Bft)
27.03.2024 08:51 21,2 °C 6,7 °C 49 % 84 % 988,2 hPa 0,0 l/m² 0,0 km/h (0 Bft) W-NW 282 ° 2 min 272 W/m² 4,2 °C 6,7 °C 0,0 km/h (0 Bft)
27.03.2024 08:53 21,2 °C 6,7 °C 49 % 85 % 988,2 hPa 0,0 l/m² 0,0 km/h (0 Bft) W-NW 282 ° 2 min 390 W/m² 4,4 °C 6,7 °C 0,0 km/h (0 Bft)
27.03.2024 08:55 21,2 °C 6,8 °C 49 % 85 % 988,1 hPa 0,0 l/m² 0,0 km/h (0 Bft) W-NW 282 ° 2 min 432 W/m² 4,5 °C 6,8 °C 0,0 km/h (0 Bft)
27.03.2024 08:57 21,2 °C 6,9 °C 49 % 84 % 988,1 hPa 0,0 l/m² 0,0 km/h (0 Bft) W-NW 282 ° 2 min 439 W/m² 4,4 °C 6,9 °C 0,0 km/h (0 Bft)
27.03.2024 08:59 21,2 °C 7,1 °C 49 % 85 % 988,1 hPa 0,0 l/m² 0,1 km/h (0 Bft) W-NW 282 ° 2 min 424 W/m² 4,8 °C 7,1 °C 1,6 km/h (1 Bft)
27.03.2024 09:01 21,2 °C 7,2 °C 49 % 84 % 988,1 hPa 0,0 l/m² 0,0 km/h (0 Bft) W-NW 282 ° 2 min 366 W/m² 4,7 °C 7,2 °C 0,0 km/h (0 Bft)
27.03.2024 09:03 21,2 °C 7,4 °C 49 % 84 % 988,1 hPa 0,0 l/m² 0,0 km/h (0 Bft) W-NW 282 ° 2 min 462 W/m² 4,9 °C 7,4 °C 0,0 km/h (0 Bft)
27.03.2024 09:05 21,2 °C 7,5 °C 49 % 84 % 988,0 hPa 0,0 l/m² 0,0 km/h (0 Bft) W-NW 282 ° 2 min 279 W/m² 5,0 °C 7,5 °C 0,0 km/h (0 Bft)
27.03.2024 09:07 21,2 °C 7,7 °C 49 % 83 % 988,0 hPa 0,0 l/m² 0,0 km/h (0 Bft) W-NW 282 ° 2 min 480 W/m² 5,0 °C 7,7 °C 0,0 km/h (0 Bft)
27.03.2024 09:09 21,2 °C 7,8 °C 49 % 82 % 987,9 hPa 0,0 l/m² 0,0 km/h (0 Bft) W-NW 282 ° 2 min 359 W/m² 4,9 °C 7,8 °C 0,0 km/h (0 Bft)
27.03.2024 09:11 21,2 °C 7,9 °C 48 % 84 % 987,9 hPa 0,0 l/m² 0,0 km/h (0 Bft) W-NW 282 ° 2 min 445 W/m² 5,4 °C 7,9 °C 0,0 km/h (0 Bft)
27.03.2024 09:13 21,2 °C 8,1 °C 48 % 83 % 987,9 hPa 0,0 l/m² 0,0 km/h (0 Bft) W-NW 282 ° 2 min 506 W/m² 5,4 °C 8,1 °C 1,6 km/h (1 Bft)
27.03.2024 09:15 21,2 °C 8,3 °C 49 % 84 % 987,8 hPa 0,0 l/m² 1,0 km/h (0 Bft) W-NW 282 ° 2 min 531 W/m² 5,8 °C 8,3 °C 4,8 km/h (1 Bft)
27.03.2024 09:17 21,2 °C 8,8 °C 49 % 83 % 987,8 hPa 0,0 l/m² 2,8 km/h (1 Bft) W-NW 282 ° 2 min 501 W/m² 6,1 °C 8,8 °C 4,8 km/h (1 Bft)
27.03.2024 09:19 21,2 °C 8,9 °C 48 % 81 % 987,7 hPa 0,0 l/m² 2,8 km/h (1 Bft) W-NW 282 ° 2 min 432 W/m² 5,8 °C 8,9 °C 4,8 km/h (1 Bft)
27.03.2024 09:21 21,2 °C 9,3 °C 48 % 78 % 987,8 hPa 0,0 l/m² 4,2 km/h (1 Bft) O 84 ° 2 min 401 W/m² 5,7 °C 9,3 °C 6,4 km/h (2 Bft)
27.03.2024 09:23 21,2 °C 9,4 °C 48 % 79 % 987,7 hPa 0,0 l/m² 6,3 km/h (2 Bft) O-NO 78 ° 2 min 383 W/m² 5,9 °C 9,4 °C 8,0 km/h (2 Bft)
27.03.2024 09:25 21,2 °C 9,8 °C 48 % 80 % 987,7 hPa 0,0 l/m² 5,0 km/h (1 Bft) O-NO 74 ° 2 min 494 W/m² 6,5 °C 9,8 °C 8,0 km/h (2 Bft)
27.03.2024 09:26 21,2 °C 9,8 °C 48 % 79 % 987,7 hPa 0,0 l/m² 6,5 km/h (2 Bft) O-NO 73 ° 1 min 529 W/m² 6,3 °C 9,8 °C 11,3 km/h (2 Bft)
27.03.2024 09:28 21,2 °C 10,2 °C 48 % 78 % 987,7 hPa 0,0 l/m² 5,8 km/h (2 Bft) O 83 ° 2 min 540 W/m² 6,5 °C 10,2 °C 8,0 km/h (2 Bft)
27.03.2024 09:30 21,2 °C 10,6 °C 49 % 79 % 987,7 hPa 0,0 l/m² 6,3 km/h (2 Bft) O-NO 78 ° 2 min 533 W/m² 7,1 °C 10,6 °C 11,3 km/h (2 Bft)
27.03.2024 09:32 21,2 °C 10,6 °C 48 % 77 % 987,7 hPa 0,0 l/m² 7,3 km/h (2 Bft) O-NO 76 ° 2 min 541 W/m² 6,7 °C 10,0 °C 12,9 km/h (3 Bft)
27.03.2024 09:34 21,2 °C 10,7 °C 48 % 76 % 987,6 hPa 0,0 l/m² 7,7 km/h (2 Bft) O 90 ° 2 min 483 W/m² 6,6 °C 9,8 °C 11,3 km/h (2 Bft)
27.03.2024 09:36 21,2 °C 10,8 °C 48 % 77 % 987,6 hPa 0,0 l/m² 7,4 km/h (2 Bft) O 90 ° 2 min 396 W/m² 6,9 °C 10,1 °C 11,3 km/h (2 Bft)
27.03.2024 09:38 21,2 °C 11,0 °C 48 % 76 % 987,5 hPa 0,0 l/m² 7,0 km/h (2 Bft) O-NO 70 ° 2 min 364 W/m² 6,9 °C 10,6 °C 11,3 km/h (2 Bft)
27.03.2024 09:40 21,3 °C 11,1 °C 48 % 76 % 987,5 hPa 0,0 l/m² 6,4 km/h (2 Bft) O-SO 105 ° 2 min 329 W/m² 7,0 °C 11,1 °C 9,7 km/h (2 Bft)
27.03.2024 09:42 21,3 °C 10,9 °C 48 % 77 % 987,4 hPa 0,0 l/m² 5,1 km/h (1 Bft) O-SO 107 ° 2 min 338 W/m² 7,0 °C 10,9 °C 6,4 km/h (2 Bft)
27.03.2024 09:44 21,3 °C 11,1 °C 48 % 76 % 987,5 hPa 0,0 l/m² 6,3 km/h (2 Bft) O 92 ° 2 min 339 W/m² 7,0 °C 11,1 °C 9,7 km/h (2 Bft)
27.03.2024 09:47 21,3 °C 11,3 °C 48 % 77 % 987,5 hPa 0,0 l/m² 5,9 km/h (2 Bft) O 94 ° 3 min 359 W/m² 7,4 °C 11,3 °C 9,7 km/h (2 Bft)
27.03.2024 09:49 21,3 °C 11,3 °C 48 % 75 % 987,5 hPa 0,0 l/m² 6,3 km/h (2 Bft) O 86 ° 2 min 329 W/m² 7,0 °C 11,3 °C 8,0 km/h (2 Bft)
27.03.2024 09:51 21,3 °C 11,4 °C 48 % 74 % 987,5 hPa 0,0 l/m² 5,1 km/h (1 Bft) O 87 ° 2 min 515 W/m² 6,9 °C 11,4 °C 6,4 km/h (2 Bft)
27.03.2024 09:53 21,3 °C 11,8 °C 48 % 73 % 987,5 hPa 0,0 l/m² 5,9 km/h (2 Bft) O-NO 72 ° 2 min 577 W/m² 7,1 °C 11,8 °C 9,7 km/h (2 Bft)
27.03.2024 09:55 21,3 °C 12,1 °C 48 % 73 % 987,6 hPa 0,0 l/m² 5,4 km/h (2 Bft) O 100 ° 2 min 425 W/m² 7,4 °C 12,1 °C 9,7 km/h (2 Bft)
27.03.2024 09:57 21,3 °C 12,1 °C 48 % 72 % 987,6 hPa 0,0 l/m² 4,2 km/h (1 Bft) O 94 ° 2 min 628 W/m² 7,2 °C 12,1 °C 6,4 km/h (2 Bft)
27.03.2024 09:59 21,3 °C 12,4 °C 48 % 73 % 987,5 hPa 0,0 l/m² 4,2 km/h (1 Bft) O-SO 113 ° 2 min 622 W/m² 7,7 °C 12,4 °C 9,7 km/h (2 Bft)
27.03.2024 10:01 21,3 °C 12,7 °C 48 % 68 % 987,5 hPa 0,0 l/m² 7,1 km/h (2 Bft) O-SO 113 ° 2 min 559 W/m² 6,9 °C 12,3 °C 11,3 km/h (2 Bft)
27.03.2024 10:03 21,3 °C 13,0 °C 48 % 69 % 987,6 hPa 0,0 l/m² 8,7 km/h (2 Bft) O-SO 116 ° 2 min 615 W/m² 7,4 °C 11,6 °C 12,9 km/h (3 Bft)
27.03.2024 10:05 21,3 °C 13,1 °C 48 % 65 % 987,5 hPa 0,0 l/m² 9,7 km/h (2 Bft) SO 127 ° 2 min 596 W/m² 6,7 °C 11,2 °C 14,5 km/h (3 Bft)
27.03.2024 10:07 21,3 °C 13,2 °C 48 % 67 % 987,5 hPa 0,0 l/m² 10,4 km/h (2 Bft) S-SO 155 ° 2 min 606 W/m² 7,2 °C 10,9 °C 17,7 km/h (3 Bft)
27.03.2024 10:09 21,3 °C 13,2 °C 48 % 65 % 987,6 hPa 0,0 l/m² 8,4 km/h (2 Bft) S-SO 155 ° 2 min 608 W/m² 6,8 °C 12,0 °C 12,9 km/h (3 Bft)
27.03.2024 10:11 21,3 °C 13,2 °C 48 % 64 % 987,6 hPa 0,0 l/m² 11,7 km/h (2 Bft) SO 128 ° 2 min 635 W/m² 6,5 °C 10,3 °C 16,1 km/h (3 Bft)
27.03.2024 10:13 21,3 °C 13,3 °C 48 % 66 % 987,6 hPa 0,0 l/m² 10,9 km/h (2 Bft) SO 125 ° 2 min 519 W/m² 7,1 °C 10,8 °C 14,5 km/h (3 Bft)
27.03.2024 10:15 21,2 °C 13,3 °C 48 % 64 % 987,6 hPa 0,0 l/m² 9,3 km/h (2 Bft) O-SO 115 ° 2 min 645 W/m² 6,6 °C 11,6 °C 11,3 km/h (2 Bft)
27.03.2024 10:17 21,3 °C 13,6 °C 48 % 67 % 987,6 hPa 0,0 l/m² 6,4 km/h (2 Bft) S-SO 155 ° 2 min 642 W/m² 7,6 °C 13,6 °C 12,9 km/h (3 Bft)
27.03.2024 10:19 21,3 °C 13,8 °C 48 % 63 % 987,6 hPa 0,0 l/m² 10,8 km/h (2 Bft) O-SO 115 ° 2 min 631 W/m² 6,9 °C 11,4 °C 14,5 km/h (3 Bft)
27.03.2024 10:21 21,3 °C 13,7 °C 48 % 63 % 987,6 hPa 0,0 l/m² 5,6 km/h (2 Bft) O-SO 118 ° 2 min 506 W/m² 6,8 °C 13,7 °C 9,7 km/h (2 Bft)
27.03.2024 10:23 21,3 °C 13,8 °C 48 % 66 % 987,5 hPa 0,0 l/m² 7,8 km/h (2 Bft) S-SO 148 ° 2 min 577 W/m² 7,6 °C 13,0 °C 12,9 km/h (3 Bft)
27.03.2024 10:25 21,3 °C 13,7 °C 48 % 62 % 987,5 hPa 0,0 l/m² 11,1 km/h (2 Bft) SO 136 ° 2 min 596 W/m² 6,6 °C 11,2 °C 16,1 km/h (3 Bft)
27.03.2024 10:27 21,3 °C 13,7 °C 48 % 65 % 987,5 hPa 0,0 l/m² 7,9 km/h (2 Bft) S-SO 162 ° 2 min 496 W/m² 7,2 °C 12,8 °C 12,9 km/h (3 Bft)
27.03.2024 10:29 21,3 °C 13,7 °C 48 % 66 % 987,5 hPa 0,0 l/m² 7,5 km/h (2 Bft) S-SO 157 ° 2 min 582 W/m² 7,5 °C 13,0 °C 11,3 km/h (2 Bft)
27.03.2024 10:31 21,3 °C 13,8 °C 48 % 61 % 987,4 hPa 0,0 l/m² 8,5 km/h (2 Bft) SO 130 ° 2 min 552 W/m² 6,4 °C 12,6 °C 14,5 km/h (3 Bft)
27.03.2024 10:33 21,3 °C 13,9 °C 48 % 64 % 987,4 hPa 0,0 l/m² 7,2 km/h (2 Bft) O 91 ° 2 min 680 W/m² 7,2 °C 13,4 °C 12,9 km/h (3 Bft)
27.03.2024 10:35 21,3 °C 14,3 °C 48 % 64 % 987,3 hPa 0,0 l/m² 6,4 km/h (2 Bft) SO 142 ° 2 min 679 W/m² 7,6 °C 14,3 °C 11,3 km/h (2 Bft)
27.03.2024 10:37 21,3 °C 14,6 °C 48 % 65 % 987,3 hPa 0,0 l/m² 7,4 km/h (2 Bft) SO 128 ° 2 min 654 W/m² 8,1 °C 14,0 °C 16,1 km/h (3 Bft)
27.03.2024 10:39 21,3 °C 14,4 °C 48 % 64 % 987,3 hPa 0,0 l/m² 11,5 km/h (2 Bft) SO 135 ° 2 min 645 W/m² 7,7 °C 11,8 °C 16,1 km/h (3 Bft)
27.03.2024 10:41 21,2 °C 14,3 °C 48 % 63 % 987,4 hPa 0,0 l/m² 7,5 km/h (2 Bft) S-SO 153 ° 2 min 631 W/m² 7,4 °C 13,7 °C 14,5 km/h (3 Bft)
27.03.2024 10:43 21,3 °C 14,3 °C 48 % 64 % 987,3 hPa 0,0 l/m² 7,9 km/h (2 Bft) O-SO 123 ° 2 min 619 W/m² 7,6 °C 13,4 °C 11,3 km/h (2 Bft)
27.03.2024 10:45 21,3 °C 14,3 °C 48 % 62 % 987,4 hPa 0,0 l/m² 7,0 km/h (2 Bft) O-SO 111 ° 2 min 661 W/m² 7,1 °C 13,9 °C 14,5 km/h (3 Bft)
27.03.2024 10:47 21,3 °C 14,3 °C 48 % 60 % 987,4 hPa 0,0 l/m² 10,8 km/h (2 Bft) O-SO 113 ° 2 min 650 W/m² 6,6 °C 12,0 °C 14,5 km/h (3 Bft)
27.03.2024 10:49 21,3 °C 14,4 °C 48 % 64 % 987,2 hPa 0,0 l/m² 10,7 km/h (2 Bft) SO 142 ° 2 min 661 W/m² 7,7 °C 12,1 °C 16,1 km/h (3 Bft)
27.03.2024 10:51 21,3 °C 14,6 °C 48 % 64 % 987,3 hPa 0,0 l/m² 9,9 km/h (2 Bft) SO 145 ° 2 min 587 W/m² 7,9 °C 12,7 °C 12,9 km/h (3 Bft)
27.03.2024 10:53 21,3 °C 14,5 °C 48 % 60 % 987,3 hPa 0,0 l/m² 12,0 km/h (2 Bft) S-SO 152 ° 2 min 519 W/m² 6,8 °C 11,7 °C 16,1 km/h (3 Bft)
27.03.2024 10:55 21,3 °C 14,5 °C 48 % 62 % 987,4 hPa 0,0 l/m² 11,1 km/h (2 Bft) O-SO 114 ° 2 min 668 W/m² 7,3 °C 12,1 °C 16,1 km/h (3 Bft)
27.03.2024 10:57 21,3 °C 14,7 °C 48 % 65 % 987,3 hPa 0,0 l/m² 12,1 km/h (2 Bft) SO 133 ° 2 min 735 W/m² 8,2 °C 11,9 °C 16,1 km/h (3 Bft)
27.03.2024 10:59 21,3 °C 14,8 °C 48 % 62 % 987,4 hPa 0,0 l/m² 12,2 km/h (2 Bft) S-SO 151 ° 2 min 703 W/m² 7,6 °C 12,0 °C 17,7 km/h (3 Bft)
27.03.2024 11:01 21,3 °C 14,9 °C 48 % 61 % 987,4 hPa 0,0 l/m² 10,5 km/h (2 Bft) S-SO 155 ° 2 min 722 W/m² 7,4 °C 12,8 °C 14,5 km/h (3 Bft)
27.03.2024 11:03 21,3 °C 14,8 °C 48 % 61 % 987,4 hPa 0,0 l/m² 10,9 km/h (2 Bft) SO 129 ° 2 min 679 W/m² 7,4 °C 12,5 °C 12,9 km/h (3 Bft)
27.03.2024 11:05 21,3 °C 14,9 °C 48 % 62 % 987,3 hPa 0,0 l/m² 12,9 km/h (3 Bft) S 172 ° 2 min 703 W/m² 7,7 °C 11,8 °C 17,7 km/h (3 Bft)
27.03.2024 11:07 21,3 °C 15,2 °C 48 % 64 % 987,5 hPa 0,0 l/m² 10,9 km/h (2 Bft) SO 125 ° 2 min 691 W/m² 8,4 °C 12,9 °C 14,5 km/h (3 Bft)
27.03.2024 11:09 21,2 °C 15,2 °C 48 % 62 % 987,4 hPa 0,0 l/m² 12,9 km/h (3 Bft) S-SO 149 ° 2 min 664 W/m² 8,0 °C 12,2 °C 16,1 km/h (3 Bft)
27.03.2024 11:11 21,3 °C 15,2 °C 48 % 63 % 987,4 hPa 0,0 l/m² 11,6 km/h (2 Bft) SO 134 ° 2 min 643 W/m² 8,2 °C 12,7 °C 16,1 km/h (3 Bft)
27.03.2024 11:13 21,3 °C 15,2 °C 48 % 61 % 987,4 hPa 0,0 l/m² 11,7 km/h (2 Bft) SO 139 ° 2 min 642 W/m² 7,7 °C 12,6 °C 16,1 km/h (3 Bft)
27.03.2024 11:15 21,3 °C 15,2 °C 48 % 62 % 987,4 hPa 0,0 l/m² 9,4 km/h (2 Bft) SO 132 ° 2 min 633 W/m² 8,0 °C 13,6 °C 14,5 km/h (3 Bft)
27.03.2024 11:17 21,3 °C 15,3 °C 48 % 64 % 987,3 hPa 0,0 l/m² 12,4 km/h (2 Bft) O-SO 118 ° 2 min 577 W/m² 8,5 °C 12,5 °C 19,3 km/h (3 Bft)
27.03.2024 11:19 21,3 °C 15,4 °C 48 % 62 % 987,3 hPa 0,0 l/m² 11,2 km/h (2 Bft) O-SO 123 ° 2 min 694 W/m² 8,2 °C 13,0 °C 16,1 km/h (3 Bft)
27.03.2024 11:21 21,3 °C 15,5 °C 48 % 62 % 987,3 hPa 0,0 l/m² 9,5 km/h (2 Bft) SO 134 ° 2 min 745 W/m² 8,3 °C 13,9 °C 14,5 km/h (3 Bft)
27.03.2024 11:23 21,2 °C 15,6 °C 48 % 62 % 987,3 hPa 0,0 l/m² 10,6 km/h (2 Bft) SO 126 ° 2 min 701 W/m² 8,3 °C 13,5 °C 16,1 km/h (3 Bft)
27.03.2024 11:25 21,2 °C 15,6 °C 48 % 60 % 987,1 hPa 0,0 l/m² 11,7 km/h (2 Bft) O-SO 117 ° 2 min 624 W/m² 7,9 °C 13,1 °C 16,1 km/h (3 Bft)
27.03.2024 11:27 21,2 °C 15,6 °C 48 % 61 % 987,0 hPa 0,0 l/m² 12,0 km/h (2 Bft) SO 139 ° 2 min 610 W/m² 8,1 °C 13,0 °C 16,1 km/h (3 Bft)
27.03.2024 11:29 21,2 °C 15,4 °C 48 % 62 % 987,0 hPa 0,0 l/m² 11,5 km/h (2 Bft) SO 142 ° 2 min 615 W/m² 8,2 °C 12,9 °C 14,5 km/h (3 Bft)
27.03.2024 11:31 21,2 °C 15,5 °C 48 % 63 % 987,0 hPa 0,0 l/m² 12,8 km/h (3 Bft) O 96 ° 2 min 575 W/m² 8,5 °C 12,5 °C 16,1 km/h (3 Bft)
27.03.2024 11:33 21,3 °C 15,7 °C 48 % 61 % 987,0 hPa 0,0 l/m² 8,4 km/h (2 Bft) O-SO 105 ° 2 min 547 W/m² 8,2 °C 14,6 °C 11,3 km/h (2 Bft)
27.03.2024 11:35 21,2 °C 15,7 °C 48 % 64 % 987,0 hPa 0,0 l/m² 5,7 km/h (2 Bft) O-SO 107 ° 2 min 512 W/m² 8,9 °C 15,7 °C 9,7 km/h (2 Bft)
27.03.2024 11:37 21,2 °C 15,7 °C 48 % 64 % 987,0 hPa 0,0 l/m² 6,2 km/h (2 Bft) O-SO 109 ° 2 min 478 W/m² 8,9 °C 15,7 °C 11,3 km/h (2 Bft)
27.03.2024 11:39 21,3 °C 15,6 °C 48 % 62 % 986,9 hPa 0,0 l/m² 8,0 km/h (2 Bft) O-NO 74 ° 2 min 513 W/m² 8,3 °C 14,7 °C 12,9 km/h (3 Bft)
27.03.2024 11:41 21,2 °C 15,8 °C 48 % 59 % 986,9 hPa 0,0 l/m² 9,5 km/h (2 Bft) O-NO 76 ° 2 min 561 W/m² 7,8 °C 14,2 °C 12,9 km/h (3 Bft)
27.03.2024 11:43 21,2 °C 15,9 °C 48 % 62 % 986,7 hPa 0,0 l/m² 8,0 km/h (2 Bft) O 81 ° 2 min 578 W/m² 8,6 °C 15,0 °C 14,5 km/h (3 Bft)
27.03.2024 11:45 21,2 °C 16,1 °C 48 % 59 % 986,7 hPa 0,0 l/m² 9,0 km/h (2 Bft) O 79 ° 2 min 731 W/m² 8,1 °C 14,8 °C 16,1 km/h (3 Bft)
27.03.2024 11:47 21,2 °C 16,6 °C 48 % 56 % 986,7 hPa 0,0 l/m² 9,2 km/h (2 Bft) O 85 ° 2 min 693 W/m² 7,8 °C 15,2 °C 17,7 km/h (3 Bft)
27.03.2024 11:49 21,2 °C 16,4 °C 48 % 57 % 986,8 hPa 0,0 l/m² 9,3 km/h (2 Bft) O-NO 74 ° 2 min 731 W/m² 7,9 °C 15,0 °C 14,5 km/h (3 Bft)
27.03.2024 11:51 21,2 °C 16,6 °C 48 % 56 % 986,8 hPa 0,0 l/m² 12,8 km/h (3 Bft) O-SO 105 ° 2 min 636 W/m² 7,8 °C 13,8 °C 16,1 km/h (3 Bft)
27.03.2024 11:53 21,3 °C 16,4 °C 48 % 56 % 986,8 hPa 0,0 l/m² 10,6 km/h (2 Bft) O 99 ° 2 min 615 W/m² 7,6 °C 14,4 °C 12,9 km/h (3 Bft)
27.03.2024 11:55 21,2 °C 16,3 °C 48 % 59 % 986,7 hPa 0,0 l/m² 10,7 km/h (2 Bft) O-SO 119 ° 2 min 545 W/m² 8,3 °C 14,3 °C 14,5 km/h (3 Bft)
27.03.2024 11:57 21,2 °C 16,1 °C 48 % 58 % 986,8 hPa 0,0 l/m² 10,4 km/h (2 Bft) O-NO 71 ° 2 min 504 W/m² 7,8 °C 14,2 °C 16,1 km/h (3 Bft)
27.03.2024 11:59 21,2 °C 16,1 °C 48 % 59 % 986,7 hPa 0,0 l/m² 12,3 km/h (2 Bft) O-NO 59 ° 2 min 422 W/m² 8,1 °C 13,4 °C 19,3 km/h (3 Bft)
27.03.2024 12:01 21,2 °C 15,9 °C 48 % 57 % 986,7 hPa 0,0 l/m² 13,3 km/h (3 Bft) O 90 ° 2 min 352 W/m² 7,4 °C 12,8 °C 16,1 km/h (3 Bft)
27.03.2024 12:03 21,2 °C 15,9 °C 48 % 58 % 986,8 hPa 0,0 l/m² 16,1 km/h (3 Bft) O 91 ° 2 min 536 W/m² 7,6 °C 11,9 °C 22,5 km/h (4 Bft)
27.03.2024 12:05 21,2 °C 15,8 °C 48 % 59 % 986,8 hPa 0,0 l/m² 14,5 km/h (3 Bft) O-NO 78 ° 2 min 571 W/m² 7,8 °C 12,3 °C 19,3 km/h (3 Bft)
27.03.2024 12:07 21,2 °C 16,1 °C 48 % 58 % 986,7 hPa 0,0 l/m² 13,1 km/h (3 Bft) O 82 ° 2 min 608 W/m² 7,8 °C 13,1 °C 17,7 km/h (3 Bft)
27.03.2024 12:09 21,2 °C 16,3 °C 48 % 58 % 986,8 hPa 0,0 l/m² 11,7 km/h (2 Bft) O-SO 103 ° 2 min 640 W/m² 8,0 °C 13,9 °C 16,1 km/h (3 Bft)
27.03.2024 12:11 21,2 °C 16,3 °C 49 % 60 % 986,8 hPa 0,0 l/m² 13,3 km/h (3 Bft) O-NO 76 ° 2 min 631 W/m² 8,5 °C 13,3 °C 19,3 km/h (3 Bft)
27.03.2024 12:13 21,2 °C 16,4 °C 48 % 60 % 986,8 hPa 0,0 l/m² 10,9 km/h (2 Bft) O-NO 62 ° 2 min 561 W/m² 8,6 °C 14,3 °C 17,7 km/h (3 Bft)
27.03.2024 12:15 21,2 °C 16,6 °C 48 % 57 % 986,6 hPa 0,0 l/m² 17,1 km/h (3 Bft) O 92 ° 2 min 592 W/m² 8,0 °C 12,5 °C 22,5 km/h (4 Bft)
27.03.2024 12:16 21,2 °C 16,5 °C 48 % 57 % 986,7 hPa 0,0 l/m² 19,6 km/h (3 Bft) O 94 ° 1 min 608 W/m² 8,0 °C 11,8 °C 24,1 km/h (4 Bft)
27.03.2024 12:17 21,2 °C 16,4 °C 48 % 58 % 986,7 hPa 0,0 l/m² 17,2 km/h (3 Bft) O 90 ° 1 min 626 W/m² 8,1 °C 12,3 °C 20,9 km/h (4 Bft)
27.03.2024 12:18 21,2 °C 16,3 °C 48 % 59 % 986,8 hPa 0,0 l/m² 14,0 km/h (3 Bft) O 90 ° 1 min 594 W/m² 8,3 °C 13,1 °C 19,3 km/h (3 Bft)
27.03.2024 12:19 21,2 °C 16,3 °C 48 % 59 % 986,7 hPa 0,0 l/m² 17,0 km/h (3 Bft) O 83 ° 1 min 561 W/m² 8,3 °C 12,2 °C 20,9 km/h (4 Bft)
27.03.2024 12:20 21,2 °C 16,2 °C 49 % 58 % 986,7 hPa 0,0 l/m² 13,6 km/h (3 Bft) O-NO 57 ° 1 min 603 W/m² 7,9 °C 13,1 °C 19,3 km/h (3 Bft)
27.03.2024 12:21 21,2 °C 16,3 °C 48 % 59 % 986,8 hPa 0,0 l/m² 15,6 km/h (3 Bft) O-NO 76 ° 1 min 543 W/m² 8,3 °C 12,6 °C 20,9 km/h (4 Bft)
27.03.2024 12:22 21,2 °C 16,4 °C 48 % 57 % 986,8 hPa 0,0 l/m² 14,9 km/h (3 Bft) O 87 ° 1 min 555 W/m² 7,9 °C 12,9 °C 17,7 km/h (3 Bft)
27.03.2024 12:23 21,2 °C 16,4 °C 48 % 59 % 986,8 hPa 0,0 l/m² 14,5 km/h (3 Bft) O 86 ° 1 min 538 W/m² 8,4 °C 13,0 °C 19,3 km/h (3 Bft)
27.03.2024 12:24 21,2 °C 16,5 °C 49 % 58 % 986,8 hPa 0,0 l/m² 17,8 km/h (3 Bft) O-NO 74 ° 1 min 526 W/m² 8,2 °C 12,2 °C 20,9 km/h (4 Bft)
27.03.2024 12:25 21,2 °C 16,6 °C 48 % 57 % 986,9 hPa 0,0 l/m² 16,5 km/h (3 Bft) O 84 ° 1 min 596 W/m² 8,0 °C 12,7 °C 19,3 km/h (3 Bft)
27.03.2024 12:26 21,2 °C 16,6 °C 49 % 58 % 986,9 hPa 0,0 l/m² 13,4 km/h (3 Bft) O 82 ° 1 min 592 W/m² 8,3 °C 13,6 °C 19,3 km/h (3 Bft)
27.03.2024 12:27 21,2 °C 16,5 °C 49 % 59 % 986,8 hPa 0,0 l/m² 12,7 km/h (3 Bft) O 90 ° 1 min 510 W/m² 8,5 °C 13,8 °C 16,1 km/h (3 Bft)
27.03.2024 12:28 21,2 °C 16,5 °C 49 % 61 % 986,8 hPa 0,0 l/m² 12,0 km/h (2 Bft) O 84 ° 1 min 550 W/m² 9,0 °C 14,0 °C 14,5 km/h (3 Bft)
27.03.2024 12:29 21,2 °C 16,4 °C 49 % 58 % 986,9 hPa 0,0 l/m² 8,4 km/h (2 Bft) O 100 ° 1 min 529 W/m² 8,1 °C 15,4 °C 12,9 km/h (3 Bft)
27.03.2024 12:30 21,2 °C 16,3 °C 49 % 62 % 986,9 hPa 0,0 l/m² 7,5 km/h (2 Bft) O-SO 118 ° 1 min 619 W/m² 9,0 °C 15,7 °C 9,7 km/h (2 Bft)
27.03.2024 12:31 21,2 °C 16,3 °C 49 % 62 % 986,8 hPa 0,0 l/m² 8,6 km/h (2 Bft) O-SO 112 ° 1 min 529 W/m² 9,0 °C 15,2 °C 16,1 km/h (3 Bft)
27.03.2024 12:32 21,2 °C 16,3 °C 49 % 59 % 986,9 hPa 0,0 l/m² 15,6 km/h (3 Bft) O-SO 107 ° 1 min 564 W/m² 8,3 °C 12,6 °C 19,3 km/h (3 Bft)
27.03.2024 12:33 21,2 °C 16,2 °C 48 % 59 % 986,8 hPa 0,0 l/m² 17,5 km/h (3 Bft) O-SO 122 ° 1 min 585 W/m² 8,2 °C 11,9 °C 20,9 km/h (4 Bft)
27.03.2024 12:34 21,2 °C 16,1 °C 49 % 60 % 986,8 hPa 0,0 l/m² 14,6 km/h (3 Bft) O-SO 107 ° 1 min 608 W/m² 8,3 °C 12,6 °C 17,7 km/h (3 Bft)
27.03.2024 12:35 21,2 °C 16,1 °C 49 % 58 % 986,9 hPa 0,0 l/m² 16,2 km/h (3 Bft) O-SO 107 ° 1 min 533 W/m² 7,8 °C 12,2 °C 19,3 km/h (3 Bft)
27.03.2024 12:36 21,2 °C 16,1 °C 49 % 60 % 986,8 hPa 0,0 l/m² 13,9 km/h (3 Bft) O-SO 117 ° 1 min 554 W/m² 8,3 °C 12,9 °C 19,3 km/h (3 Bft)
27.03.2024 12:37 21,2 °C 16,1 °C 49 % 57 % 986,9 hPa 0,0 l/m² 14,8 km/h (3 Bft) O-SO 121 ° 1 min 545 W/m² 7,6 °C 12,6 °C 19,3 km/h (3 Bft)
27.03.2024 12:38 21,2 °C 16,1 °C 49 % 59 % 986,8 hPa 0,0 l/m² 16,6 km/h (3 Bft) O-SO 104 ° 1 min 545 W/m² 8,1 °C 12,1 °C 20,9 km/h (4 Bft)
27.03.2024 12:39 21,2 °C 16,2 °C 49 % 58 % 986,8 hPa 0,0 l/m² 14,7 km/h (3 Bft) O-SO 105 ° 1 min 547 W/m² 7,9 °C 12,7 °C 19,3 km/h (3 Bft)
27.03.2024 12:40 21,2 °C 16,2 °C 49 % 60 % 986,8 hPa 0,0 l/m² 12,9 km/h (3 Bft) O 93 ° 1 min 529 W/m² 8,4 °C 13,3 °C 16,1 km/h (3 Bft)
27.03.2024 12:41 21,2 °C 16,2 °C 49 % 59 % 986,8 hPa 0,0 l/m² 10,1 km/h (2 Bft) O 93 ° 1 min 533 W/m² 8,2 °C 14,4 °C 12,9 km/h (3 Bft)
27.03.2024 12:42 21,2 °C 16,2 °C 49 % 59 % 986,8 hPa 0,0 l/m² 14,5 km/h (3 Bft) O-SO 121 ° 1 min 496 W/m² 8,2 °C 12,8 °C 17,7 km/h (3 Bft)
27.03.2024 12:43 21,2 °C 16,2 °C 49 % 58 % 986,8 hPa 0,0 l/m² 13,2 km/h (3 Bft) O-SO 123 ° 1 min 527 W/m² 7,9 °C 13,2 °C 16,1 km/h (3 Bft)
27.03.2024 12:44 21,2 °C 16,2 °C 49 % 60 % 986,7 hPa 0,0 l/m² 17,0 km/h (3 Bft) O-SO 115 ° 1 min 555 W/m² 8,4 °C 12,1 °C 20,9 km/h (4 Bft)
27.03.2024 12:46 21,2 °C 16,2 °C 48 % 58 % 986,8 hPa 0,0 l/m² 13,9 km/h (3 Bft) O-SO 116 ° 2 min 536 W/m² 7,9 °C 13,0 °C 19,3 km/h (3 Bft)
27.03.2024 12:47 21,2 °C 16,2 °C 49 % 57 % 986,8 hPa 0,0 l/m² 12,8 km/h (3 Bft) SO 128 ° 1 min 533 W/m² 7,7 °C 13,4 °C 16,1 km/h (3 Bft)
27.03.2024 12:48 21,2 °C 16,2 °C 49 % 59 % 986,8 hPa 0,0 l/m² 14,3 km/h (3 Bft) SO 125 ° 1 min 615 W/m² 8,2 °C 12,9 °C 19,3 km/h (3 Bft)
27.03.2024 12:49 21,2 °C 16,2 °C 49 % 59 % 986,8 hPa 0,0 l/m² 13,7 km/h (3 Bft) O-SO 120 ° 1 min 577 W/m² 8,2 °C 13,1 °C 19,3 km/h (3 Bft)
27.03.2024 12:50 21,2 °C 16,3 °C 49 % 58 % 986,8 hPa 0,0 l/m² 13,9 km/h (3 Bft) SO 125 ° 1 min 580 W/m² 8,0 °C 13,1 °C 16,1 km/h (3 Bft)
27.03.2024 12:51 21,2 °C 16,3 °C 49 % 62 % 986,8 hPa 0,0 l/m² 14,8 km/h (3 Bft) O 101 ° 1 min 563 W/m² 9,0 °C 12,8 °C 19,3 km/h (3 Bft)
27.03.2024 12:52 21,2 °C 16,3 °C 49 % 60 % 986,8 hPa 0,0 l/m² 12,4 km/h (2 Bft) O-SO 103 ° 1 min 554 W/m² 8,5 °C 13,6 °C 16,1 km/h (3 Bft)
27.03.2024 12:53 21,2 °C 16,4 °C 49 % 59 % 986,8 hPa 0,0 l/m² 12,9 km/h (3 Bft) O-SO 107 ° 1 min 559 W/m² 8,4 °C 13,6 °C 16,1 km/h (3 Bft)
27.03.2024 12:54 21,2 °C 16,4 °C 49 % 59 % 986,8 hPa 0,0 l/m² 15,0 km/h (3 Bft) O 87 ° 1 min 613 W/m² 8,4 °C 12,9 °C 17,7 km/h (3 Bft)
27.03.2024 12:55 21,2 °C 16,5 °C 49 % 59 % 986,7 hPa 0,0 l/m² 11,4 km/h (2 Bft) O 91 ° 1 min 584 W/m² 8,5 °C 14,2 °C 14,5 km/h (3 Bft)
27.03.2024 12:56 21,2 °C 16,6 °C 49 % 61 % 986,8 hPa 0,0 l/m² 12,1 km/h (2 Bft) O 99 ° 1 min 622 W/m² 9,0 °C 14,1 °C 14,5 km/h (3 Bft)
27.03.2024 12:57 21,2 °C 16,7 °C 48 % 60 % 986,7 hPa 0,0 l/m² 10,2 km/h (2 Bft) O 101 ° 1 min 580 W/m² 8,9 °C 14,9 °C 14,5 km/h (3 Bft)
27.03.2024 12:58 21,2 °C 16,8 °C 48 % 59 % 986,7 hPa 0,0 l/m² 13,2 km/h (3 Bft) O 98 ° 1 min 580 W/m² 8,7 °C 13,9 °C 16,1 km/h (3 Bft)
27.03.2024 12:59 21,2 °C 16,8 °C 48 % 59 % 986,7 hPa 0,0 l/m² 15,0 km/h (3 Bft) O-SO 116 ° 1 min 487 W/m² 8,7 °C 13,4 °C 19,3 km/h (3 Bft)
27.03.2024 13:00 21,2 °C 16,7 °C 49 % 57 % 986,7 hPa 0,0 l/m² 16,8 km/h (3 Bft) O-SO 111 ° 1 min 492 W/m² 8,1 °C 12,7 °C 20,9 km/h (4 Bft)
27.03.2024 13:01 21,2 °C 16,6 °C 49 % 56 % 986,6 hPa 0,0 l/m² 13,6 km/h (3 Bft) O 100 ° 1 min 464 W/m² 7,8 °C 13,6 °C 16,1 km/h (3 Bft)
27.03.2024 13:02 21,2 °C 16,6 °C 49 % 59 % 986,7 hPa 0,0 l/m² 10,3 km/h (2 Bft) O-SO 108 ° 1 min 420 W/m² 8,6 °C 14,8 °C 14,5 km/h (3 Bft)
27.03.2024 13:03 21,2 °C 16,4 °C 49 % 60 % 986,6 hPa 0,0 l/m² 9,7 km/h (2 Bft) O 88 ° 1 min 406 W/m² 8,6 °C 14,8 °C 12,9 km/h (3 Bft)
27.03.2024 13:04 21,2 °C 16,4 °C 49 % 61 % 986,6 hPa 0,0 l/m² 7,3 km/h (2 Bft) O-SO 121 ° 1 min 443 W/m² 8,9 °C 15,9 °C 11,3 km/h (2 Bft)
27.03.2024 13:05 21,2 °C 16,4 °C 49 % 60 % 986,6 hPa 0,0 l/m² 12,6 km/h (3 Bft) O 97 ° 1 min 455 W/m² 8,6 °C 13,7 °C 16,1 km/h (3 Bft)
27.03.2024 13:06 21,2 °C 16,4 °C 49 % 58 % 986,6 hPa 0,0 l/m² 12,6 km/h (3 Bft) O 100 ° 1 min 422 W/m² 8,1 °C 13,7 °C 16,1 km/h (3 Bft)
27.03.2024 13:07 21,2 °C 16,4 °C 48 % 58 % 986,6 hPa 0,0 l/m² 8,7 km/h (2 Bft) O-SO 104 ° 1 min 403 W/m² 8,1 °C 15,2 °C 12,9 km/h (3 Bft)
27.03.2024 13:08 21,2 °C 16,4 °C 49 % 60 % 986,6 hPa 0,0 l/m² 8,2 km/h (2 Bft) SO 130 ° 1 min 420 W/m² 8,6 °C 15,5 °C 12,9 km/h (3 Bft)
27.03.2024 13:09 21,2 °C 16,4 °C 48 % 61 % 986,6 hPa 0,0 l/m² 6,6 km/h (2 Bft) O-SO 119 ° 1 min 434 W/m² 8,9 °C 16,3 °C 12,9 km/h (3 Bft)
27.03.2024 13:10 21,2 °C 16,4 °C 49 % 62 % 986,6 hPa 0,0 l/m² 12,4 km/h (2 Bft) O 97 ° 1 min 466 W/m² 9,1 °C 13,7 °C 16,1 km/h (3 Bft)
27.03.2024 13:11 21,2 °C 16,4 °C 49 % 62 % 986,5 hPa 0,0 l/m² 13,1 km/h (3 Bft) O 93 ° 1 min 487 W/m² 9,1 °C 13,5 °C 17,7 km/h (3 Bft)
27.03.2024 13:12 21,2 °C 16,5 °C 49 % 59 % 986,6 hPa 0,0 l/m² 12,0 km/h (2 Bft) O-SO 118 ° 1 min 468 W/m² 8,5 °C 14,0 °C 16,1 km/h (3 Bft)
27.03.2024 13:13 21,2 °C 16,5 °C 49 % 57 % 986,5 hPa 0,0 l/m² 15,2 km/h (3 Bft) O 101 ° 1 min 468 W/m² 8,0 °C 12,9 °C 20,9 km/h (4 Bft)
27.03.2024 13:14 21,2 °C 16,5 °C 49 % 59 % 986,5 hPa 0,0 l/m² 10,4 km/h (2 Bft) O 86 ° 1 min 464 W/m² 8,5 °C 14,6 °C 12,9 km/h (3 Bft)
27.03.2024 13:15 21,2 °C 16,7 °C 49 % 63 % 986,6 hPa 0,0 l/m² 9,8 km/h (2 Bft) O-NO 77 ° 1 min 468 W/m² 9,6 °C 15,1 °C 14,5 km/h (3 Bft)
27.03.2024 13:16 21,2 °C 16,8 °C 49 % 58 % 986,6 hPa 0,0 l/m² 11,3 km/h (2 Bft) O 98 ° 1 min 446 W/m² 8,5 °C 14,6 °C 12,9 km/h (3 Bft)
27.03.2024 13:17 21,2 °C 16,8 °C 49 % 59 % 986,5 hPa 0,0 l/m² 8,8 km/h (2 Bft) O 88 ° 1 min 431 W/m² 8,7 °C 15,6 °C 11,3 km/h (2 Bft)
27.03.2024 13:18 21,2 °C 16,8 °C 49 % 58 % 986,5 hPa 0,0 l/m² 10,9 km/h (2 Bft) O-NO 69 ° 1 min 420 W/m² 8,5 °C 14,8 °C 17,7 km/h (3 Bft)
27.03.2024 13:19 21,2 °C 16,8 °C 49 % 60 % 986,5 hPa 0,0 l/m² 11,9 km/h (2 Bft) O 80 ° 1 min 403 W/m² 9,0 °C 14,4 °C 17,7 km/h (3 Bft)
27.03.2024 13:20 21,2 °C 16,7 °C 49 % 58 % 986,5 hPa 0,0 l/m² 15,5 km/h (3 Bft) O-NO 74 ° 1 min 378 W/m² 8,4 °C 13,1 °C 17,7 km/h (3 Bft)
27.03.2024 13:21 21,2 °C 16,7 °C 49 % 60 % 986,5 hPa 0,0 l/m² 11,3 km/h (2 Bft) O-NO 76 ° 1 min 364 W/m² 8,9 °C 14,5 °C 16,1 km/h (3 Bft)
27.03.2024 13:22 21,2 °C 16,8 °C 49 % 57 % 986,5 hPa 0,0 l/m² 14,9 km/h (3 Bft) O 93 ° 1 min 362 W/m² 8,2 °C 13,4 °C 17,7 km/h (3 Bft)
27.03.2024 13:23 21,2 °C 16,7 °C 49 % 56 % 986,6 hPa 0,0 l/m² 12,1 km/h (2 Bft) O 98 ° 1 min 348 W/m² 7,9 °C 14,2 °C 14,5 km/h (3 Bft)
27.03.2024 13:24 21,2 °C 16,6 °C 49 % 56 % 986,5 hPa 0,0 l/m² 11,4 km/h (2 Bft) O-SO 109 ° 1 min 355 W/m² 7,8 °C 14,3 °C 14,5 km/h (3 Bft)
27.03.2024 13:25 21,2 °C 16,5 °C 49 % 58 % 986,4 hPa 0,0 l/m² 11,2 km/h (2 Bft) O 86 ° 1 min 371 W/m² 8,2 °C 14,3 °C 14,5 km/h (3 Bft)
27.03.2024 13:26 21,2 °C 16,5 °C 49 % 60 % 986,4 hPa 0,0 l/m² 14,3 km/h (3 Bft) O-NO 72 ° 1 min 381 W/m² 8,7 °C 13,2 °C 19,3 km/h (3 Bft)
27.03.2024 13:27 21,2 °C 16,6 °C 49 % 60 % 986,4 hPa 0,0 l/m² 11,9 km/h (2 Bft) O 87 ° 1 min 427 W/m² 8,8 °C 14,2 °C 16,1 km/h (3 Bft)
27.03.2024 13:28 21,2 °C 16,6 °C 49 % 60 % 986,4 hPa 0,0 l/m² 17,2 km/h (3 Bft) O 86 ° 1 min 418 W/m² 8,8 °C 12,5 °C 20,9 km/h (4 Bft)
27.03.2024 13:29 21,2 °C 16,7 °C 49 % 59 % 986,4 hPa 0,0 l/m² 15,8 km/h (3 Bft) O 81 ° 1 min 501 W/m² 8,6 °C 13,0 °C 19,3 km/h (3 Bft)
27.03.2024 13:30 21,2 °C 16,7 °C 49 % 59 % 986,3 hPa 0,0 l/m² 13,1 km/h (3 Bft) O 87 ° 1 min 496 W/m² 8,6 °C 13,9 °C 19,3 km/h (3 Bft)
27.03.2024 13:31 21,2 °C 16,7 °C 49 % 61 % 986,4 hPa 0,0 l/m² 13,7 km/h (3 Bft) O 85 ° 1 min 476 W/m² 9,1 °C 13,7 °C 20,9 km/h (4 Bft)
27.03.2024 13:32 21,2 °C 16,7 °C 49 % 62 % 986,3 hPa 0,0 l/m² 17,3 km/h (3 Bft) O 95 ° 1 min 457 W/m² 9,4 °C 12,6 °C 20,9 km/h (4 Bft)
27.03.2024 13:33 21,2 °C 16,6 °C 49 % 62 % 986,3 hPa 0,0 l/m² 14,0 km/h (3 Bft) O-NO 61 ° 1 min 403 W/m² 9,3 °C 13,4 °C 20,9 km/h (4 Bft)
27.03.2024 13:34 21,2 °C 16,7 °C 49 % 61 % 986,3 hPa 0,0 l/m² 10,6 km/h (2 Bft) NO 37 ° 1 min 408 W/m² 9,1 °C 14,8 °C 14,5 km/h (3 Bft)
27.03.2024 13:35 21,2 °C 16,7 °C 49 % 63 % 986,3 hPa 0,0 l/m² 6,7 km/h (2 Bft) N-NO 30 ° 1 min 411 W/m² 9,6 °C 16,6 °C 14,5 km/h (3 Bft)
27.03.2024 13:36 21,2 °C 16,9 °C 49 % 62 % 986,3 hPa 0,0 l/m² 10,3 km/h (2 Bft) O-NO 71 ° 1 min 427 W/m² 9,6 °C 15,1 °C 16,1 km/h (3 Bft)
27.03.2024 13:37 21,2 °C 16,9 °C 49 % 61 % 986,3 hPa 0,0 l/m² 6,0 km/h (2 Bft) O 80 ° 1 min 410 W/m² 9,3 °C 16,9 °C 9,7 km/h (2 Bft)
27.03.2024 13:38 21,2 °C 16,9 °C 49 % 65 % 986,4 hPa 0,0 l/m² 14,8 km/h (3 Bft) O-NO 66 ° 1 min 404 W/m² 10,3 °C 13,6 °C 19,3 km/h (3 Bft)
27.03.2024 13:39 21,2 °C 16,9 °C 49 % 63 % 986,3 hPa 0,0 l/m² 14,5 km/h (3 Bft) O-NO 69 ° 1 min 399 W/m² 9,8 °C 13,6 °C 19,3 km/h (3 Bft)
27.03.2024 13:40 21,2 °C 16,9 °C 49 % 63 % 986,3 hPa 0,0 l/m² 11,1 km/h (2 Bft) O-NO 78 ° 1 min 397 W/m² 9,8 °C 14,8 °C 16,1 km/h (3 Bft)
27.03.2024 13:41 21,2 °C 16,9 °C 49 % 61 % 986,4 hPa 0,0 l/m² 17,3 km/h (3 Bft) O 88 ° 1 min 376 W/m² 9,3 °C 12,9 °C 24,1 km/h (4 Bft)
27.03.2024 13:42 21,2 °C 16,9 °C 49 % 62 % 986,3 hPa 0,0 l/m² 13,6 km/h (3 Bft) N-NO 27 ° 1 min 399 W/m² 9,6 °C 13,9 °C 19,3 km/h (3 Bft)
27.03.2024 13:43 21,2 °C 16,9 °C 49 % 62 % 986,3 hPa 0,0 l/m² 12,6 km/h (3 Bft) O-NO 65 ° 1 min 424 W/m² 9,6 °C 14,3 °C 19,3 km/h (3 Bft)
27.03.2024 13:44 21,2 °C 16,9 °C 49 % 62 % 986,4 hPa 0,0 l/m² 12,4 km/h (2 Bft) O-NO 59 ° 1 min 406 W/m² 9,6 °C 14,3 °C 20,9 km/h (4 Bft)
27.03.2024 13:45 21,2 °C 16,9 °C 49 % 61 % 986,5 hPa 0,0 l/m² 14,6 km/h (3 Bft) O 82 ° 1 min 496 W/m² 9,3 °C 13,6 °C 20,9 km/h (4 Bft)
27.03.2024 13:46 21,2 °C 16,9 °C 49 % 61 % 986,4 hPa 0,0 l/m² 16,3 km/h (3 Bft) O-NO 59 ° 1 min 406 W/m² 9,3 °C 13,1 °C 22,5 km/h (4 Bft)
27.03.2024 13:47 21,2 °C 16,9 °C 49 % 61 % 986,4 hPa 0,0 l/m² 16,0 km/h (3 Bft) NO 34 ° 1 min 448 W/m² 9,3 °C 13,2 °C 24,1 km/h (4 Bft)
27.03.2024 13:48 21,2 °C 16,9 °C 49 % 59 % 986,4 hPa 0,0 l/m² 15,8 km/h (3 Bft) O 94 ° 1 min 404 W/m² 8,8 °C 13,3 °C 20,9 km/h (4 Bft)
27.03.2024 13:49 21,2 °C 16,9 °C 49 % 60 % 986,5 hPa 0,0 l/m² 17,0 km/h (3 Bft) O 82 ° 1 min 380 W/m² 9,1 °C 12,9 °C 22,5 km/h (4 Bft)
27.03.2024 13:50 21,2 °C 16,8 °C 49 % 62 % 986,4 hPa 0,0 l/m² 16,6 km/h (3 Bft) O 79 ° 1 min 385 W/m² 9,5 °C 12,9 °C 20,9 km/h (4 Bft)
27.03.2024 13:51 21,2 °C 16,8 °C 49 % 61 % 986,4 hPa 0,0 l/m² 15,8 km/h (3 Bft) O 79 ° 1 min 376 W/m² 9,2 °C 13,1 °C 20,9 km/h (4 Bft)
27.03.2024 13:52 21,2 °C 16,7 °C 49 % 60 % 986,4 hPa 0,0 l/m² 17,4 km/h (3 Bft) NO 56 ° 1 min 374 W/m² 8,9 °C 12,6 °C 20,9 km/h (4 Bft)
27.03.2024 13:53 21,2 °C 16,7 °C 49 % 60 % 986,4 hPa 0,0 l/m² 15,4 km/h (3 Bft) O-NO 60 ° 1 min 327 W/m² 8,9 °C 13,1 °C 19,3 km/h (3 Bft)
27.03.2024 13:54 21,2 °C 16,7 °C 49 % 60 % 986,4 hPa 0,0 l/m² 18,8 km/h (3 Bft) O-NO 71 ° 1 min 329 W/m² 8,9 °C 12,2 °C 22,5 km/h (4 Bft)
27.03.2024 13:55 21,2 °C 16,7 °C 49 % 61 % 986,3 hPa 0,0 l/m² 14,4 km/h (3 Bft) O 81 ° 1 min 332 W/m² 9,1 °C 13,4 °C 19,3 km/h (3 Bft)
27.03.2024 13:56 21,2 °C 16,6 °C 49 % 62 % 986,3 hPa 0,0 l/m² 14,5 km/h (3 Bft) O-NO 58 ° 1 min 338 W/m² 9,3 °C 13,3 °C 17,7 km/h (3 Bft)
27.03.2024 13:57 21,2 °C 16,5 °C 49 % 63 % 986,4 hPa 0,0 l/m² 13,4 km/h (3 Bft) O 82 ° 1 min 343 W/m² 9,4 °C 13,5 °C 16,1 km/h (3 Bft)
27.03.2024 13:58 21,2 °C 16,4 °C 49 % 63 % 986,4 hPa 0,0 l/m² 14,8 km/h (3 Bft) O 88 ° 1 min 353 W/m² 9,3 °C 12,9 °C 19,3 km/h (3 Bft)
27.03.2024 13:59 21,2 °C 16,4 °C 49 % 62 % 986,3 hPa 0,0 l/m² 17,2 km/h (3 Bft) O 88 ° 1 min 413 W/m² 9,1 °C 12,3 °C 19,3 km/h (3 Bft)
27.03.2024 14:00 21,2 °C 16,3 °C 49 % 63 % 986,4 hPa 0,0 l/m² 19,4 km/h (3 Bft) O 91 ° 1 min 383 W/m² 9,2 °C 11,6 °C 20,9 km/h (4 Bft)
27.03.2024 14:01 21,2 °C 16,3 °C 49 % 65 % 986,3 hPa 0,0 l/m² 13,5 km/h (3 Bft) O 84 ° 1 min 383 W/m² 9,7 °C 13,2 °C 16,1 km/h (3 Bft)
27.03.2024 14:02 21,2 °C 16,3 °C 49 % 66 % 986,3 hPa 0,0 l/m² 14,8 km/h (3 Bft) O 86 ° 1 min 408 W/m² 9,9 °C 12,8 °C 17,7 km/h (3 Bft)
27.03.2024 14:03 21,2 °C 16,3 °C 49 % 64 % 986,3 hPa 0,0 l/m² 15,6 km/h (3 Bft) O 80 ° 1 min 497 W/m² 9,5 °C 12,6 °C 17,7 km/h (3 Bft)
27.03.2024 14:04 21,2 °C 16,4 °C 49 % 63 % 986,3 hPa 0,0 l/m² 13,3 km/h (3 Bft) O-NO 71 ° 1 min 482 W/m² 9,3 °C 13,4 °C 16,1 km/h (3 Bft)
27.03.2024 14:05 21,2 °C 16,5 °C 49 % 63 % 986,3 hPa 0,0 l/m² 8,3 km/h (2 Bft) NO 51 ° 1 min 327 W/m² 9,4 °C 15,5 °C 14,5 km/h (3 Bft)
27.03.2024 14:06 21,2 °C 16,6 °C 49 % 64 % 986,3 hPa 0,0 l/m² 14,5 km/h (3 Bft) O 93 ° 1 min 325 W/m² 9,8 °C 13,3 °C 20,9 km/h (4 Bft)
27.03.2024 14:07 21,2 °C 16,6 °C 49 % 63 % 986,3 hPa 0,0 l/m² 18,7 km/h (3 Bft) O 81 ° 1 min 329 W/m² 9,5 °C 12,1 °C 24,1 km/h (4 Bft)
27.03.2024 14:08 21,2 °C 16,5 °C 49 % 63 % 986,3 hPa 0,0 l/m² 13,6 km/h (3 Bft) O 96 ° 1 min 325 W/m² 9,4 °C 13,4 °C 17,7 km/h (3 Bft)
27.03.2024 14:09 21,2 °C 16,4 °C 49 % 64 % 986,3 hPa 0,0 l/m² 13,3 km/h (3 Bft) O 84 ° 1 min 420 W/m² 9,6 °C 13,4 °C 19,3 km/h (3 Bft)
27.03.2024 14:10 21,2 °C 16,3 °C 49 % 65 % 986,3 hPa 0,0 l/m² 13,9 km/h (3 Bft) O 88 ° 1 min 466 W/m² 9,7 °C 13,1 °C 17,7 km/h (3 Bft)
27.03.2024 14:11 21,2 °C 16,3 °C 49 % 64 % 986,3 hPa 0,0 l/m² 15,2 km/h (3 Bft) O-NO 76 ° 1 min 464 W/m² 9,5 °C 12,7 °C 20,9 km/h (4 Bft)
27.03.2024 14:12 21,2 °C 16,4 °C 49 % 65 % 986,3 hPa 0,0 l/m² 13,3 km/h (3 Bft) O 84 ° 1 min 464 W/m² 9,8 °C 13,4 °C 17,7 km/h (3 Bft)
27.03.2024 14:13 21,2 °C 16,4 °C 49 % 65 % 986,3 hPa 0,0 l/m² 16,0 km/h (3 Bft) O 88 ° 1 min 464 W/m² 9,8 °C 12,6 °C 20,9 km/h (4 Bft)
27.03.2024 14:14 21,2 °C 16,4 °C 49 % 65 % 986,3 hPa 0,0 l/m² 14,8 km/h (3 Bft) O 87 ° 1 min 345 W/m² 9,8 °C 12,9 °C 19,3 km/h (3 Bft)
27.03.2024 14:15 21,2 °C 16,4 °C 49 % 65 % 986,2 hPa 0,0 l/m² 13,6 km/h (3 Bft) O 85 ° 1 min 299 W/m² 9,8 °C 13,3 °C 17,7 km/h (3 Bft)
27.03.2024 14:16 21,2 °C 16,4 °C 49 % 65 % 986,3 hPa 0,0 l/m² 13,1 km/h (3 Bft) O 85 ° 1 min 281 W/m² 9,8 °C 13,5 °C 17,7 km/h (3 Bft)
27.03.2024 14:17 21,2 °C 16,4 °C 49 % 66 % 986,3 hPa 0,0 l/m² 15,0 km/h (3 Bft) O 88 ° 1 min 269 W/m² 10,0 °C 12,9 °C 17,7 km/h (3 Bft)
27.03.2024 14:18 21,2 °C 16,3 °C 49 % 66 % 986,3 hPa 0,0 l/m² 14,9 km/h (3 Bft) O 91 ° 1 min 269 W/m² 9,9 °C 12,8 °C 17,7 km/h (3 Bft)
27.03.2024 14:19 21,2 °C 16,3 °C 49 % 64 % 986,3 hPa 0,0 l/m² 12,3 km/h (2 Bft) O 81 ° 1 min 271 W/m² 9,5 °C 13,7 °C 17,7 km/h (3 Bft)
27.03.2024 14:20 21,2 °C 16,4 °C 49 % 66 % 986,2 hPa 0,0 l/m² 12,3 km/h (2 Bft) O 98 ° 1 min 262 W/m² 10,0 °C 13,8 °C 16,1 km/h (3 Bft)
27.03.2024 14:21 21,2 °C 16,3 °C 49 % 66 % 986,3 hPa 0,0 l/m² 13,1 km/h (3 Bft) NO 50 ° 1 min 255 W/m² 9,9 °C 13,4 °C 16,1 km/h (3 Bft)
27.03.2024 14:22 21,2 °C 16,3 °C 49 % 67 % 986,3 hPa 0,0 l/m² 8,4 km/h (2 Bft) O-NO 76 ° 1 min 257 W/m² 10,2 °C 15,3 °C 12,9 km/h (3 Bft)
27.03.2024 14:23 21,2 °C 16,4 °C 49 % 65 % 986,2 hPa 0,0 l/m² 14,8 km/h (3 Bft) O 87 ° 1 min 253 W/m² 9,8 °C 12,9 °C 19,3 km/h (3 Bft)
27.03.2024 14:24 21,2 °C 16,4 °C 49 % 64 % 986,2 hPa 0,0 l/m² 18,0 km/h (3 Bft) O-NO 74 ° 1 min 250 W/m² 9,6 °C 12,0 °C 20,9 km/h (4 Bft)
27.03.2024 14:25 21,2 °C 16,4 °C 49 % 64 % 986,2 hPa 0,0 l/m² 13,9 km/h (3 Bft) O-NO 66 ° 1 min 250 W/m² 9,6 °C 13,2 °C 19,3 km/h (3 Bft)
27.03.2024 14:26 21,2 °C 16,4 °C 49 % 64 % 986,1 hPa 0,0 l/m² 15,8 km/h (3 Bft) O 95 ° 1 min 253 W/m² 9,6 °C 12,7 °C 17,7 km/h (3 Bft)
27.03.2024 14:27 21,2 °C 16,3 °C 49 % 64 % 986,1 hPa 0,0 l/m² 14,7 km/h (3 Bft) O-SO 104 ° 1 min 255 W/m² 9,5 °C 12,9 °C 16,1 km/h (3 Bft)
27.03.2024 14:28 21,2 °C 16,3 °C 49 % 64 % 986,1 hPa 0,0 l/m² 17,1 km/h (3 Bft) O 90 ° 1 min 258 W/m² 9,5 °C 12,2 °C 20,9 km/h (4 Bft)
27.03.2024 14:29 21,2 °C 16,2 °C 49 % 65 % 986,1 hPa 0,0 l/m² 16,0 km/h (3 Bft) O 92 ° 1 min 269 W/m² 9,6 °C 12,3 °C 20,9 km/h (4 Bft)
27.03.2024 14:30 21,2 °C 16,2 °C 49 % 64 % 986,1 hPa 0,0 l/m² 14,5 km/h (3 Bft) O-NO 71 ° 1 min 279 W/m² 9,4 °C 12,8 °C 17,7 km/h (3 Bft)
27.03.2024 14:31 21,2 °C 16,1 °C 49 % 67 % 986,0 hPa 0,0 l/m² 14,4 km/h (3 Bft) O 87 ° 1 min 278 W/m² 10,0 °C 12,7 °C 19,3 km/h (3 Bft)
27.03.2024 14:32 21,2 °C 16,1 °C 49 % 66 % 986,0 hPa 0,0 l/m² 16,0 km/h (3 Bft) O 96 ° 1 min 288 W/m² 9,7 °C 12,2 °C 19,3 km/h (3 Bft)
27.03.2024 14:33 21,2 °C 16,2 °C 49 % 66 % 986,0 hPa 0,0 l/m² 15,3 km/h (3 Bft) O-NO 70 ° 1 min 408 W/m² 9,8 °C 12,6 °C 19,3 km/h (3 Bft)
27.03.2024 14:34 21,2 °C 16,2 °C 49 % 66 % 986,0 hPa 0,0 l/m² 10,3 km/h (2 Bft) O-NO 68 ° 1 min 424 W/m² 9,8 °C 14,3 °C 14,5 km/h (3 Bft)
27.03.2024 14:35 21,2 °C 16,4 °C 49 % 67 % 986,0 hPa 0,0 l/m² 9,7 km/h (2 Bft) O-NO 58 ° 1 min 369 W/m² 10,3 °C 14,8 °C 16,1 km/h (3 Bft)
27.03.2024 14:36 21,2 °C 16,6 °C 49 % 67 % 986,0 hPa 0,0 l/m² 10,8 km/h (2 Bft) O 80 ° 1 min 355 W/m² 10,4 °C 14,6 °C 16,1 km/h (3 Bft)
27.03.2024 14:37 21,2 °C 16,7 °C 49 % 64 % 985,9 hPa 0,0 l/m² 19,3 km/h (3 Bft) O-NO 71 ° 1 min 345 W/m² 9,9 °C 12,1 °C 27,4 km/h (5 Bft)
27.03.2024 14:38 21,2 °C 16,8 °C 49 % 62 % 986,0 hPa 0,0 l/m² 20,9 km/h (4 Bft) O-NO 73 ° 1 min 338 W/m² 9,5 °C 11,9 °C 27,4 km/h (5 Bft)
27.03.2024 14:39 21,2 °C 16,9 °C 49 % 62 % 986,0 hPa 0,0 l/m² 18,2 km/h (3 Bft) O-NO 78 ° 1 min 359 W/m² 9,6 °C 12,6 °C 25,7 km/h (4 Bft)
27.03.2024 14:40 21,2 °C 16,8 °C 49 % 62 % 985,9 hPa 0,0 l/m² 20,8 km/h (4 Bft) O-NO 69 ° 1 min 396 W/m² 9,5 °C 11,9 °C 24,1 km/h (4 Bft)
27.03.2024 14:41 21,2 °C 16,8 °C 49 % 62 % 986,0 hPa 0,0 l/m² 19,2 km/h (3 Bft) O 80 ° 1 min 355 W/m² 9,5 °C 12,3 °C 24,1 km/h (4 Bft)
27.03.2024 14:42 21,2 °C 16,8 °C 49 % 63 % 985,9 hPa 0,0 l/m² 17,4 km/h (3 Bft) NO 38 ° 1 min 308 W/m² 9,7 °C 12,7 °C 25,7 km/h (4 Bft)
27.03.2024 14:43 21,2 °C 16,8 °C 49 % 63 % 986,0 hPa 0,0 l/m² 22,3 km/h (4 Bft) O 84 ° 1 min 304 W/m² 9,7 °C 11,6 °C 29,0 km/h (5 Bft)
27.03.2024 14:44 21,2 °C 16,8 °C 49 % 63 % 986,1 hPa 0,0 l/m² 20,9 km/h (4 Bft) O 79 ° 1 min 323 W/m² 9,7 °C 11,9 °C 24,1 km/h (4 Bft)
27.03.2024 14:45 21,2 °C 16,8 °C 49 % 63 % 986,0 hPa 0,0 l/m² 17,4 km/h (3 Bft) O 86 ° 1 min 315 W/m² 9,7 °C 12,7 °C 24,1 km/h (4 Bft)
27.03.2024 14:46 21,2 °C 16,8 °C 49 % 62 % 986,0 hPa 0,0 l/m² 17,8 km/h (3 Bft) O 86 ° 1 min 322 W/m² 9,5 °C 12,6 °C 22,5 km/h (4 Bft)
27.03.2024 14:47 21,2 °C 16,7 °C 49 % 64 % 986,1 hPa 0,0 l/m² 19,2 km/h (3 Bft) O 101 ° 1 min 306 W/m² 9,9 °C 12,1 °C 24,1 km/h (4 Bft)
27.03.2024 14:48 21,2 °C 16,6 °C 49 % 64 % 986,1 hPa 0,0 l/m² 14,4 km/h (3 Bft) O 94 ° 1 min 287 W/m² 9,8 °C 13,3 °C 19,3 km/h (3 Bft)
27.03.2024 14:49 21,2 °C 16,6 °C 49 % 63 % 986,1 hPa 0,0 l/m² 18,4 km/h (3 Bft) O 86 ° 1 min 274 W/m² 9,5 °C 12,2 °C 24,1 km/h (4 Bft)
27.03.2024 14:50 21,2 °C 16,6 °C 49 % 63 % 986,0 hPa 0,0 l/m² 16,4 km/h (3 Bft) O 90 ° 1 min 271 W/m² 9,5 °C 12,7 °C 20,9 km/h (4 Bft)
27.03.2024 14:51 21,2 °C 16,6 °C 49 % 64 % 986,1 hPa 0,0 l/m² 19,4 km/h (3 Bft) O-NO 70 ° 1 min 288 W/m² 9,8 °C 12,0 °C 22,5 km/h (4 Bft)
27.03.2024 14:52 21,2 °C 16,7 °C 49 % 63 % 986,1 hPa 0,0 l/m² 17,6 km/h (3 Bft) O 84 ° 1 min 294 W/m² 9,6 °C 12,5 °C 24,1 km/h (4 Bft)
27.03.2024 14:53 21,2 °C 16,7 °C 49 % 63 % 986,1 hPa 0,0 l/m² 18,7 km/h (3 Bft) O-NO 71 ° 1 min 327 W/m² 9,6 °C 12,3 °C 24,1 km/h (4 Bft)
27.03.2024 14:54 21,2 °C 16,7 °C 49 % 63 % 986,0 hPa 0,0 l/m² 18,1 km/h (3 Bft) O-NO 72 ° 1 min 327 W/m² 9,6 °C 12,4 °C 20,9 km/h (4 Bft)
27.03.2024 14:55 21,2 °C 16,8 °C 49 % 63 % 986,1 hPa 0,0 l/m² 20,9 km/h (4 Bft) O 84 ° 1 min 315 W/m² 9,7 °C 11,9 °C 25,7 km/h (4 Bft)
27.03.2024 14:56 21,2 °C 16,8 °C 49 % 63 % 986,1 hPa 0,0 l/m² 21,6 km/h (4 Bft) O 82 ° 1 min 285 W/m² 9,7 °C 11,7 °C 25,7 km/h (4 Bft)
27.03.2024 14:57 21,2 °C 16,8 °C 49 % 62 % 986,1 hPa 0,0 l/m² 16,4 km/h (3 Bft) O 82 ° 1 min 274 W/m² 9,5 °C 13,0 °C 22,5 km/h (4 Bft)
27.03.2024 14:58 21,2 °C 16,7 °C 49 % 64 % 986,1 hPa 0,0 l/m² 15,2 km/h (3 Bft) O 98 ° 1 min 271 W/m² 9,9 °C 13,2 °C 24,1 km/h (4 Bft)
27.03.2024 14:59 21,2 °C 16,7 °C 49 % 64 % 986,1 hPa 0,0 l/m² 16,8 km/h (3 Bft) NO 53 ° 1 min 265 W/m² 9,9 °C 12,7 °C 22,5 km/h (4 Bft)
27.03.2024 15:00 21,2 °C 16,7 °C 49 % 63 % 986,1 hPa 0,0 l/m² 19,8 km/h (3 Bft) O 80 ° 1 min 260 W/m² 9,6 °C 12,0 °C 24,1 km/h (4 Bft)
27.03.2024 15:01 21,2 °C 16,7 °C 49 % 63 % 986,1 hPa 0,0 l/m² 15,0 km/h (3 Bft) O 88 ° 1 min 258 W/m² 9,6 °C 13,3 °C 22,5 km/h (4 Bft)
27.03.2024 15:02 21,2 °C 16,6 °C 49 % 64 % 986,2 hPa 0,0 l/m² 15,0 km/h (3 Bft) O 84 ° 1 min 255 W/m² 9,8 °C 13,1 °C 17,7 km/h (3 Bft)
27.03.2024 15:03 21,2 °C 16,4 °C 49 % 65 % 986,2 hPa 0,0 l/m² 11,1 km/h (2 Bft) O 86 ° 1 min 257 W/m² 9,8 °C 14,2 °C 14,5 km/h (3 Bft)
27.03.2024 15:04 21,2 °C 16,4 °C 49 % 65 % 986,2 hPa 0,0 l/m² 14,6 km/h (3 Bft) O-NO 76 ° 1 min 258 W/m² 9,8 °C 13,0 °C 17,7 km/h (3 Bft)
27.03.2024 15:05 21,2 °C 16,3 °C 49 % 65 % 986,3 hPa 0,0 l/m² 9,1 km/h (2 Bft) O 88 ° 1 min 258 W/m² 9,7 °C 14,9 °C 12,9 km/h (3 Bft)
27.03.2024 15:06 21,2 °C 16,4 °C 49 % 65 % 986,3 hPa 0,0 l/m² 11,2 km/h (2 Bft) O 88 ° 1 min 262 W/m² 9,8 °C 14,2 °C 14,5 km/h (3 Bft)
27.03.2024 15:07 21,2 °C 16,3 °C 49 % 66 % 986,3 hPa 0,0 l/m² 14,3 km/h (3 Bft) O 96 ° 1 min 264 W/m² 9,9 °C 13,0 °C 20,9 km/h (4 Bft)
27.03.2024 15:08 21,2 °C 16,3 °C 49 % 65 % 986,3 hPa 0,0 l/m² 13,5 km/h (3 Bft) O 84 ° 1 min 265 W/m² 9,7 °C 13,2 °C 19,3 km/h (3 Bft)
27.03.2024 15:09 21,2 °C 16,3 °C 49 % 66 % 986,3 hPa 0,0 l/m² 12,1 km/h (2 Bft) O 85 ° 1 min 265 W/m² 9,9 °C 13,7 °C 14,5 km/h (3 Bft)
27.03.2024 15:10 21,2 °C 16,3 °C 49 % 66 % 986,3 hPa 0,0 l/m² 13,2 km/h (3 Bft) O 90 ° 1 min 265 W/m² 9,9 °C 13,3 °C 16,1 km/h (3 Bft)
27.03.2024 15:11 21,2 °C 16,4 °C 49 % 66 % 986,2 hPa 0,0 l/m² 14,6 km/h (3 Bft) O 85 ° 1 min 267 W/m² 10,0 °C 13,0 °C 17,7 km/h (3 Bft)
27.03.2024 15:12 21,2 °C 16,4 °C 49 % 66 % 986,2 hPa 0,0 l/m² 14,1 km/h (3 Bft) O 88 ° 1 min 262 W/m² 10,0 °C 13,2 °C 20,9 km/h (4 Bft)
27.03.2024 15:13 21,2 °C 16,4 °C 49 % 66 % 986,2 hPa 0,0 l/m² 16,7 km/h (3 Bft) O 82 ° 1 min 260 W/m² 10,0 °C 12,4 °C 20,9 km/h (4 Bft)
27.03.2024 15:14 21,2 °C 16,4 °C 49 % 65 % 986,1 hPa 0,0 l/m² 11,5 km/h (2 Bft) O-NO 76 ° 1 min 251 W/m² 9,8 °C 14,1 °C 16,1 km/h (3 Bft)
27.03.2024 15:15 21,2 °C 16,4 °C 49 % 66 % 986,3 hPa 0,0 l/m² 9,3 km/h (2 Bft) O-NO 69 ° 1 min 248 W/m² 10,0 °C 15,0 °C 12,9 km/h (3 Bft)
27.03.2024 15:16 21,2 °C 16,5 °C 49 % 66 % 986,3 hPa 0,0 l/m² 8,6 km/h (2 Bft) O-NO 71 ° 1 min 244 W/m² 10,1 °C 15,4 °C 12,9 km/h (3 Bft)
27.03.2024 15:17 21,2 °C 16,6 °C 49 % 65 % 986,2 hPa 0,0 l/m² 12,1 km/h (2 Bft) O-NO 62 ° 1 min 244 W/m² 10,0 °C 14,1 °C 17,7 km/h (3 Bft)
27.03.2024 15:18 21,2 °C 16,6 °C 49 % 64 % 986,3 hPa 0,0 l/m² 12,5 km/h (2 Bft) O-NO 63 ° 1 min 243 W/m² 9,8 °C 13,9 °C 19,3 km/h (3 Bft)
27.03.2024 15:19 21,2 °C 16,7 °C 49 % 65 % 986,3 hPa 0,0 l/m² 12,7 km/h (3 Bft) O-NO 63 ° 1 min 274 W/m² 10,1 °C 14,0 °C 17,7 km/h (3 Bft)
27.03.2024 15:20 21,2 °C 16,7 °C 49 % 64 % 986,3 hPa 0,0 l/m² 12,0 km/h (2 Bft) O-NO 73 ° 1 min 274 W/m² 9,9 °C 14,2 °C 17,7 km/h (3 Bft)
27.03.2024 15:21 21,2 °C 16,7 °C 49 % 64 % 986,3 hPa 0,0 l/m² 15,0 km/h (3 Bft) O 85 ° 1 min 250 W/m² 9,9 °C 13,3 °C 19,3 km/h (3 Bft)
27.03.2024 15:22 21,2 °C 16,7 °C 49 % 65 % 986,3 hPa 0,0 l/m² 15,8 km/h (3 Bft) O 87 ° 1 min 223 W/m² 10,1 °C 13,0 °C 22,5 km/h (4 Bft)
27.03.2024 15:23 21,2 °C 16,7 °C 49 % 64 % 986,3 hPa 0,0 l/m² 18,2 km/h (3 Bft) O 83 ° 1 min 216 W/m² 9,9 °C 12,4 °C 27,4 km/h (5 Bft)
27.03.2024 15:24 21,2 °C 16,6 °C 49 % 63 % 986,2 hPa 0,0 l/m² 19,0 km/h (3 Bft) O-NO 75 ° 1 min 211 W/m² 9,5 °C 12,1 °C 25,7 km/h (4 Bft)
27.03.2024 15:25 21,2 °C 16,6 °C 49 % 64 % 986,3 hPa 0,0 l/m² 18,0 km/h (3 Bft) O 88 ° 1 min 206 W/m² 9,8 °C 12,3 °C 20,9 km/h (4 Bft)
27.03.2024 15:26 21,2 °C 16,4 °C 49 % 64 % 986,3 hPa 0,0 l/m² 16,8 km/h (3 Bft) O 82 ° 1 min 202 W/m² 9,6 °C 12,4 °C 19,3 km/h (3 Bft)
27.03.2024 15:27 21,2 °C 16,3 °C 49 % 64 % 986,3 hPa 0,0 l/m² 15,0 km/h (3 Bft) O-NO 59 ° 1 min 202 W/m² 9,5 °C 12,8 °C 20,9 km/h (4 Bft)
27.03.2024 15:28 21,2 °C 16,3 °C 49 % 65 % 986,3 hPa 0,0 l/m² 16,0 km/h (3 Bft) O 84 ° 1 min 200 W/m² 9,7 °C 12,5 °C 17,7 km/h (3 Bft)
27.03.2024 15:29 21,1 °C 16,2 °C 49 % 65 % 986,3 hPa 0,0 l/m² 14,9 km/h (3 Bft) O-NO 70 ° 1 min 200 W/m² 9,6 °C 12,7 °C 17,7 km/h (3 Bft)
27.03.2024 15:30 21,2 °C 16,2 °C 49 % 65 % 986,2 hPa 0,0 l/m² 15,4 km/h (3 Bft) O-NO 70 ° 1 min 200 W/m² 9,6 °C 12,5 °C 20,9 km/h (4 Bft)
27.03.2024 15:31 21,2 °C 16,2 °C 49 % 64 % 986,3 hPa 0,0 l/m² 13,9 km/h (3 Bft) O 86 ° 1 min 202 W/m² 9,4 °C 13,0 °C 20,9 km/h (4 Bft)
27.03.2024 15:32 21,2 °C 16,3 °C 49 % 64 % 986,3 hPa 0,0 l/m² 17,7 km/h (3 Bft) O-NO 73 ° 1 min 199 W/m² 9,5 °C 12,0 °C 24,1 km/h (4 Bft)
27.03.2024 15:33 21,2 °C 16,3 °C 49 % 63 % 986,2 hPa 0,0 l/m² 14,8 km/h (3 Bft) O-NO 69 ° 1 min 197 W/m² 9,2 °C 12,8 °C 19,3 km/h (3 Bft)
27.03.2024 15:34 21,2 °C 16,3 °C 49 % 65 % 986,2 hPa 0,0 l/m² 14,7 km/h (3 Bft) O 82 ° 1 min 197 W/m² 9,7 °C 12,9 °C 19,3 km/h (3 Bft)
27.03.2024 15:35 21,2 °C 16,2 °C 49 % 65 % 986,2 hPa 0,0 l/m² 12,7 km/h (3 Bft) O-NO 78 ° 1 min 197 W/m² 9,6 °C 13,4 °C 17,7 km/h (3 Bft)
27.03.2024 15:36 21,1 °C 16,2 °C 49 % 65 % 986,3 hPa 0,0 l/m² 15,9 km/h (3 Bft) O-SO 102 ° 1 min 199 W/m² 9,6 °C 12,4 °C 19,3 km/h (3 Bft)
27.03.2024 15:37 21,2 °C 16,2 °C 49 % 65 % 986,2 hPa 0,0 l/m² 10,3 km/h (2 Bft) O-NO 67 ° 1 min 206 W/m² 9,6 °C 14,3 °C 12,9 km/h (3 Bft)
27.03.2024 15:38 21,2 °C 16,1 °C 49 % 66 % 986,2 hPa 0,0 l/m² 9,7 km/h (2 Bft) O-NO 69 ° 1 min 216 W/m² 9,7 °C 14,5 °C 14,5 km/h (3 Bft)
27.03.2024 15:39 21,1 °C 16,2 °C 49 % 66 % 986,1 hPa 0,0 l/m² 12,8 km/h (3 Bft) O-NO 75 ° 1 min 241 W/m² 9,8 °C 13,4 °C 19,3 km/h (3 Bft)
27.03.2024 15:41 21,1 °C 16,3 °C 49 % 66 % 986,1 hPa 0,0 l/m² 12,9 km/h (3 Bft) O-NO 68 ° 2 min 304 W/m² 9,9 °C 13,4 °C 19,3 km/h (3 Bft)
27.03.2024 15:42 21,1 °C 16,3 °C 49 % 65 % 986,1 hPa 0,0 l/m² 11,8 km/h (2 Bft) O-NO 78 ° 1 min 304 W/m² 9,7 °C 13,8 °C 17,7 km/h (3 Bft)
27.03.2024 15:43 21,1 °C 16,6 °C 49 % 65 % 986,2 hPa 0,0 l/m² 13,9 km/h (3 Bft) O-NO 71 ° 1 min 473 W/m² 10,0 °C 13,5 °C 22,5 km/h (4 Bft)
27.03.2024 15:44 21,2 °C 16,7 °C 49 % 65 % 986,2 hPa 0,0 l/m² 16,0 km/h (3 Bft) O 80 ° 1 min 462 W/m² 10,1 °C 13,0 °C 19,3 km/h (3 Bft)
27.03.2024 15:46 21,2 °C 17,0 °C 49 % 64 % 986,1 hPa 0,0 l/m² 12,7 km/h (3 Bft) O-NO 59 ° 2 min 315 W/m² 10,1 °C 14,3 °C 17,7 km/h (3 Bft)
27.03.2024 15:47 21,2 °C 17,1 °C 49 % 62 % 986,1 hPa 0,0 l/m² 16,2 km/h (3 Bft) O-NO 76 ° 1 min 350 W/m² 9,8 °C 13,4 °C 22,5 km/h (4 Bft)
27.03.2024 15:48 21,1 °C 17,2 °C 49 % 62 % 986,1 hPa 0,0 l/m² 14,5 km/h (3 Bft) O-NO 74 ° 1 min 415 W/m² 9,9 °C 14,0 °C 19,3 km/h (3 Bft)
27.03.2024 15:49 21,2 °C 17,2 °C 49 % 62 % 986,1 hPa 0,0 l/m² 14,6 km/h (3 Bft) O-NO 63 ° 1 min 318 W/m² 9,9 °C 14,0 °C 20,9 km/h (4 Bft)
27.03.2024 15:50 21,2 °C 17,2 °C 49 % 61 % 986,0 hPa 0,0 l/m² 15,3 km/h (3 Bft) O-NO 69 ° 1 min 322 W/m² 9,6 °C 13,8 °C 20,9 km/h (4 Bft)
27.03.2024 15:51 21,2 °C 17,2 °C 49 % 62 % 986,1 hPa 0,0 l/m² 14,0 km/h (3 Bft) O 84 ° 1 min 343 W/m² 9,9 °C 14,2 °C 17,7 km/h (3 Bft)
27.03.2024 15:52 21,2 °C 17,1 °C 49 % 63 % 986,1 hPa 0,0 l/m² 16,8 km/h (3 Bft) NO 55 ° 1 min 374 W/m² 10,0 °C 13,2 °C 24,1 km/h (4 Bft)
27.03.2024 15:53 21,2 °C 17,1 °C 49 % 62 % 986,1 hPa 0,0 l/m² 16,2 km/h (3 Bft) O 84 ° 1 min 323 W/m² 9,8 °C 13,4 °C 22,5 km/h (4 Bft)
27.03.2024 15:54 21,2 °C 16,9 °C 49 % 63 % 986,1 hPa 0,0 l/m² 12,1 km/h (2 Bft) O 84 ° 1 min 264 W/m² 9,8 °C 14,4 °C 17,7 km/h (3 Bft)
27.03.2024 15:55 21,2 °C 16,8 °C 49 % 62 % 986,1 hPa 0,0 l/m² 13,7 km/h (3 Bft) O 80 ° 1 min 364 W/m² 9,5 °C 13,8 °C 17,7 km/h (3 Bft)
27.03.2024 15:56 21,2 °C 16,8 °C 49 % 65 % 986,1 hPa 0,0 l/m² 11,3 km/h (2 Bft) O-NO 74 ° 1 min 323 W/m² 10,2 °C 14,6 °C 14,5 km/h (3 Bft)
27.03.2024 15:57 21,2 °C 16,8 °C 49 % 65 % 986,2 hPa 0,0 l/m² 11,7 km/h (2 Bft) O 91 ° 1 min 304 W/m² 10,2 °C 14,5 °C 16,1 km/h (3 Bft)
27.03.2024 15:58 21,1 °C 16,8 °C 49 % 65 % 986,1 hPa 0,0 l/m² 13,4 km/h (3 Bft) O 80 ° 1 min 281 W/m² 10,2 °C 13,9 °C 17,7 km/h (3 Bft)
27.03.2024 15:59 21,1 °C 16,8 °C 49 % 62 % 986,2 hPa 0,0 l/m² 19,0 km/h (3 Bft) O-NO 61 ° 1 min 255 W/m² 9,5 °C 12,3 °C 24,1 km/h (4 Bft)
27.03.2024 16:00 21,1 °C 16,8 °C 49 % 62 % 986,1 hPa 0,0 l/m² 15,5 km/h (3 Bft) O-SO 102 ° 1 min 239 W/m² 9,5 °C 13,2 °C 20,9 km/h (4 Bft)
27.03.2024 16:01 21,1 °C 16,8 °C 49 % 62 % 986,2 hPa 0,0 l/m² 17,1 km/h (3 Bft) O 88 ° 1 min 206 W/m² 9,5 °C 12,8 °C 20,9 km/h (4 Bft)
27.03.2024 16:02 21,1 °C 16,7 °C 49 % 63 % 986,1 hPa 0,0 l/m² 13,5 km/h (3 Bft) O-NO 67 ° 1 min 202 W/m² 9,6 °C 13,7 °C 17,7 km/h (3 Bft)
27.03.2024 16:03 21,1 °C 16,6 °C 49 % 63 % 986,2 hPa 0,0 l/m² 14,1 km/h (3 Bft) O-NO 78 ° 1 min 197 W/m² 9,5 °C 13,4 °C 17,7 km/h (3 Bft)
27.03.2024 16:04 21,1 °C 16,4 °C 49 % 64 % 986,2 hPa 0,0 l/m² 14,6 km/h (3 Bft) O 86 ° 1 min 195 W/m² 9,6 °C 13,0 °C 17,7 km/h (3 Bft)
27.03.2024 16:05 21,2 °C 16,4 °C 49 % 64 % 986,2 hPa 0,0 l/m² 14,8 km/h (3 Bft) O-NO 72 ° 1 min 197 W/m² 9,6 °C 12,9 °C 19,3 km/h (3 Bft)
27.03.2024 16:06 21,1 °C 16,3 °C 49 % 65 % 986,1 hPa 0,0 l/m² 15,0 km/h (3 Bft) O-NO 75 ° 1 min 192 W/m² 9,7 °C 12,8 °C 20,9 km/h (4 Bft)
27.03.2024 16:07 21,1 °C 16,3 °C 49 % 64 % 986,1 hPa 0,0 l/m² 16,0 km/h (3 Bft) O 82 ° 1 min 183 W/m² 9,5 °C 12,5 °C 20,9 km/h (4 Bft)
27.03.2024 16:08 21,2 °C 16,3 °C 49 % 64 % 986,2 hPa 0,0 l/m² 13,8 km/h (3 Bft) O-NO 74 ° 1 min 181 W/m² 9,5 °C 13,1 °C 16,1 km/h (3 Bft)
27.03.2024 16:09 21,2 °C 16,2 °C 49 % 64 % 986,3 hPa 0,0 l/m² 17,0 km/h (3 Bft) O 86 ° 1 min 178 W/m² 9,4 °C 12,1 °C 24,1 km/h (4 Bft)
27.03.2024 16:10 21,1 °C 16,2 °C 49 % 64 % 986,2 hPa 0,0 l/m² 19,0 km/h (3 Bft) O 96 ° 1 min 172 W/m² 9,4 °C 11,5 °C 24,1 km/h (4 Bft)
27.03.2024 16:11 21,2 °C 16,1 °C 49 % 65 % 986,3 hPa 0,0 l/m² 14,8 km/h (3 Bft) O-NO 61 ° 1 min 165 W/m² 9,5 °C 12,6 °C 17,7 km/h (3 Bft)
27.03.2024 16:12 21,1 °C 16,0 °C 49 % 65 % 986,2 hPa 0,0 l/m² 11,3 km/h (2 Bft) O-NO 75 ° 1 min 162 W/m² 9,4 °C 13,7 °C 14,5 km/h (3 Bft)
27.03.2024 16:13 21,1 °C 15,9 °C 49 % 66 % 986,3 hPa 0,0 l/m² 11,2 km/h (2 Bft) O 94 ° 1 min 153 W/m² 9,6 °C 13,6 °C 12,9 km/h (3 Bft)
27.03.2024 16:14 21,2 °C 15,8 °C 49 % 67 % 986,3 hPa 0,0 l/m² 11,8 km/h (2 Bft) O-NO 78 ° 1 min 149 W/m² 9,7 °C 13,3 °C 17,7 km/h (3 Bft)
27.03.2024 16:15 21,1 °C 15,8 °C 49 % 66 % 986,3 hPa 0,0 l/m² 12,2 km/h (2 Bft) O-NO 62 ° 1 min 146 W/m² 9,5 °C 13,1 °C 17,7 km/h (3 Bft)
27.03.2024 16:16 21,1 °C 15,8 °C 49 % 65 % 986,3 hPa 0,0 l/m² 16,6 km/h (3 Bft) O 94 ° 1 min 144 W/m² 9,2 °C 11,7 °C 22,5 km/h (4 Bft)
27.03.2024 16:17 21,2 °C 15,8 °C 49 % 65 % 986,3 hPa 0,0 l/m² 13,5 km/h (3 Bft) O-NO 76 ° 1 min 141 W/m² 9,2 °C 12,7 °C 19,3 km/h (3 Bft)
27.03.2024 16:18 21,1 °C 15,8 °C 49 % 66 % 986,2 hPa 0,0 l/m² 14,5 km/h (3 Bft) O 82 ° 1 min 139 W/m² 9,5 °C 12,3 °C 17,7 km/h (3 Bft)
27.03.2024 16:19 21,1 °C 15,8 °C 49 % 65 % 986,2 hPa 0,0 l/m² 9,9 km/h (2 Bft) O 84 ° 1 min 135 W/m² 9,2 °C 14,0 °C 17,7 km/h (3 Bft)
27.03.2024 16:20 21,2 °C 15,8 °C 49 % 65 % 986,3 hPa 0,0 l/m² 11,4 km/h (2 Bft) O 79 ° 1 min 134 W/m² 9,2 °C 13,4 °C 17,7 km/h (3 Bft)
27.03.2024 16:21 21,1 °C 15,8 °C 49 % 66 % 986,1 hPa 0,0 l/m² 19,4 km/h (3 Bft) O-NO 76 ° 1 min 132 W/m² 9,5 °C 10,9 °C 22,5 km/h (4 Bft)
27.03.2024 16:22 21,1 °C 15,8 °C 49 % 65 % 986,2 hPa 0,0 l/m² 12,8 km/h (3 Bft) O-NO 77 ° 1 min 130 W/m² 9,2 °C 12,9 °C 17,7 km/h (3 Bft)
27.03.2024 16:23 21,1 °C 15,8 °C 49 % 65 % 986,2 hPa 0,0 l/m² 18,7 km/h (3 Bft) O 95 ° 1 min 128 W/m² 9,2 °C 11,1 °C 27,4 km/h (5 Bft)
27.03.2024 16:24 21,1 °C 15,8 °C 49 % 65 % 986,1 hPa 0,0 l/m² 15,2 km/h (3 Bft) O 92 ° 1 min 127 W/m² 9,2 °C 12,1 °C 22,5 km/h (4 Bft)
27.03.2024 16:25 21,2 °C 15,7 °C 49 % 65 % 986,1 hPa 0,0 l/m² 10,9 km/h (2 Bft) O 80 ° 1 min 125 W/m² 9,1 °C 13,5 °C 14,5 km/h (3 Bft)
27.03.2024 16:26 21,1 °C 15,7 °C 49 % 66 % 986,1 hPa 0,0 l/m² 11,6 km/h (2 Bft) O 80 ° 1 min 125 W/m² 9,4 °C 13,2 °C 16,1 km/h (3 Bft)
27.03.2024 16:27 21,1 °C 15,7 °C 49 % 66 % 986,0 hPa 0,0 l/m² 13,7 km/h (3 Bft) O-NO 65 ° 1 min 123 W/m² 9,4 °C 12,5 °C 19,3 km/h (3 Bft)
27.03.2024 16:28 21,1 °C 15,7 °C 49 % 67 % 986,0 hPa 0,0 l/m² 8,1 km/h (2 Bft) O-NO 72 ° 1 min 123 W/m² 9,6 °C 14,8 °C 12,9 km/h (3 Bft)
27.03.2024 16:29 21,1 °C 15,6 °C 49 % 67 % 986,0 hPa 0,0 l/m² 7,4 km/h (2 Bft) O 79 ° 1 min 121 W/m² 9,5 °C 15,1 °C 9,7 km/h (2 Bft)
27.03.2024 16:30 21,1 °C 15,6 °C 49 % 67 % 986,1 hPa 0,0 l/m² 10,9 km/h (2 Bft) O 82 ° 1 min 118 W/m² 9,5 °C 13,4 °C 16,1 km/h (3 Bft)
27.03.2024 16:31 21,1 °C 15,7 °C 49 % 66 % 986,0 hPa 0,0 l/m² 6,7 km/h (2 Bft) O-NO 67 ° 1 min 118 W/m² 9,4 °C 15,5 °C 11,3 km/h (2 Bft)
27.03.2024 16:32 21,1 °C 15,7 °C 49 % 67 % 986,1 hPa 0,0 l/m² 7,0 km/h (2 Bft) O-NO 59 ° 1 min 116 W/m² 9,6 °C 15,4 °C 12,9 km/h (3 Bft)
27.03.2024 16:33 21,1 °C 15,7 °C 49 % 67 % 986,0 hPa 0,0 l/m² 10,9 km/h (2 Bft) O-NO 74 ° 1 min 114 W/m² 9,6 °C 13,5 °C 14,5 km/h (3 Bft)
27.03.2024 16:34 21,1 °C 15,7 °C 49 % 67 % 986,0 hPa 0,0 l/m² 11,3 km/h (2 Bft) O-NO 69 ° 1 min 113 W/m² 9,6 °C 13,3 °C 16,1 km/h (3 Bft)
27.03.2024 16:35 21,1 °C 15,7 °C 49 % 66 % 986,1 hPa 0,0 l/m² 9,2 km/h (2 Bft) O-NO 58 ° 1 min 113 W/m² 9,4 °C 14,3 °C 12,9 km/h (3 Bft)
27.03.2024 16:36 21,2 °C 15,7 °C 49 % 66 % 986,0 hPa 0,0 l/m² 8,9 km/h (2 Bft) NO 51 ° 1 min 109 W/m² 9,4 °C 14,4 °C 14,5 km/h (3 Bft)
27.03.2024 16:37 21,1 °C 15,7 °C 49 % 67 % 986,1 hPa 0,0 l/m² 10,4 km/h (2 Bft) O-NO 78 ° 1 min 107 W/m² 9,6 °C 13,7 °C 16,1 km/h (3 Bft)
27.03.2024 16:38 21,1 °C 15,7 °C 49 % 67 % 986,1 hPa 0,0 l/m² 11,8 km/h (2 Bft) O-NO 58 ° 1 min 105 W/m² 9,6 °C 13,2 °C 16,1 km/h (3 Bft)
27.03.2024 16:39 21,1 °C 15,6 °C 49 % 66 % 986,2 hPa 0,0 l/m² 8,6 km/h (2 Bft) O-NO 61 ° 1 min 104 W/m² 9,3 °C 14,4 °C 14,5 km/h (3 Bft)
27.03.2024 16:40 21,1 °C 15,6 °C 49 % 67 % 986,2 hPa 0,0 l/m² 9,4 km/h (2 Bft) O-NO 59 ° 1 min 102 W/m² 9,5 °C 14,1 °C 12,9 km/h (3 Bft)
27.03.2024 16:41 21,1 °C 15,6 °C 49 % 67 % 986,2 hPa 0,0 l/m² 8,3 km/h (2 Bft) O-NO 58 ° 1 min 100 W/m² 9,5 °C 14,6 °C 12,9 km/h (3 Bft)
27.03.2024 16:42 21,1 °C 15,6 °C 49 % 66 % 986,2 hPa 0,0 l/m² 14,0 km/h (3 Bft) O-NO 78 ° 1 min 97 W/m² 9,3 °C 12,2 °C 19,3 km/h (3 Bft)
27.03.2024 16:43 21,1 °C 15,6 °C 49 % 66 % 986,2 hPa 0,0 l/m² 10,8 km/h (2 Bft) O-NO 65 ° 1 min 97 W/m² 9,3 °C 13,4 °C 14,5 km/h (3 Bft)
27.03.2024 16:44 21,1 °C 15,5 °C 49 % 67 % 986,3 hPa 0,0 l/m² 6,5 km/h (2 Bft) O-NO 74 ° 1 min 95 W/m² 9,4 °C 15,5 °C 12,9 km/h (3 Bft)
27.03.2024 16:45 21,1 °C 15,4 °C 49 % 67 % 986,3 hPa 0,0 l/m² 7,9 km/h (2 Bft) O-NO 78 ° 1 min 93 W/m² 9,3 °C 14,6 °C 14,5 km/h (3 Bft)
27.03.2024 16:46 21,1 °C 15,4 °C 49 % 67 % 986,2 hPa 0,0 l/m² 11,4 km/h (2 Bft) O-NO 62 ° 1 min 93 W/m² 9,3 °C 13,0 °C 14,5 km/h (3 Bft)
27.03.2024 16:47 21,1 °C 15,4 °C 49 % 67 % 986,2 hPa 0,0 l/m² 9,1 km/h (2 Bft) O-NO 77 ° 1 min 91 W/m² 9,3 °C 14,0 °C 12,9 km/h (3 Bft)
27.03.2024 16:48 21,1 °C 15,3 °C 49 % 67 % 986,2 hPa 0,0 l/m² 12,6 km/h (3 Bft) O-NO 65 ° 1 min 90 W/m² 9,2 °C 12,4 °C 14,5 km/h (3 Bft)
27.03.2024 16:49 21,1 °C 15,3 °C 49 % 67 % 986,3 hPa 0,0 l/m² 9,5 km/h (2 Bft) O 84 ° 1 min 88 W/m² 9,2 °C 13,7 °C 16,1 km/h (3 Bft)
27.03.2024 16:50 21,1 °C 15,3 °C 49 % 67 % 986,2 hPa 0,0 l/m² 10,3 km/h (2 Bft) O-NO 67 ° 1 min 88 W/m² 9,2 °C 13,3 °C 12,9 km/h (3 Bft)
27.03.2024 16:51 21,1 °C 15,3 °C 49 % 67 % 986,2 hPa 0,0 l/m² 9,3 km/h (2 Bft) O-NO 74 ° 1 min 86 W/m² 9,2 °C 13,8 °C 12,9 km/h (3 Bft)
27.03.2024 16:52 21,1 °C 15,3 °C 49 % 67 % 986,2 hPa 0,0 l/m² 10,9 km/h (2 Bft) O-NO 64 ° 1 min 84 W/m² 9,2 °C 13,1 °C 16,1 km/h (3 Bft)
27.03.2024 16:53 21,1 °C 15,3 °C 49 % 67 % 986,2 hPa 0,0 l/m² 13,2 km/h (3 Bft) O 82 ° 1 min 84 W/m² 9,2 °C 12,2 °C 17,7 km/h (3 Bft)
27.03.2024 16:54 21,1 °C 15,3 °C 49 % 67 % 986,1 hPa 0,0 l/m² 8,9 km/h (2 Bft) O 84 ° 1 min 83 W/m² 9,2 °C 14,0 °C 14,5 km/h (3 Bft)
27.03.2024 16:55 21,1 °C 15,2 °C 49 % 67 % 986,2 hPa 0,0 l/m² 12,9 km/h (3 Bft) O-NO 78 ° 1 min 81 W/m² 9,1 °C 12,2 °C 17,7 km/h (3 Bft)
27.03.2024 16:56 21,1 °C 15,2 °C 49 % 67 % 986,1 hPa 0,0 l/m² 12,3 km/h (2 Bft) O-NO 78 ° 1 min 81 W/m² 9,1 °C 12,4 °C 16,1 km/h (3 Bft)
27.03.2024 16:57 21,1 °C 15,2 °C 49 % 67 % 986,0 hPa 0,0 l/m² 13,5 km/h (3 Bft) O 88 ° 1 min 79 W/m² 9,1 °C 11,9 °C 16,1 km/h (3 Bft)
27.03.2024 16:58 21,1 °C 15,2 °C 49 % 67 % 986,1 hPa 0,0 l/m² 14,6 km/h (3 Bft) O-NO 74 ° 1 min 79 W/m² 9,1 °C 11,6 °C 19,3 km/h (3 Bft)
27.03.2024 16:59 21,1 °C 15,2 °C 49 % 67 % 986,1 hPa 0,0 l/m² 12,2 km/h (2 Bft) O 87 ° 1 min 76 W/m² 9,1 °C 12,4 °C 16,1 km/h (3 Bft)
27.03.2024 17:00 21,1 °C 15,2 °C 49 % 67 % 986,1 hPa 0,0 l/m² 14,0 km/h (3 Bft) O-NO 78 ° 1 min 76 W/m² 9,1 °C 11,8 °C 17,7 km/h (3 Bft)
27.03.2024 17:01 21,1 °C 15,2 °C 49 % 67 % 986,1 hPa 0,0 l/m² 14,3 km/h (3 Bft) O-NO 76 ° 1 min 74 W/m² 9,1 °C 11,7 °C 16,1 km/h (3 Bft)
27.03.2024 17:02 21,1 °C 15,2 °C 49 % 67 % 986,1 hPa 0,0 l/m² 10,0 km/h (2 Bft) O-NO 69 ° 1 min 72 W/m² 9,1 °C 13,3 °C 17,7 km/h (3 Bft)
27.03.2024 17:03 21,1 °C 15,2 °C 49 % 68 % 986,1 hPa 0,0 l/m² 11,7 km/h (2 Bft) O 84 ° 1 min 72 W/m² 9,3 °C 12,6 °C 19,3 km/h (3 Bft)
27.03.2024 17:04 21,1 °C 15,2 °C 49 % 67 % 986,1 hPa 0,0 l/m² 11,5 km/h (2 Bft) O-NO 72 ° 1 min 70 W/m² 9,1 °C 12,7 °C 14,5 km/h (3 Bft)
27.03.2024 17:05 21,1 °C 15,2 °C 49 % 68 % 986,1 hPa 0,0 l/m² 11,9 km/h (2 Bft) O-NO 70 ° 1 min 70 W/m² 9,3 °C 12,5 °C 17,7 km/h (3 Bft)
27.03.2024 17:06 21,1 °C 15,1 °C 49 % 68 % 986,1 hPa 0,0 l/m² 12,3 km/h (2 Bft) O-NO 67 ° 1 min 69 W/m² 9,2 °C 12,3 °C 17,7 km/h (3 Bft)
27.03.2024 17:07 21,1 °C 15,1 °C 49 % 68 % 986,1 hPa 0,0 l/m² 12,9 km/h (3 Bft) O 80 ° 1 min 69 W/m² 9,2 °C 12,0 °C 17,7 km/h (3 Bft)
27.03.2024 17:08 21,1 °C 15,1 °C 49 % 68 % 986,1 hPa 0,0 l/m² 11,8 km/h (2 Bft) O-NO 76 ° 1 min 69 W/m² 9,2 °C 12,5 °C 14,5 km/h (3 Bft)
27.03.2024 17:09 21,1 °C 14,9 °C 49 % 69 % 986,2 hPa 0,0 l/m² 11,1 km/h (2 Bft) O-NO 78 ° 1 min 67 W/m² 9,3 °C 12,5 °C 14,5 km/h (3 Bft)
27.03.2024 17:10 21,1 °C 14,9 °C 49 % 69 % 986,2 hPa 0,0 l/m² 10,6 km/h (2 Bft) O-NO 74 ° 1 min 67 W/m² 9,3 °C 12,7 °C 14,5 km/h (3 Bft)
27.03.2024 17:12 21,1 °C 14,8 °C 49 % 70 % 986,2 hPa 0,0 l/m² 11,3 km/h (2 Bft) O-NO 75 ° 2 min 65 W/m² 9,4 °C 12,3 °C 14,5 km/h (3 Bft)
27.03.2024 17:13 21,1 °C 14,8 °C 49 % 70 % 986,2 hPa 0,0 l/m² 12,1 km/h (2 Bft) O 80 ° 1 min 65 W/m² 9,4 °C 12,0 °C 16,1 km/h (3 Bft)
27.03.2024 17:14 21,1 °C 14,8 °C 49 % 69 % 986,3 hPa 0,0 l/m² 12,3 km/h (2 Bft) O-NO 74 ° 1 min 63 W/m² 9,2 °C 11,9 °C 17,7 km/h (3 Bft)
27.03.2024 17:15 21,1 °C 14,8 °C 49 % 69 % 986,3 hPa 0,0 l/m² 9,3 km/h (2 Bft) O 101 ° 1 min 63 W/m² 9,2 °C 13,2 °C 12,9 km/h (3 Bft)
27.03.2024 17:16 21,1 °C 14,8 °C 49 % 70 % 986,3 hPa 0,0 l/m² 9,3 km/h (2 Bft) O 89 ° 1 min 62 W/m² 9,4 °C 13,2 °C 11,3 km/h (2 Bft)
27.03.2024 17:17 21,1 °C 14,7 °C 49 % 70 % 986,3 hPa 0,0 l/m² 10,7 km/h (2 Bft) O-NO 74 ° 1 min 60 W/m² 9,3 °C 12,5 °C 16,1 km/h (3 Bft)
27.03.2024 17:18 21,1 °C 14,7 °C 49 % 69 % 986,3 hPa 0,0 l/m² 11,8 km/h (2 Bft) O 82 ° 1 min 58 W/m² 9,1 °C 12,0 °C 14,5 km/h (3 Bft)
27.03.2024 17:19 21,1 °C 14,7 °C 49 % 69 % 986,3 hPa 0,0 l/m² 9,0 km/h (2 Bft) O-NO 72 ° 1 min 56 W/m² 9,1 °C 13,3 °C 12,9 km/h (3 Bft)
27.03.2024 17:20 21,1 °C 14,7 °C 49 % 69 % 986,3 hPa 0,0 l/m² 10,6 km/h (2 Bft) O-NO 69 ° 1 min 56 W/m² 9,1 °C 12,5 °C 12,9 km/h (3 Bft)
27.03.2024 17:21 21,1 °C 14,7 °C 49 % 70 % 986,2 hPa 0,0 l/m² 7,0 km/h (2 Bft) O-NO 75 ° 1 min 54 W/m² 9,3 °C 14,4 °C 8,0 km/h (2 Bft)
27.03.2024 17:22 21,1 °C 14,7 °C 49 % 70 % 986,3 hPa 0,0 l/m² 7,9 km/h (2 Bft) NO 54 ° 1 min 54 W/m² 9,3 °C 13,8 °C 12,9 km/h (3 Bft)
27.03.2024 17:24 21,1 °C 14,7 °C 49 % 69 % 986,1 hPa 0,0 l/m² 10,7 km/h (2 Bft) O-NO 57 ° 0 min 51 W/m² 9,1 °C 12,5 °C 16,1 km/h (3 Bft)
27.03.2024 17:25 21,1 °C 14,7 °C 49 % 69 % 986,1 hPa 0,0 l/m² 10,9 km/h (2 Bft) O 84 ° 0 min 51 W/m² 9,1 °C 12,4 °C 16,1 km/h (3 Bft)
27.03.2024 17:26 21,1 °C 14,7 °C 49 % 69 % 986,1 hPa 0,0 l/m² 10,1 km/h (2 Bft) O-NO 69 ° 0 min 49 W/m² 9,1 °C 12,7 °C 14,5 km/h (3 Bft)
27.03.2024 17:27 21,1 °C 14,8 °C 49 % 69 % 986,0 hPa 0,0 l/m² 9,3 km/h (2 Bft) O-NO 61 ° 0 min 49 W/m² 9,2 °C 13,2 °C 12,9 km/h (3 Bft)
27.03.2024 17:28 21,1 °C 14,8 °C 49 % 69 % 986,1 hPa 0,0 l/m² 7,2 km/h (2 Bft) NO 53 ° 0 min 47 W/m² 9,2 °C 14,3 °C 12,9 km/h (3 Bft)
27.03.2024 17:29 21,1 °C 14,7 °C 49 % 69 % 986,1 hPa 0,0 l/m² 12,3 km/h (2 Bft) O-NO 59 ° 0 min 44 W/m² 9,1 °C 11,8 °C 17,7 km/h (3 Bft)
27.03.2024 17:30 21,1 °C 14,7 °C 49 % 69 % 986,1 hPa 0,0 l/m² 11,9 km/h (2 Bft) O-NO 70 ° 0 min 42 W/m² 9,1 °C 12,0 °C 17,7 km/h (3 Bft)
27.03.2024 17:31 21,1 °C 14,7 °C 49 % 69 % 986,1 hPa 0,0 l/m² 9,9 km/h (2 Bft) O-NO 73 ° 0 min 42 W/m² 9,1 °C 12,8 °C 12,9 km/h (3 Bft)
27.03.2024 17:32 21,1 °C 14,7 °C 49 % 70 % 986,1 hPa 0,0 l/m² 11,2 km/h (2 Bft) O 88 ° 0 min 40 W/m² 9,3 °C 12,3 °C 14,5 km/h (3 Bft)
27.03.2024 17:33 21,1 °C 14,6 °C 49 % 70 % 986,1 hPa 0,0 l/m² 9,8 km/h (2 Bft) O-NO 77 ° 0 min 40 W/m² 9,2 °C 12,8 °C 14,5 km/h (3 Bft)
27.03.2024 17:34 21,1 °C 14,6 °C 49 % 70 % 986,1 hPa 0,0 l/m² 9,5 km/h (2 Bft) O-NO 65 ° 0 min 40 W/m² 9,2 °C 12,9 °C 14,5 km/h (3 Bft)
27.03.2024 17:35 21,1 °C 14,4 °C 49 % 71 % 986,1 hPa 0,0 l/m² 10,6 km/h (2 Bft) O-NO 76 ° 0 min 39 W/m² 9,2 °C 12,2 °C 12,9 km/h (3 Bft)
27.03.2024 17:36 21,1 °C 14,4 °C 49 % 71 % 986,1 hPa 0,0 l/m² 9,5 km/h (2 Bft) O 79 ° 0 min 37 W/m² 9,2 °C 12,7 °C 12,9 km/h (3 Bft)
27.03.2024 17:37 21,1 °C 14,3 °C 49 % 71 % 986,1 hPa 0,0 l/m² 9,2 km/h (2 Bft) O 80 ° 0 min 37 W/m² 9,1 °C 12,7 °C 14,5 km/h (3 Bft)
27.03.2024 17:38 21,1 °C 14,3 °C 49 % 71 % 986,0 hPa 0,0 l/m² 11,4 km/h (2 Bft) O 81 ° 0 min 35 W/m² 9,1 °C 11,7 °C 14,5 km/h (3 Bft)
27.03.2024 17:39 21,1 °C 14,2 °C 49 % 71 % 986,1 hPa 0,0 l/m² 10,7 km/h (2 Bft) O-NO 76 ° 0 min 33 W/m² 9,0 °C 11,9 °C 14,5 km/h (3 Bft)
27.03.2024 17:40 21,1 °C 14,2 °C 49 % 71 % 986,1 hPa 0,0 l/m² 9,3 km/h (2 Bft) O-NO 76 ° 0 min 33 W/m² 9,0 °C 12,6 °C 14,5 km/h (3 Bft)
27.03.2024 17:41 21,1 °C 14,2 °C 49 % 72 % 986,1 hPa 0,0 l/m² 11,4 km/h (2 Bft) O-NO 73 ° 0 min 32 W/m² 9,2 °C 11,6 °C 14,5 km/h (3 Bft)
27.03.2024 17:42 21,1 °C 14,1 °C 49 % 72 % 986,0 hPa 0,0 l/m² 11,5 km/h (2 Bft) O-NO 70 ° 0 min 32 W/m² 9,1 °C 11,4 °C 12,9 km/h (3 Bft)
27.03.2024 17:43 21,1 °C 14,1 °C 49 % 72 % 986,1 hPa 0,0 l/m² 9,6 km/h (2 Bft) O-NO 78 ° 0 min 30 W/m² 9,1 °C 12,3 °C 12,9 km/h (3 Bft)
27.03.2024 17:44 21,1 °C 14,1 °C 49 % 71 % 986,1 hPa 0,0 l/m² 9,2 km/h (2 Bft) O-NO 78 ° 0 min 30 W/m² 8,9 °C 12,5 °C 12,9 km/h (3 Bft)
27.03.2024 17:45 21,1 °C 14,1 °C 49 % 72 % 986,1 hPa 0,0 l/m² 10,7 km/h (2 Bft) O-NO 77 ° 0 min 30 W/m² 9,1 °C 11,8 °C 14,5 km/h (3 Bft)
27.03.2024 17:46 21,1 °C 14,1 °C 49 % 71 % 986,1 hPa 0,0 l/m² 9,1 km/h (2 Bft) O-NO 78 ° 0 min 32 W/m² 8,9 °C 12,6 °C 12,9 km/h (3 Bft)
27.03.2024 17:47 21,1 °C 14,1 °C 49 % 72 % 986,1 hPa 0,0 l/m² 9,2 km/h (2 Bft) O-NO 74 ° 0 min 33 W/m² 9,1 °C 12,5 °C 12,9 km/h (3 Bft)
27.03.2024 17:48 21,1 °C 14,1 °C 49 % 72 % 986,1 hPa 0,0 l/m² 7,6 km/h (2 Bft) O-NO 72 ° 0 min 32 W/m² 9,1 °C 13,4 °C 9,7 km/h (2 Bft)
27.03.2024 17:49 21,1 °C 14,0 °C 49 % 72 % 986,1 hPa 0,0 l/m² 7,0 km/h (2 Bft) O 80 ° 0 min 32 W/m² 9,0 °C 13,6 °C 8,0 km/h (2 Bft)
27.03.2024 17:50 21,1 °C 14,0 °C 49 % 72 % 986,0 hPa 0,0 l/m² 5,8 km/h (2 Bft) O-NO 66 ° 0 min 30 W/m² 9,0 °C 14,0 °C 11,3 km/h (2 Bft)
27.03.2024 17:51 21,1 °C 14,0 °C 49 % 72 % 986,1 hPa 0,0 l/m² 6,6 km/h (2 Bft) O-NO 78 ° 0 min 30 W/m² 9,0 °C 13,9 °C 8,0 km/h (2 Bft)
27.03.2024 17:52 21,1 °C 14,0 °C 49 % 72 % 986,1 hPa 0,0 l/m² 7,6 km/h (2 Bft) O 87 ° 0 min 35 W/m² 9,0 °C 13,3 °C 12,9 km/h (3 Bft)
27.03.2024 17:53 21,1 °C 13,9 °C 49 % 72 % 986,1 hPa 0,0 l/m² 7,6 km/h (2 Bft) O 85 ° 0 min 42 W/m² 8,9 °C 13,2 °C 9,7 km/h (2 Bft)
27.03.2024 17:54 21,1 °C 13,9 °C 49 % 72 % 986,1 hPa 0,0 l/m² 7,8 km/h (2 Bft) O-NO 77 ° 0 min 44 W/m² 8,9 °C 13,1 °C 12,9 km/h (3 Bft)
27.03.2024 17:55 21,1 °C 13,9 °C 49 % 73 % 986,1 hPa 0,0 l/m² 7,8 km/h (2 Bft) O 86 ° 0 min 44 W/m² 9,1 °C 13,1 °C 12,9 km/h (3 Bft)
27.03.2024 17:56 21,1 °C 13,9 °C 49 % 73 % 986,2 hPa 0,0 l/m² 5,9 km/h (2 Bft) O-NO 75 ° 0 min 44 W/m² 9,1 °C 13,9 °C 8,0 km/h (2 Bft)
27.03.2024 17:57 21,0 °C 13,9 °C 49 % 73 % 986,2 hPa 0,0 l/m² 5,6 km/h (2 Bft) O 80 ° 0 min 44 W/m² 9,1 °C 13,9 °C 6,4 km/h (2 Bft)
27.03.2024 17:58 21,1 °C 13,9 °C 49 % 73 % 986,3 hPa 0,0 l/m² 6,0 km/h (2 Bft) O 80 ° 0 min 44 W/m² 9,1 °C 13,9 °C 9,7 km/h (2 Bft)
27.03.2024 17:59 21,1 °C 13,9 °C 49 % 73 % 986,2 hPa 0,0 l/m² 5,7 km/h (2 Bft) O-NO 78 ° 0 min 44 W/m² 9,1 °C 13,9 °C 11,3 km/h (2 Bft)
27.03.2024 18:00 21,1 °C 13,9 °C 49 % 73 % 986,1 hPa 0,0 l/m² 7,6 km/h (2 Bft) O 80 ° 0 min 44 W/m² 9,1 °C 13,2 °C 12,9 km/h (3 Bft)
27.03.2024 18:01 21,0 °C 13,9 °C 49 % 73 % 986,2 hPa 0,0 l/m² 4,9 km/h (1 Bft) O 86 ° 0 min 46 W/m² 9,1 °C 13,9 °C 8,0 km/h (2 Bft)
27.03.2024 18:02 21,1 °C 13,9 °C 49 % 73 % 986,1 hPa 0,0 l/m² 7,1 km/h (2 Bft) O 85 ° 0 min 46 W/m² 9,1 °C 13,5 °C 8,0 km/h (2 Bft)
27.03.2024 18:03 21,1 °C 13,9 °C 49 % 73 % 986,1 hPa 0,0 l/m² 7,1 km/h (2 Bft) O-NO 74 ° 0 min 46 W/m² 9,1 °C 13,5 °C 9,7 km/h (2 Bft)
27.03.2024 18:04 21,1 °C 13,9 °C 49 % 73 % 986,1 hPa 0,0 l/m² 5,7 km/h (2 Bft) O 84 ° 0 min 44 W/m² 9,1 °C 13,9 °C 8,0 km/h (2 Bft)
27.03.2024 18:05 21,1 °C 13,9 °C 49 % 74 % 986,1 hPa 0,0 l/m² 7,3 km/h (2 Bft) O-NO 78 ° 0 min 42 W/m² 9,3 °C 13,4 °C 11,3 km/h (2 Bft)
27.03.2024 18:06 21,0 °C 13,8 °C 49 % 74 % 986,1 hPa 0,0 l/m² 7,3 km/h (2 Bft) NO 52 ° 0 min 42 W/m² 9,2 °C 13,3 °C 11,3 km/h (2 Bft)
27.03.2024 18:07 21,1 °C 13,8 °C 49 % 74 % 986,1 hPa 0,0 l/m² 5,0 km/h (1 Bft) O-NO 72 ° 0 min 42 W/m² 9,2 °C 13,8 °C 8,0 km/h (2 Bft)
27.03.2024 18:08 21,0 °C 13,8 °C 49 % 74 % 986,1 hPa 0,0 l/m² 6,4 km/h (2 Bft) O 79 ° 0 min 42 W/m² 9,2 °C 13,8 °C 8,0 km/h (2 Bft)
27.03.2024 18:09 21,1 °C 13,7 °C 49 % 74 % 986,1 hPa 0,0 l/m² 5,8 km/h (2 Bft) O 86 ° 0 min 42 W/m² 9,2 °C 13,7 °C 8,0 km/h (2 Bft)
27.03.2024 18:10 21,0 °C 13,7 °C 49 % 74 % 986,1 hPa 0,0 l/m² 6,0 km/h (2 Bft) O-NO 71 ° 0 min 42 W/m² 9,2 °C 13,7 °C 8,0 km/h (2 Bft)
27.03.2024 18:11 21,1 °C 13,7 °C 49 % 74 % 986,1 hPa 0,0 l/m² 5,3 km/h (1 Bft) O 82 ° 0 min 42 W/m² 9,2 °C 13,7 °C 8,0 km/h (2 Bft)
27.03.2024 18:12 21,0 °C 13,7 °C 49 % 74 % 986,1 hPa 0,0 l/m² 4,7 km/h (1 Bft) O 80 ° 0 min 40 W/m² 9,2 °C 13,7 °C 6,4 km/h (2 Bft)
27.03.2024 18:13 21,0 °C 13,7 °C 49 % 74 % 986,1 hPa 0,0 l/m² 4,4 km/h (1 Bft) O 80 ° 0 min 39 W/m² 9,2 °C 13,7 °C 4,8 km/h (1 Bft)
27.03.2024 18:14 21,0 °C 13,6 °C 49 % 75 % 986,1 hPa 0,0 l/m² 4,3 km/h (1 Bft) O 84 ° 0 min 37 W/m² 9,3 °C 13,6 °C 6,4 km/h (2 Bft)
27.03.2024 18:15 21,0 °C 13,6 °C 49 % 75 % 986,1 hPa 0,0 l/m² 5,7 km/h (2 Bft) O 84 ° 0 min 35 W/m² 9,3 °C 13,6 °C 6,4 km/h (2 Bft)
27.03.2024 18:16 21,0 °C 13,6 °C 49 % 75 % 986,2 hPa 0,0 l/m² 5,2 km/h (1 Bft) O 81 ° 0 min 30 W/m² 9,3 °C 13,6 °C 6,4 km/h (2 Bft)
27.03.2024 18:17 21,0 °C 13,6 °C 49 % 75 % 986,1 hPa 0,0 l/m² 3,9 km/h (1 Bft) O 81 ° 0 min 28 W/m² 9,3 °C 13,6 °C 4,8 km/h (1 Bft)
27.03.2024 18:18 21,0 °C 13,5 °C 49 % 75 % 986,2 hPa 0,0 l/m² 3,3 km/h (1 Bft) O 81 ° 0 min 25 W/m² 9,2 °C 13,5 °C 4,8 km/h (1 Bft)
27.03.2024 18:19 21,0 °C 13,5 °C 49 % 75 % 986,1 hPa 0,0 l/m² 2,3 km/h (1 Bft) O 81 ° 0 min 23 W/m² 9,2 °C 13,5 °C 3,2 km/h (1 Bft)
27.03.2024 18:21 21,1 °C 13,4 °C 49 % 75 % 986,0 hPa 0,0 l/m² 3,1 km/h (1 Bft) O 81 ° 0 min 16 W/m² 9,1 °C 13,4 °C 4,8 km/h (1 Bft)
27.03.2024 18:22 21,1 °C 13,4 °C 49 % 75 % 986,0 hPa 0,0 l/m² 3,5 km/h (1 Bft) O 81 ° 0 min 14 W/m² 9,1 °C 13,4 °C 4,8 km/h (1 Bft)
27.03.2024 18:23 21,0 °C 13,4 °C 49 % 75 % 986,1 hPa 0,0 l/m² 3,5 km/h (1 Bft) O-NO 73 ° 0 min 12 W/m² 9,1 °C 13,4 °C 6,4 km/h (2 Bft)
27.03.2024 18:24 21,0 °C 13,4 °C 49 % 75 % 986,1 hPa 0,0 l/m² 2,7 km/h (1 Bft) O-NO 73 ° 0 min 12 W/m² 9,1 °C 13,4 °C 4,8 km/h (1 Bft)
27.03.2024 18:25 21,1 °C 13,4 °C 49 % 74 % 986,1 hPa 0,0 l/m² 2,3 km/h (1 Bft) NO 51 ° 0 min 11 W/m² 8,9 °C 13,4 °C 4,8 km/h (1 Bft)
27.03.2024 18:26 21,0 °C 13,4 °C 49 % 74 % 986,1 hPa 0,0 l/m² 3,5 km/h (1 Bft) O-NO 64 ° 0 min 11 W/m² 8,9 °C 13,4 °C 6,4 km/h (2 Bft)
27.03.2024 18:27 21,0 °C 13,4 °C 49 % 74 % 986,1 hPa 0,0 l/m² 2,3 km/h (1 Bft) O-NO 64 ° 0 min 9 W/m² 8,9 °C 13,4 °C 4,8 km/h (1 Bft)
27.03.2024 18:28 21,0 °C 13,4 °C 49 % 74 % 986,0 hPa 0,0 l/m² 2,3 km/h (1 Bft) NO 52 ° 0 min 7 W/m² 8,9 °C 13,4 °C 4,8 km/h (1 Bft)
27.03.2024 18:29 21,0 °C 13,5 °C 49 % 74 % 986,0 hPa 0,0 l/m² 0,8 km/h (0 Bft) NO 53 ° 0 min 7 W/m² 9,0 °C 13,5 °C 3,2 km/h (1 Bft)
27.03.2024 18:30 21,0 °C 13,6 °C 49 % 73 % 986,1 hPa 0,0 l/m² 2,6 km/h (1 Bft) O-NO 65 ° 0 min 7 W/m² 8,9 °C 13,6 °C 4,8 km/h (1 Bft)
27.03.2024 18:31 21,0 °C 13,6 °C 49 % 73 % 986,2 hPa 0,0 l/m² 0,1 km/h (0 Bft) O-NO 65 ° 0 min 5 W/m² 8,9 °C 13,6 °C 1,6 km/h (1 Bft)
27.03.2024 18:32 21,0 °C 13,6 °C 49 % 73 % 986,1 hPa 0,0 l/m² 0,0 km/h (0 Bft) O-NO 65 ° 0 min 5 W/m² 8,9 °C 13,6 °C 0,0 km/h (0 Bft)
27.03.2024 18:33 21,0 °C 13,7 °C 49 % 72 % 986,1 hPa 0,0 l/m² 1,1 km/h (1 Bft) NO 38 ° 0 min 0 W/m² 8,7 °C 13,7 °C 3,2 km/h (1 Bft)
27.03.2024 18:34 21,0 °C 13,7 °C 49 % 72 % 986,1 hPa 0,0 l/m² 2,0 km/h (1 Bft) O 82 ° 0 min 0 W/m² 8,7 °C 13,7 °C 4,8 km/h (1 Bft)
27.03.2024 18:35 21,0 °C 13,7 °C 49 % 72 % 986,0 hPa 0,0 l/m² 3,4 km/h (1 Bft) O-NO 61 ° 0 min 0 W/m² 8,7 °C 13,7 °C 4,8 km/h (1 Bft)
27.03.2024 18:36 21,0 °C 13,7 °C 49 % 72 % 986,1 hPa 0,0 l/m² 3,9 km/h (1 Bft) NO 47 ° 0 min 0 W/m² 8,7 °C 13,7 °C 6,4 km/h (2 Bft)
27.03.2024 18:37 21,0 °C 13,6 °C 49 % 72 % 986,1 hPa 0,0 l/m² 4,4 km/h (1 Bft) NO 40 ° 0 min 0 W/m² 8,6 °C 13,6 °C 6,4 km/h (2 Bft)
27.03.2024 18:38 21,0 °C 13,6 °C 49 % 72 % 986,1 hPa 0,0 l/m² 1,7 km/h (1 Bft) NO 38 ° 0 min 0 W/m² 8,6 °C 13,6 °C 3,2 km/h (1 Bft)
27.03.2024 18:39 21,0 °C 13,6 °C 49 % 72 % 986,0 hPa 0,0 l/m² 2,4 km/h (1 Bft) NO 43 ° 0 min 0 W/m² 8,6 °C 13,6 °C 4,8 km/h (1 Bft)
27.03.2024 18:40 21,0 °C 13,6 °C 49 % 72 % 986,0 hPa 0,0 l/m² 1,4 km/h (1 Bft) NO 36 ° 0 min 0 W/m² 8,6 °C 13,6 °C 4,8 km/h (1 Bft)
27.03.2024 18:41 21,0 °C 13,6 °C 49 % 72 % 986,0 hPa 0,0 l/m² 0,1 km/h (0 Bft) NO 36 ° 0 min 0 W/m² 8,6 °C 13,6 °C 1,6 km/h (1 Bft)
27.03.2024 18:42 21,0 °C 13,6 °C 49 % 72 % 985,9 hPa 0,0 l/m² 1,9 km/h (1 Bft) NO 37 ° 0 min 0 W/m² 8,6 °C 13,6 °C 3,2 km/h (1 Bft)
27.03.2024 18:43 21,0 °C 13,7 °C 49 % 72 % 986,0 hPa 0,0 l/m² 1,8 km/h (1 Bft) NO 40 ° 0 min 0 W/m² 8,7 °C 13,7 °C 3,2 km/h (1 Bft)
27.03.2024 18:44 21,0 °C 13,7 °C 49 % 72 % 986,0 hPa 0,0 l/m² 1,9 km/h (1 Bft) NO 41 ° 0 min 0 W/m² 8,7 °C 13,7 °C 3,2 km/h (1 Bft)
27.03.2024 18:46 21,0 °C 13,6 °C 49 % 72 % 986,0 hPa 0,0 l/m² 0,1 km/h (0 Bft) NO 41 ° 0 min 0 W/m² 8,6 °C 13,6 °C 1,6 km/h (1 Bft)
27.03.2024 18:47 21,0 °C 13,6 °C 49 % 72 % 986,0 hPa 0,0 l/m² 0,1 km/h (0 Bft) NO 41 ° 0 min 0 W/m² 8,6 °C 13,6 °C 1,6 km/h (1 Bft)
27.03.2024 18:48 21,0 °C 13,6 °C 49 % 72 % 986,0 hPa 0,0 l/m² 0,2 km/h (0 Bft) NO 41 ° 0 min 0 W/m² 8,6 °C 13,6 °C 1,6 km/h (1 Bft)
27.03.2024 18:49 21,0 °C 13,4 °C 49 % 72 % 986,0 hPa 0,0 l/m² 1,4 km/h (1 Bft) NO 41 ° 0 min 0 W/m² 8,5 °C 13,4 °C 1,6 km/h (1 Bft)
27.03.2024 18:50 21,0 °C 13,4 °C 49 % 72 % 985,9 hPa 0,0 l/m² 2,3 km/h (1 Bft) O-NO 57 ° 0 min 0 W/m² 8,5 °C 13,4 °C 4,8 km/h (1 Bft)
27.03.2024 18:51 21,0 °C 13,3 °C 49 % 72 % 986,0 hPa 0,0 l/m² 1,5 km/h (1 Bft) O-NO 57 ° 0 min 0 W/m² 8,4 °C 13,3 °C 3,2 km/h (1 Bft)
27.03.2024 18:52 21,0 °C 13,2 °C 49 % 73 % 986,0 hPa 0,0 l/m² 0,9 km/h (0 Bft) O-NO 57 ° 0 min 0 W/m² 8,5 °C 13,2 °C 3,2 km/h (1 Bft)
27.03.2024 18:53 21,0 °C 13,0 °C 49 % 74 % 986,0 hPa 0,0 l/m² 0,0 km/h (0 Bft) O-NO 57 ° 0 min 0 W/m² 8,5 °C 13,0 °C 0,0 km/h (0 Bft)
27.03.2024 18:54 20,9 °C 12,8 °C 49 % 75 % 986,0 hPa 0,0 l/m² 0,0 km/h (0 Bft) O-NO 57 ° 0 min 0 W/m² 8,5 °C 12,8 °C 0,0 km/h (0 Bft)
27.03.2024 18:55 21,0 °C 12,6 °C 49 % 76 % 986,0 hPa 0,0 l/m² 0,0 km/h (0 Bft) O-NO 57 ° 0 min 0 W/m² 8,5 °C 12,6 °C 0,0 km/h (0 Bft)
27.03.2024 18:56 20,9 °C 12,4 °C 49 % 77 % 986,1 hPa 0,0 l/m² 0,0 km/h (0 Bft) O-NO 57 ° 0 min 0 W/m² 8,5 °C 12,4 °C 0,0 km/h (0 Bft)
27.03.2024 18:57 21,0 °C 12,2 °C 49 % 78 % 986,0 hPa 0,0 l/m² 0,0 km/h (0 Bft) O-NO 57 ° 0 min 0 W/m² 8,5 °C 12,2 °C 0,0 km/h (0 Bft)
27.03.2024 18:58 20,9 °C 12,1 °C 49 % 79 % 986,0 hPa 0,0 l/m² 0,0 km/h (0 Bft) O-NO 57 ° 0 min 0 W/m² 8,6 °C 12,1 °C 0,0 km/h (0 Bft)
27.03.2024 18:59 20,9 °C 11,9 °C 49 % 79 % 986,0 hPa 0,0 l/m² 0,0 km/h (0 Bft) O-NO 57 ° 0 min 0 W/m² 8,4 °C 11,9 °C 0,0 km/h (0 Bft)
27.03.2024 19:00 20,9 °C 11,8 °C 49 % 80 % 986,1 hPa 0,0 l/m² 0,0 km/h (0 Bft) O-NO 57 ° 0 min 0 W/m² 8,5 °C 11,8 °C 0,0 km/h (0 Bft)
27.03.2024 19:01 20,9 °C 11,8 °C 49 % 80 % 986,0 hPa 0,0 l/m² 0,0 km/h (0 Bft) O-NO 57 ° 0 min 0 W/m² 8,5 °C 11,8 °C 0,0 km/h (0 Bft)
27.03.2024 19:02 21,0 °C 11,7 °C 49 % 81 % 986,1 hPa 0,0 l/m² 0,0 km/h (0 Bft) O-NO 57 ° 0 min 0 W/m² 8,5 °C 11,7 °C 0,0 km/h (0 Bft)
27.03.2024 19:03 20,9 °C 11,7 °C 49 % 81 % 986,0 hPa 0,0 l/m² 0,0 km/h (0 Bft) O-NO 57 ° 0 min 0 W/m² 8,5 °C 11,7 °C 0,0 km/h (0 Bft)
27.03.2024 19:04 21,0 °C 11,7 °C 49 % 81 % 986,0 hPa 0,0 l/m² 0,0 km/h (0 Bft) O-NO 57 ° 0 min 0 W/m² 8,5 °C 11,7 °C 0,0 km/h (0 Bft)
27.03.2024 19:05 20,9 °C 11,7 °C 49 % 81 % 986,0 hPa 0,0 l/m² 0,0 km/h (0 Bft) O-NO 57 ° 0 min 0 W/m² 8,5 °C 11,7 °C 0,0 km/h (0 Bft)
27.03.2024 19:06 20,9 °C 11,7 °C 49 % 81 % 985,9 hPa 0,0 l/m² 0,0 km/h (0 Bft) O-NO 57 ° 0 min 0 W/m² 8,5 °C 11,7 °C 0,0 km/h (0 Bft)
27.03.2024 19:07 20,9 °C 11,7 °C 49 % 81 % 986,0 hPa 0,0 l/m² 0,0 km/h (0 Bft) O-NO 57 ° 0 min 0 W/m² 8,5 °C 11,7 °C 0,0 km/h (0 Bft)
27.03.2024 19:08 20,9 °C 11,7 °C 49 % 81 % 985,9 hPa 0,0 l/m² 0,0 km/h (0 Bft) O-NO 57 ° 0 min 0 W/m² 8,5 °C 11,7 °C 0,0 km/h (0 Bft)
27.03.2024 19:09 20,9 °C 11,7 °C 49 % 81 % 985,9 hPa 0,0 l/m² 0,0 km/h (0 Bft) O-NO 57 ° 0 min 0 W/m² 8,5 °C 11,7 °C 0,0 km/h (0 Bft)
27.03.2024 19:10 20,9 °C 11,7 °C 49 % 81 % 985,9 hPa 0,0 l/m² 0,0 km/h (0 Bft) O-NO 57 ° 0 min 0 W/m² 8,5 °C 11,7 °C 0,0 km/h (0 Bft)
27.03.2024 19:11 20,9 °C 11,6 °C 49 % 81 % 985,9 hPa 0,0 l/m² 0,0 km/h (0 Bft) O-NO 57 ° 0 min 0 W/m² 8,5 °C 11,6 °C 0,0 km/h (0 Bft)
27.03.2024 19:12 20,9 °C 11,6 °C 49 % 81 % 985,9 hPa 0,0 l/m² 0,0 km/h (0 Bft) O-NO 57 ° 0 min 0 W/m² 8,5 °C 11,6 °C 0,0 km/h (0 Bft)
27.03.2024 19:13 20,9 °C 11,6 °C 49 % 81 % 985,9 hPa 0,0 l/m² 0,0 km/h (0 Bft) O-NO 57 ° 0 min 0 W/m² 8,5 °C 11,6 °C 0,0 km/h (0 Bft)
27.03.2024 19:14 20,9 °C 11,6 °C 49 % 81 % 985,8 hPa 0,0 l/m² 0,0 km/h (0 Bft) O-NO 57 ° 0 min 0 W/m² 8,5 °C 11,6 °C 0,0 km/h (0 Bft)
27.03.2024 19:15 20,9 °C 11,5 °C 49 % 81 % 985,8 hPa 0,0 l/m² 0,0 km/h (0 Bft) O-NO 57 ° 0 min 0 W/m² 8,4 °C 11,5 °C 0,0 km/h (0 Bft)
27.03.2024 19:16 20,9 °C 11,4 °C 49 % 81 % 985,9 hPa 0,0 l/m² 0,0 km/h (0 Bft) O-NO 57 ° 0 min 0 W/m² 8,3 °C 11,4 °C 0,0 km/h (0 Bft)
27.03.2024 19:17 20,9 °C 11,4 °C 49 % 81 % 985,9 hPa 0,0 l/m² 0,0 km/h (0 Bft) O-NO 57 ° 0 min 0 W/m² 8,3 °C 11,4 °C 0,0 km/h (0 Bft)
27.03.2024 19:18 20,9 °C 11,3 °C 49 % 81 % 985,9 hPa 0,0 l/m² 0,0 km/h (0 Bft) O-NO 57 ° 0 min 0 W/m² 8,2 °C 11,3 °C 0,0 km/h (0 Bft)
27.03.2024 19:19 20,9 °C 11,3 °C 49 % 81 % 985,9 hPa 0,0 l/m² 0,0 km/h (0 Bft) O-NO 57 ° 0 min 0 W/m² 8,2 °C 11,3 °C 0,0 km/h (0 Bft)
27.03.2024 19:20 20,9 °C 11,3 °C 49 % 81 % 986,0 hPa 0,0 l/m² 0,0 km/h (0 Bft) O-NO 57 ° 0 min 0 W/m² 8,2 °C 11,3 °C 0,0 km/h (0 Bft)
27.03.2024 19:21 20,9 °C 11,2 °C 49 % 81 % 986,0 hPa 0,0 l/m² 0,0 km/h (0 Bft) O-NO 57 ° 0 min 0 W/m² 8,1 °C 11,2 °C 0,0 km/h (0 Bft)
27.03.2024 19:22 20,9 °C 11,2 °C 49 % 81 % 986,0 hPa 0,0 l/m² 0,0 km/h (0 Bft) O-NO 57 ° 0 min 0 W/m² 8,1 °C 11,2 °C 0,0 km/h (0 Bft)
27.03.2024 19:23 20,9 °C 11,2 °C 49 % 81 % 986,0 hPa 0,0 l/m² 0,0 km/h (0 Bft) O-NO 57 ° 0 min 0 W/m² 8,1 °C 11,2 °C 0,0 km/h (0 Bft)
27.03.2024 19:24 20,9 °C 11,2 °C 49 % 81 % 986,0 hPa 0,0 l/m² 0,0 km/h (0 Bft) O-NO 57 ° 0 min 0 W/m² 8,1 °C 11,2 °C 0,0 km/h (0 Bft)
27.03.2024 19:25 20,9 °C 11,2 °C 49 % 81 % 986,0 hPa 0,0 l/m² 0,0 km/h (0 Bft) O-NO 57 ° 0 min 0 W/m² 8,1 °C 11,2 °C 0,0 km/h (0 Bft)
27.03.2024 19:26 20,9 °C 11,0 °C 49 % 81 % 986,0 hPa 0,0 l/m² 0,0 km/h (0 Bft) O-NO 57 ° 0 min 0 W/m² 7,9 °C 11,0 °C 0,0 km/h (0 Bft)
27.03.2024 19:27 20,9 °C 10,8 °C 49 % 81 % 986,1 hPa 0,0 l/m² 0,0 km/h (0 Bft) O-NO 57 ° 0 min 0 W/m² 7,7 °C 10,8 °C 0,0 km/h (0 Bft)
27.03.2024 19:28 20,9 °C 10,6 °C 49 % 82 % 986,1 hPa 0,0 l/m² 0,0 km/h (0 Bft) O-NO 57 ° 0 min 0 W/m² 7,7 °C 10,6 °C 0,0 km/h (0 Bft)
27.03.2024 19:29 20,9 °C 10,4 °C 49 % 83 % 986,0 hPa 0,0 l/m² 0,0 km/h (0 Bft) O-NO 57 ° 0 min 0 W/m² 7,6 °C 10,4 °C 0,0 km/h (0 Bft)
27.03.2024 19:30 20,9 °C 10,3 °C 49 % 84 % 986,0 hPa 0,0 l/m² 0,0 km/h (0 Bft) O-NO 57 ° 0 min 0 W/m² 7,7 °C 10,3 °C 0,0 km/h (0 Bft)
27.03.2024 19:31 20,9 °C 10,2 °C 49 % 84 % 986,0 hPa 0,0 l/m² 0,0 km/h (0 Bft) O-NO 57 ° 0 min 0 W/m² 7,6 °C 10,2 °C 0,0 km/h (0 Bft)
27.03.2024 19:32 20,9 °C 10,2 °C 49 % 84 % 986,0 hPa 0,0 l/m² 0,0 km/h (0 Bft) O-NO 57 ° 0 min 0 W/m² 7,6 °C 10,2 °C 0,0 km/h (0 Bft)
27.03.2024 19:33 20,9 °C 10,2 °C 49 % 85 % 986,0 hPa 0,0 l/m² 0,0 km/h (0 Bft) O-NO 57 ° 0 min 0 W/m² 7,8 °C 10,2 °C 0,0 km/h (0 Bft)
27.03.2024 19:34 20,9 °C 10,2 °C 49 % 85 % 986,0 hPa 0,0 l/m² 0,0 km/h (0 Bft) O-NO 57 ° 0 min 0 W/m² 7,8 °C 10,2 °C 0,0 km/h (0 Bft)
27.03.2024 19:35 20,9 °C 10,2 °C 49 % 85 % 985,9 hPa 0,0 l/m² 0,0 km/h (0 Bft) O-NO 57 ° 0 min 0 W/m² 7,8 °C 10,2 °C 0,0 km/h (0 Bft)
27.03.2024 19:36 20,9 °C 10,2 °C 49 % 85 % 985,9 hPa 0,0 l/m² 0,0 km/h (0 Bft) O-NO 57 ° 0 min 0 W/m² 7,8 °C 10,2 °C 0,0 km/h (0 Bft)
27.03.2024 19:37 20,9 °C 10,2 °C 49 % 85 % 986,0 hPa 0,0 l/m² 0,0 km/h (0 Bft) O-NO 57 ° 0 min 0 W/m² 7,8 °C 10,2 °C 0,0 km/h (0 Bft)
27.03.2024 19:38 20,9 °C 10,3 °C 49 % 85 % 985,9 hPa 0,0 l/m² 0,0 km/h (0 Bft) O-NO 57 ° 0 min 0 W/m² 7,9 °C 10,3 °C 0,0 km/h (0 Bft)
27.03.2024 19:39 20,9 °C 10,3 °C 49 % 85 % 985,9 hPa 0,0 l/m² 0,0 km/h (0 Bft) O-NO 57 ° 0 min 0 W/m² 7,9 °C 10,3 °C 0,0 km/h (0 Bft)
27.03.2024 19:40 20,9 °C 10,3 °C 49 % 86 % 985,9 hPa 0,0 l/m² 0,0 km/h (0 Bft) O-NO 57 ° 0 min 0 W/m² 8,1 °C 10,3 °C 0,0 km/h (0 Bft)
27.03.2024 19:41 20,9 °C 10,3 °C 49 % 85 % 986,0 hPa 0,0 l/m² 0,0 km/h (0 Bft) O-NO 57 ° 0 min 0 W/m² 7,9 °C 10,3 °C 0,0 km/h (0 Bft)
27.03.2024 19:42 20,9 °C 10,3 °C 49 % 85 % 985,9 hPa 0,0 l/m² 0,0 km/h (0 Bft) O-NO 57 ° 0 min 0 W/m² 7,9 °C 10,3 °C 0,0 km/h (0 Bft)
27.03.2024 19:43 20,9 °C 10,3 °C 49 % 86 % 985,9 hPa 0,0 l/m² 0,0 km/h (0 Bft) O-NO 57 ° 0 min 0 W/m² 8,1 °C 10,3 °C 0,0 km/h (0 Bft)
27.03.2024 19:44 20,9 °C 10,3 °C 49 % 86 % 985,9 hPa 0,0 l/m² 0,0 km/h (0 Bft) O-NO 57 ° 0 min 0 W/m² 8,1 °C 10,3 °C 0,0 km/h (0 Bft)
27.03.2024 19:45 20,9 °C 10,3 °C 49 % 86 % 985,9 hPa 0,0 l/m² 0,0 km/h (0 Bft) O-NO 57 ° 0 min 0 W/m² 8,1 °C 10,3 °C 0,0 km/h (0 Bft)
27.03.2024 19:46 20,9 °C 10,3 °C 49 % 86 % 985,9 hPa 0,0 l/m² 0,0 km/h (0 Bft) O-NO 57 ° 0 min 0 W/m² 8,1 °C 10,3 °C 0,0 km/h (0 Bft)
27.03.2024 19:47 20,9 °C 10,3 °C 49 % 85 % 985,9 hPa 0,0 l/m² 0,0 km/h (0 Bft) O-NO 57 ° 0 min 0 W/m² 7,9 °C 10,3 °C 0,0 km/h (0 Bft)
27.03.2024 19:48 20,9 °C 10,3 °C 49 % 85 % 985,8 hPa 0,0 l/m² 0,0 km/h (0 Bft) O-NO 57 ° 0 min 0 W/m² 7,9 °C 10,3 °C 0,0 km/h (0 Bft)
27.03.2024 19:49 20,9 °C 10,3 °C 49 % 85 % 985,8 hPa 0,0 l/m² 0,0 km/h (0 Bft) O-NO 57 ° 0 min 0 W/m² 7,9 °C 10,3 °C 0,0 km/h (0 Bft)
27.03.2024 19:50 20,9 °C 10,2 °C 49 % 85 % 985,8 hPa 0,0 l/m² 0,0 km/h (0 Bft) O-NO 57 ° 0 min 0 W/m² 7,8 °C 10,2 °C 0,0 km/h (0 Bft)
27.03.2024 19:51 20,9 °C 10,2 °C 49 % 85 % 985,8 hPa 0,0 l/m² 0,0 km/h (0 Bft) O-NO 57 ° 0 min 0 W/m² 7,8 °C 10,2 °C 0,0 km/h (0 Bft)
27.03.2024 19:52 20,9 °C 10,3 °C 49 % 85 % 985,8 hPa 0,0 l/m² 0,0 km/h (0 Bft) O-NO 57 ° 0 min 0 W/m² 7,9 °C 10,3 °C 0,0 km/h (0 Bft)
27.03.2024 19:53 20,9 °C 10,2 °C 49 % 85 % 985,8 hPa 0,0 l/m² 0,0 km/h (0 Bft) O-NO 57 ° 0 min 0 W/m² 7,8 °C 10,2 °C 0,0 km/h (0 Bft)
27.03.2024 19:54 20,9 °C 10,2 °C 49 % 85 % 985,8 hPa 0,0 l/m² 0,0 km/h (0 Bft) O-NO 57 ° 0 min 0 W/m² 7,8 °C 10,2 °C 0,0 km/h (0 Bft)
27.03.2024 19:55 20,9 °C 10,2 °C 49 % 85 % 985,8 hPa 0,0 l/m² 0,0 km/h (0 Bft) O-NO 57 ° 0 min 0 W/m² 7,8 °C 10,2 °C 0,0 km/h (0 Bft)
27.03.2024 19:56 20,9 °C 10,2 °C 49 % 85 % 985,8 hPa 0,0 l/m² 0,0 km/h (0 Bft) O-NO 57 ° 0 min 0 W/m² 7,8 °C 10,2 °C 0,0 km/h (0 Bft)
27.03.2024 19:57 20,9 °C 10,2 °C 49 % 85 % 985,8 hPa 0,0 l/m² 0,0 km/h (0 Bft) O-NO 57 ° 0 min 0 W/m² 7,8 °C 10,2 °C 0,0 km/h (0 Bft)
27.03.2024 19:58 20,9 °C 10,2 °C 49 % 85 % 985,7 hPa 0,0 l/m² 0,0 km/h (0 Bft) O-NO 57 ° 0 min 0 W/m² 7,8 °C 10,2 °C 0,0 km/h (0 Bft)
27.03.2024 19:59 20,9 °C 10,2 °C 49 % 85 % 985,8 hPa 0,0 l/m² 0,0 km/h (0 Bft) O-NO 57 ° 0 min 0 W/m² 7,8 °C 10,2 °C 0,0 km/h (0 Bft)
27.03.2024 20:00 20,9 °C 10,2 °C 49 % 85 % 985,8 hPa 0,0 l/m² 0,0 km/h (0 Bft) O-NO 57 ° 0 min 0 W/m² 7,8 °C 10,2 °C 0,0 km/h (0 Bft)
27.03.2024 20:01 20,9 °C 10,1 °C 49 % 85 % 985,8 hPa 0,0 l/m² 0,0 km/h (0 Bft) O-NO 57 ° 0 min 0 W/m² 7,7 °C 10,1 °C 0,0 km/h (0 Bft)
27.03.2024 20:02 20,9 °C 10,0 °C 49 % 85 % 985,8 hPa 0,0 l/m² 0,0 km/h (0 Bft) O-NO 57 ° 0 min 0 W/m² 7,6 °C 10,0 °C 0,0 km/h (0 Bft)
27.03.2024 20:03 20,9 °C 9,8 °C 49 % 84 % 985,8 hPa 0,0 l/m² 0,0 km/h (0 Bft) O-NO 57 ° 0 min 0 W/m² 7,2 °C 9,8 °C 0,0 km/h (0 Bft)
27.03.2024 20:04 20,9 °C 9,5 °C 49 % 84 % 986,0 hPa 0,0 l/m² 0,0 km/h (0 Bft) O-NO 57 ° 0 min 0 W/m² 6,9 °C 9,5 °C 0,0 km/h (0 Bft)
27.03.2024 20:05 20,9 °C 9,2 °C 49 % 84 % 985,9 hPa 0,0 l/m² 0,0 km/h (0 Bft) O-NO 57 ° 0 min 0 W/m² 6,6 °C 9,2 °C 0,0 km/h (0 Bft)
27.03.2024 20:06 20,9 °C 9,1 °C 49 % 85 % 985,9 hPa 0,0 l/m² 0,0 km/h (0 Bft) O-NO 57 ° 0 min 0 W/m² 6,7 °C 9,1 °C 0,0 km/h (0 Bft)
27.03.2024 20:07 20,9 °C 8,9 °C 49 % 85 % 985,9 hPa 0,0 l/m² 0,0 km/h (0 Bft) O-NO 57 ° 0 min 0 W/m² 6,5 °C 8,9 °C 0,0 km/h (0 Bft)
27.03.2024 20:08 20,9 °C 8,9 °C 49 % 86 % 985,9 hPa 0,0 l/m² 0,0 km/h (0 Bft) O-NO 57 ° 0 min 0 W/m² 6,7 °C 8,9 °C 0,0 km/h (0 Bft)
27.03.2024 20:09 20,9 °C 8,9 °C 49 % 87 % 985,8 hPa 0,0 l/m² 0,0 km/h (0 Bft) O-NO 57 ° 0 min 0 W/m² 6,9 °C 8,9 °C 0,0 km/h (0 Bft)
27.03.2024 20:10 20,9 °C 8,9 °C 49 % 87 % 985,8 hPa 0,0 l/m² 0,0 km/h (0 Bft) O-NO 57 ° 0 min 0 W/m² 6,9 °C 8,9 °C 0,0 km/h (0 Bft)
27.03.2024 20:11 20,9 °C 8,9 °C 49 % 88 % 985,7 hPa 0,0 l/m² 0,0 km/h (0 Bft) O-NO 57 ° 0 min 0 W/m² 7,0 °C 8,9 °C 0,0 km/h (0 Bft)
27.03.2024 20:12 20,9 °C 9,0 °C 49 % 88 % 985,8 hPa 0,0 l/m² 0,0 km/h (0 Bft) O-NO 57 ° 0 min 0 W/m² 7,1 °C 9,0 °C 0,0 km/h (0 Bft)
27.03.2024 20:13 20,9 °C 9,1 °C 49 % 88 % 985,7 hPa 0,0 l/m² 0,0 km/h (0 Bft) O-NO 57 ° 0 min 0 W/m² 7,2 °C 9,1 °C 0,0 km/h (0 Bft)
27.03.2024 20:14 20,9 °C 9,1 °C 49 % 89 % 985,8 hPa 0,0 l/m² 0,0 km/h (0 Bft) O-NO 57 ° 0 min 0 W/m² 7,4 °C 9,1 °C 0,0 km/h (0 Bft)
27.03.2024 20:15 20,9 °C 9,1 °C 49 % 89 % 985,8 hPa 0,0 l/m² 0,0 km/h (0 Bft) O-NO 57 ° 0 min 0 W/m² 7,4 °C 9,1 °C 0,0 km/h (0 Bft)
27.03.2024 20:16 20,9 °C 9,1 °C 49 % 89 % 985,7 hPa 0,0 l/m² 0,0 km/h (0 Bft) O-NO 57 ° 0 min 0 W/m² 7,4 °C 9,1 °C 0,0 km/h (0 Bft)
27.03.2024 20:17 20,9 °C 9,1 °C 49 % 89 % 985,7 hPa 0,0 l/m² 0,0 km/h (0 Bft) O-NO 57 ° 0 min 0 W/m² 7,4 °C 9,1 °C 0,0 km/h (0 Bft)
27.03.2024 20:18 20,9 °C 9,2 °C 49 % 89 % 985,8 hPa 0,0 l/m² 0,0 km/h (0 Bft) O-NO 57 ° 0 min 0 W/m² 7,5 °C 9,2 °C 0,0 km/h (0 Bft)
27.03.2024 20:19 20,9 °C 9,2 °C 49 % 89 % 985,7 hPa 0,0 l/m² 0,0 km/h (0 Bft) O-NO 57 ° 0 min 0 W/m² 7,5 °C 9,2 °C 0,0 km/h (0 Bft)
27.03.2024 20:20 20,9 °C 9,2 °C 49 % 89 % 985,7 hPa 0,0 l/m² 0,0 km/h (0 Bft) O-NO 57 ° 0 min 0 W/m² 7,5 °C 9,2 °C 0,0 km/h (0 Bft)
27.03.2024 20:21 20,9 °C 9,2 °C 49 % 88 % 985,7 hPa 0,0 l/m² 0,0 km/h (0 Bft) O-NO 57 ° 0 min 0 W/m² 7,3 °C 9,2 °C 0,0 km/h (0 Bft)
27.03.2024 20:22 20,9 °C 9,1 °C 49 % 88 % 985,8 hPa 0,0 l/m² 0,0 km/h (0 Bft) O-NO 57 ° 0 min 0 W/m² 7,2 °C 9,1 °C 0,0 km/h (0 Bft)
27.03.2024 20:23 20,9 °C 9,1 °C 49 % 88 % 985,8 hPa 0,0 l/m² 0,0 km/h (0 Bft) O-NO 57 ° 0 min 0 W/m² 7,2 °C 9,1 °C 0,0 km/h (0 Bft)
27.03.2024 20:24 20,9 °C 9,1 °C 49 % 88 % 985,8 hPa 0,0 l/m² 0,0 km/h (0 Bft) O-NO 57 ° 0 min 0 W/m² 7,2 °C 9,1 °C 0,0 km/h (0 Bft)
27.03.2024 20:25 20,9 °C 9,0 °C 49 % 88 % 985,8 hPa 0,0 l/m² 0,0 km/h (0 Bft) O-NO 57 ° 0 min 0 W/m² 7,1 °C 9,0 °C 0,0 km/h (0 Bft)
27.03.2024 20:26 20,9 °C 8,9 °C 49 % 88 % 985,8 hPa 0,0 l/m² 0,0 km/h (0 Bft) O-NO 57 ° 0 min 0 W/m² 7,0 °C 8,9 °C 0,0 km/h (0 Bft)
27.03.2024 20:27 20,9 °C 8,9 °C 49 % 88 % 985,7 hPa 0,0 l/m² 0,0 km/h (0 Bft) O-NO 57 ° 0 min 0 W/m² 7,0 °C 8,9 °C 0,0 km/h (0 Bft)
27.03.2024 20:28 20,9 °C 8,9 °C 49 % 88 % 985,8 hPa 0,0 l/m² 0,0 km/h (0 Bft) O-NO 57 ° 0 min 0 W/m² 7,0 °C 8,9 °C 0,0 km/h (0 Bft)
27.03.2024 20:29 20,9 °C 8,9 °C 49 % 88 % 985,8 hPa 0,0 l/m² 0,0 km/h (0 Bft) O-NO 57 ° 0 min 0 W/m² 7,0 °C 8,9 °C 0,0 km/h (0 Bft)
27.03.2024 20:30 20,9 °C 8,8 °C 49 % 88 % 985,8 hPa 0,0 l/m² 0,0 km/h (0 Bft) O-NO 57 ° 0 min 0 W/m² 6,9 °C 8,8 °C 0,0 km/h (0 Bft)
27.03.2024 20:31 20,9 °C 8,8 °C 49 % 88 % 985,8 hPa 0,0 l/m² 0,0 km/h (0 Bft) O-NO 57 ° 0 min 0 W/m² 6,9 °C 8,8 °C 0,0 km/h (0 Bft)
27.03.2024 20:32 20,9 °C 8,6 °C 49 % 88 % 985,9 hPa 0,0 l/m² 0,0 km/h (0 Bft) O-NO 57 ° 0 min 0 W/m² 6,7 °C 8,6 °C 0,0 km/h (0 Bft)
27.03.2024 20:33 20,9 °C 8,6 °C 49 % 88 % 985,9 hPa 0,0 l/m² 0,0 km/h (0 Bft) O-NO 57 ° 0 min 0 W/m² 6,7 °C 8,6 °C 0,0 km/h (0 Bft)
27.03.2024 20:34 20,9 °C 8,4 °C 49 % 88 % 985,9 hPa 0,0 l/m² 0,0 km/h (0 Bft) O-NO 57 ° 0 min 0 W/m² 6,5 °C 8,4 °C 0,0 km/h (0 Bft)
27.03.2024 20:35 20,9 °C 8,3 °C 49 % 88 % 985,8 hPa 0,0 l/m² 0,0 km/h (0 Bft) O-NO 57 ° 0 min 0 W/m² 6,4 °C 8,3 °C 0,0 km/h (0 Bft)
27.03.2024 20:36 20,9 °C 8,3 °C 49 % 88 % 985,9 hPa 0,0 l/m² 0,0 km/h (0 Bft) O-NO 57 ° 0 min 0 W/m² 6,4 °C 8,3 °C 0,0 km/h (0 Bft)
27.03.2024 20:37 20,9 °C 8,3 °C 49 % 88 % 985,9 hPa 0,0 l/m² 0,0 km/h (0 Bft) O-NO 57 ° 0 min 0 W/m² 6,4 °C 8,3 °C 0,0 km/h (0 Bft)
27.03.2024 20:38 20,9 °C 8,3 °C 49 % 88 % 985,8 hPa 0,0 l/m² 0,0 km/h (0 Bft) O-NO 57 ° 0 min 0 W/m² 6,4 °C 8,3 °C 0,0 km/h (0 Bft)
27.03.2024 20:39 20,9 °C 8,2 °C 49 % 88 % 985,8 hPa 0,0 l/m² 0,0 km/h (0 Bft) O-NO 57 ° 0 min 0 W/m² 6,3 °C 8,2 °C 0,0 km/h (0 Bft)
27.03.2024 20:40 20,9 °C 8,2 °C 49 % 88 % 985,9 hPa 0,0 l/m² 0,0 km/h (0 Bft) O-NO 57 ° 0 min 0 W/m² 6,3 °C 8,2 °C 0,0 km/h (0 Bft)
27.03.2024 20:41 20,9 °C 8,1 °C 49 % 88 % 985,9 hPa 0,0 l/m² 0,0 km/h (0 Bft) O-NO 57 ° 0 min 0 W/m² 6,2 °C 8,1 °C 0,0 km/h (0 Bft)
27.03.2024 20:42 20,9 °C 8,1 °C 49 % 89 % 985,8 hPa 0,0 l/m² 0,0 km/h (0 Bft) O-NO 57 ° 0 min 0 W/m² 6,4 °C 8,1 °C 0,0 km/h (0 Bft)
27.03.2024 20:43 20,9 °C 7,9 °C 49 % 89 % 985,8 hPa 0,0 l/m² 0,0 km/h (0 Bft) O-NO 57 ° 0 min 0 W/m² 6,2 °C 7,9 °C 0,0 km/h (0 Bft)
27.03.2024 20:44 20,9 °C 7,9 °C 49 % 88 % 985,7 hPa 0,0 l/m² 0,0 km/h (0 Bft) O-NO 57 ° 0 min 0 W/m² 6,0 °C 7,9 °C 0,0 km/h (0 Bft)
27.03.2024 20:45 20,9 °C 7,9 °C 49 % 89 % 985,8 hPa 0,0 l/m² 0,0 km/h (0 Bft) O-NO 57 ° 0 min 0 W/m² 6,2 °C 7,9 °C 0,0 km/h (0 Bft)
27.03.2024 20:46 20,9 °C 7,9 °C 49 % 89 % 985,8 hPa 0,0 l/m² 0,0 km/h (0 Bft) O-NO 57 ° 0 min 0 W/m² 6,2 °C 7,9 °C 0,0 km/h (0 Bft)
27.03.2024 20:47 20,9 °C 7,9 °C 49 % 89 % 985,8 hPa 0,0 l/m² 0,0 km/h (0 Bft) O-NO 57 ° 0 min 0 W/m² 6,2 °C 7,9 °C 0,0 km/h (0 Bft)
27.03.2024 20:48 20,9 °C 7,9 °C 49 % 89 % 985,8 hPa 0,0 l/m² 0,0 km/h (0 Bft) O-NO 57 ° 0 min 0 W/m² 6,2 °C 7,9 °C 0,0 km/h (0 Bft)
27.03.2024 20:49 20,9 °C 7,9 °C 49 % 89 % 985,8 hPa 0,0 l/m² 0,0 km/h (0 Bft) O-NO 57 ° 0 min 0 W/m² 6,2 °C 7,9 °C 0,0 km/h (0 Bft)
27.03.2024 20:50 20,9 °C 7,9 °C 49 % 89 % 985,8 hPa 0,0 l/m² 0,0 km/h (0 Bft) O-NO 57 ° 0 min 0 W/m² 6,2 °C 7,9 °C 0,0 km/h (0 Bft)
27.03.2024 20:51 21,0 °C 7,9 °C 49 % 90 % 985,8 hPa 0,0 l/m² 0,0 km/h (0 Bft) O-NO 57 ° 0 min 0 W/m² 6,4 °C 7,9 °C 0,0 km/h (0 Bft)
27.03.2024 20:52 20,9 °C 7,9 °C 49 % 90 % 985,8 hPa 0,0 l/m² 0,0 km/h (0 Bft) O-NO 57 ° 0 min 0 W/m² 6,4 °C 7,9 °C 0,0 km/h (0 Bft)
27.03.2024 20:53 21,0 °C 7,9 °C 49 % 90 % 985,8 hPa 0,0 l/m² 0,0 km/h (0 Bft) O-NO 57 ° 0 min 0 W/m² 6,4 °C 7,9 °C 0,0 km/h (0 Bft)
27.03.2024 20:54 21,0 °C 7,9 °C 49 % 90 % 985,8 hPa 0,0 l/m² 0,0 km/h (0 Bft) O-NO 57 ° 0 min 0 W/m² 6,4 °C 7,9 °C 0,0 km/h (0 Bft)
27.03.2024 20:55 20,9 °C 7,9 °C 49 % 90 % 985,7 hPa 0,0 l/m² 0,0 km/h (0 Bft) O-NO 57 ° 0 min 0 W/m² 6,4 °C 7,9 °C 0,0 km/h (0 Bft)
27.03.2024 20:56 21,0 °C 8,0 °C 49 % 90 % 985,8 hPa 0,0 l/m² 0,0 km/h (0 Bft) O-NO 57 ° 0 min 0 W/m² 6,5 °C 8,0 °C 0,0 km/h (0 Bft)
27.03.2024 20:57 21,0 °C 8,0 °C 49 % 90 % 985,8 hPa 0,0 l/m² 0,0 km/h (0 Bft) O-NO 57 ° 0 min 0 W/m² 6,5 °C 8,0 °C 0,0 km/h (0 Bft)
27.03.2024 20:58 20,9 °C 8,1 °C 49 % 90 % 985,8 hPa 0,0 l/m² 0,0 km/h (0 Bft) O-NO 57 ° 0 min 0 W/m² 6,6 °C 8,1 °C 0,0 km/h (0 Bft)
27.03.2024 20:59 21,0 °C 8,1 °C 49 % 90 % 985,8 hPa 0,0 l/m² 0,0 km/h (0 Bft) O-NO 57 ° 0 min 0 W/m² 6,6 °C 8,1 °C 0,0 km/h (0 Bft)
27.03.2024 21:00 20,9 °C 8,1 °C 49 % 90 % 985,7 hPa 0,0 l/m² 0,0 km/h (0 Bft) O-NO 57 ° 0 min 0 W/m² 6,6 °C 8,1 °C 0,0 km/h (0 Bft)
27.03.2024 21:01 21,0 °C 8,1 °C 49 % 90 % 985,8 hPa 0,0 l/m² 0,0 km/h (0 Bft) O-NO 57 ° 0 min 0 W/m² 6,6 °C 8,1 °C 0,0 km/h (0 Bft)
27.03.2024 21:02 21,0 °C 8,1 °C 49 % 90 % 985,7 hPa 0,0 l/m² 0,0 km/h (0 Bft) O-NO 57 ° 0 min 0 W/m² 6,6 °C 8,1 °C 0,0 km/h (0 Bft)
27.03.2024 21:03 21,0 °C 8,1 °C 49 % 90 % 985,7 hPa 0,0 l/m² 0,0 km/h (0 Bft) O-NO 57 ° 0 min 0 W/m² 6,6 °C 8,1 °C 0,0 km/h (0 Bft)
27.03.2024 21:04 21,0 °C 8,1 °C 49 % 90 % 985,7 hPa 0,0 l/m² 0,0 km/h (0 Bft) O-NO 57 ° 0 min 0 W/m² 6,6 °C 8,1 °C 0,0 km/h (0 Bft)
27.03.2024 21:05 20,9 °C 8,1 °C 49 % 90 % 985,6 hPa 0,0 l/m² 0,0 km/h (0 Bft) O-NO 57 ° 0 min 0 W/m² 6,6 °C 8,1 °C 0,0 km/h (0 Bft)
27.03.2024 21:06 20,9 °C 8,1 °C 49 % 90 % 985,6 hPa 0,0 l/m² 0,0 km/h (0 Bft) O-NO 57 ° 0 min 0 W/m² 6,6 °C 8,1 °C 0,0 km/h (0 Bft)
27.03.2024 21:07 21,0 °C 8,0 °C 49 % 90 % 985,6 hPa 0,0 l/m² 0,0 km/h (0 Bft) O-NO 57 ° 0 min 0 W/m² 6,5 °C 8,0 °C 0,0 km/h (0 Bft)
27.03.2024 21:08 21,0 °C 7,9 °C 49 % 90 % 985,7 hPa 0,0 l/m² 0,0 km/h (0 Bft) O-NO 57 ° 0 min 0 W/m² 6,4 °C 7,9 °C 0,0 km/h (0 Bft)
27.03.2024 21:09 21,0 °C 7,8 °C 49 % 89 % 985,6 hPa 0,0 l/m² 0,0 km/h (0 Bft) O-NO 57 ° 0 min 0 W/m² 6,1 °C 7,8 °C 0,0 km/h (0 Bft)
27.03.2024 21:10 21,0 °C 7,7 °C 49 % 89 % 985,6 hPa 0,0 l/m² 0,0 km/h (0 Bft) O-NO 57 ° 0 min 0 W/m² 6,0 °C 7,7 °C 0,0 km/h (0 Bft)
27.03.2024 21:11 21,0 °C 7,6 °C 49 % 89 % 985,6 hPa 0,0 l/m² 0,0 km/h (0 Bft) O-NO 57 ° 0 min 0 W/m² 5,9 °C 7,6 °C 0,0 km/h (0 Bft)
27.03.2024 21:12 21,0 °C 7,4 °C 49 % 89 % 985,6 hPa 0,0 l/m² 0,5 km/h (0 Bft) O-SO 113 ° 0 min 0 W/m² 5,7 °C 7,4 °C 3,2 km/h (1 Bft)
27.03.2024 21:13 21,0 °C 7,3 °C 49 % 89 % 985,5 hPa 0,0 l/m² 3,0 km/h (1 Bft) SO 128 ° 0 min 0 W/m² 5,6 °C 7,3 °C 4,8 km/h (1 Bft)
27.03.2024 21:14 21,0 °C 7,3 °C 49 % 89 % 985,6 hPa 0,0 l/m² 2,8 km/h (1 Bft) SO 132 ° 0 min 0 W/m² 5,6 °C 7,3 °C 4,8 km/h (1 Bft)
27.03.2024 21:15 21,0 °C 7,3 °C 49 % 90 % 985,5 hPa 0,0 l/m² 1,4 km/h (1 Bft) SO 132 ° 0 min 0 W/m² 5,8 °C 7,3 °C 3,2 km/h (1 Bft)
27.03.2024 21:16 21,0 °C 7,3 °C 49 % 90 % 985,6 hPa 0,0 l/m² 1,0 km/h (0 Bft) SO 133 ° 0 min 0 W/m² 5,8 °C 7,3 °C 1,6 km/h (1 Bft)
27.03.2024 21:17 21,0 °C 7,3 °C 49 % 91 % 985,5 hPa 0,0 l/m² 0,0 km/h (0 Bft) SO 133 ° 0 min 0 W/m² 5,9 °C 7,3 °C 0,0 km/h (0 Bft)
27.03.2024 21:18 21,0 °C 7,4 °C 49 % 91 % 985,5 hPa 0,0 l/m² 0,0 km/h (0 Bft) SO 133 ° 0 min 0 W/m² 6,0 °C 7,4 °C 0,0 km/h (0 Bft)
27.03.2024 21:19 21,0 °C 7,4 °C 49 % 91 % 985,5 hPa 0,0 l/m² 0,1 km/h (0 Bft) SO 133 ° 0 min 0 W/m² 6,0 °C 7,4 °C 1,6 km/h (1 Bft)
27.03.2024 21:20 21,0 °C 7,4 °C 49 % 91 % 985,6 hPa 0,0 l/m² 0,0 km/h (0 Bft) SO 133 ° 0 min 0 W/m² 6,0 °C 7,4 °C 0,0 km/h (0 Bft)
27.03.2024 21:21 21,0 °C 7,4 °C 49 % 91 % 985,5 hPa 0,0 l/m² 0,0 km/h (0 Bft) SO 133 ° 0 min 0 W/m² 6,0 °C 7,4 °C 0,0 km/h (0 Bft)
27.03.2024 21:22 21,0 °C 7,4 °C 49 % 91 % 985,5 hPa 0,0 l/m² 0,0 km/h (0 Bft) SO 133 ° 0 min 0 W/m² 6,0 °C 7,4 °C 0,0 km/h (0 Bft)
27.03.2024 21:23 21,0 °C 7,4 °C 49 % 91 % 985,5 hPa 0,0 l/m² 0,0 km/h (0 Bft) SO 132 ° 0 min 0 W/m² 6,0 °C 7,4 °C 0,0 km/h (0 Bft)
27.03.2024 21:24 21,0 °C 7,4 °C 49 % 91 % 985,5 hPa 0,0 l/m² 0,0 km/h (0 Bft) SO 133 ° 0 min 0 W/m² 6,0 °C 7,4 °C 0,0 km/h (0 Bft)
27.03.2024 21:25 21,0 °C 7,4 °C 49 % 91 % 985,5 hPa 0,0 l/m² 0,0 km/h (0 Bft) SO 133 ° 0 min 0 W/m² 6,0 °C 7,4 °C 0,0 km/h (0 Bft)
27.03.2024 21:26 21,0 °C 7,4 °C 49 % 91 % 985,5 hPa 0,0 l/m² 0,0 km/h (0 Bft) SO 133 ° 0 min 0 W/m² 6,0 °C 7,4 °C 0,0 km/h (0 Bft)
27.03.2024 21:27 21,0 °C 7,4 °C 49 % 91 % 985,5 hPa 0,0 l/m² 0,0 km/h (0 Bft) SO 132 ° 0 min 0 W/m² 6,0 °C 7,4 °C 0,0 km/h (0 Bft)
27.03.2024 21:28 21,0 °C 7,5 °C 49 % 91 % 985,5 hPa 0,0 l/m² 0,0 km/h (0 Bft) SO 133 ° 0 min 0 W/m² 6,1 °C 7,5 °C 0,0 km/h (0 Bft)
27.03.2024 21:29 21,0 °C 7,6 °C 49 % 91 % 985,5 hPa 0,0 l/m² 0,0 km/h (0 Bft) SO 133 ° 0 min 0 W/m² 6,2 °C 7,6 °C 0,0 km/h (0 Bft)
27.03.2024 21:30 21,0 °C 7,6 °C 49 % 91 % 985,4 hPa 0,0 l/m² 0,0 km/h (0 Bft) SO 133 ° 0 min 0 W/m² 6,2 °C 7,6 °C 0,0 km/h (0 Bft)
27.03.2024 21:31 21,0 °C 7,6 °C 49 % 91 % 985,5 hPa 0,0 l/m² 0,0 km/h (0 Bft) SO 133 ° 0 min 0 W/m² 6,2 °C 7,6 °C 0,0 km/h (0 Bft)
27.03.2024 21:32 21,0 °C 7,6 °C 49 % 91 % 985,5 hPa 0,0 l/m² 0,0 km/h (0 Bft) SO 133 ° 0 min 0 W/m² 6,2 °C 7,6 °C 0,0 km/h (0 Bft)
27.03.2024 21:33 21,0 °C 7,6 °C 49 % 91 % 985,5 hPa 0,0 l/m² 0,0 km/h (0 Bft) SO 133 ° 0 min 0 W/m² 6,2 °C 7,6 °C 0,0 km/h (0 Bft)
27.03.2024 21:34 21,0 °C 7,6 °C 49 % 91 % 985,5 hPa 0,0 l/m² 0,0 km/h (0 Bft) SO 133 ° 0 min 0 W/m² 6,2 °C 7,6 °C 0,0 km/h (0 Bft)
27.03.2024 21:35 21,0 °C 7,7 °C 49 % 91 % 985,4 hPa 0,0 l/m² 0,0 km/h (0 Bft) SO 133 ° 0 min 0 W/m² 6,3 °C 7,7 °C 0,0 km/h (0 Bft)
27.03.2024 21:36 21,0 °C 7,7 °C 49 % 91 % 985,4 hPa 0,0 l/m² 0,0 km/h (0 Bft) SO 133 ° 0 min 0 W/m² 6,3 °C 7,7 °C 0,0 km/h (0 Bft)
27.03.2024 21:37 21,0 °C 7,7 °C 49 % 91 % 985,4 hPa 0,0 l/m² 0,0 km/h (0 Bft) SO 133 ° 0 min 0 W/m² 6,3 °C 7,7 °C 0,0 km/h (0 Bft)
27.03.2024 21:38 21,0 °C 7,7 °C 49 % 91 % 985,4 hPa 0,0 l/m² 0,0 km/h (0 Bft) SO 133 ° 0 min 0 W/m² 6,3 °C 7,7 °C 0,0 km/h (0 Bft)
27.03.2024 21:39 21,0 °C 7,7 °C 49 % 91 % 985,4 hPa 0,0 l/m² 0,0 km/h (0 Bft) SO 133 ° 0 min 0 W/m² 6,3 °C 7,7 °C 0,0 km/h (0 Bft)
27.03.2024 21:40 21,0 °C 7,7 °C 49 % 91 % 985,3 hPa 0,0 l/m² 0,0 km/h (0 Bft) SO 133 ° 0 min 0 W/m² 6,3 °C 7,7 °C 0,0 km/h (0 Bft)
27.03.2024 21:41 21,0 °C 7,7 °C 49 % 91 % 985,4 hPa 0,0 l/m² 0,0 km/h (0 Bft) SO 133 ° 0 min 0 W/m² 6,3 °C 7,7 °C 0,0 km/h (0 Bft)
27.03.2024 21:42 21,0 °C 7,7 °C 49 % 91 % 985,4 hPa 0,0 l/m² 0,0 km/h (0 Bft) SO 133 ° 0 min 0 W/m² 6,3 °C 7,7 °C 0,0 km/h (0 Bft)
27.03.2024 21:43 21,0 °C 7,7 °C 49 % 91 % 985,4 hPa 0,0 l/m² 0,0 km/h (0 Bft) SO 133 ° 0 min 0 W/m² 6,3 °C 7,7 °C 0,0 km/h (0 Bft)
27.03.2024 21:45 21,0 °C 7,7 °C 49 % 91 % 985,4 hPa 0,0 l/m² 0,0 km/h (0 Bft) SO 133 ° 0 min 0 W/m² 6,3 °C 7,7 °C 0,0 km/h (0 Bft)
27.03.2024 21:46 21,0 °C 7,6 °C 49 % 91 % 985,4 hPa 0,0 l/m² 0,0 km/h (0 Bft) SO 133 ° 0 min 0 W/m² 6,2 °C 7,6 °C 0,0 km/h (0 Bft)
27.03.2024 21:47 21,0 °C 7,6 °C 49 % 90 % 985,4 hPa 0,0 l/m² 0,0 km/h (0 Bft) SO 133 ° 0 min 0 W/m² 6,1 °C 7,6 °C 0,0 km/h (0 Bft)
27.03.2024 21:48 21,0 °C 7,4 °C 49 % 90 % 985,4 hPa 0,0 l/m² 0,0 km/h (0 Bft) SO 133 ° 0 min 0 W/m² 5,9 °C 7,4 °C 0,0 km/h (0 Bft)
27.03.2024 21:49 21,0 °C 7,4 °C 49 % 90 % 985,4 hPa 0,0 l/m² 0,0 km/h (0 Bft) SO 133 ° 0 min 0 W/m² 5,9 °C 7,4 °C 0,0 km/h (0 Bft)
27.03.2024 21:50 21,0 °C 7,4 °C 49 % 91 % 985,3 hPa 0,0 l/m² 0,0 km/h (0 Bft) SO 133 ° 0 min 0 W/m² 6,0 °C 7,4 °C 0,0 km/h (0 Bft)
27.03.2024 21:51 21,0 °C 7,4 °C 49 % 91 % 985,4 hPa 0,0 l/m² 0,0 km/h (0 Bft) SO 133 ° 0 min 0 W/m² 6,0 °C 7,4 °C 0,0 km/h (0 Bft)
27.03.2024 21:52 21,0 °C 7,4 °C 49 % 91 % 985,4 hPa 0,0 l/m² 0,0 km/h (0 Bft) SO 133 ° 0 min 0 W/m² 6,0 °C 7,4 °C 0,0 km/h (0 Bft)
27.03.2024 21:53 21,0 °C 7,4 °C 49 % 91 % 985,4 hPa 0,0 l/m² 0,0 km/h (0 Bft) SO 133 ° 0 min 0 W/m² 6,0 °C 7,4 °C 0,0 km/h (0 Bft)
27.03.2024 21:54 21,0 °C 7,4 °C 49 % 91 % 985,3 hPa 0,0 l/m² 0,0 km/h (0 Bft) SO 133 ° 0 min 0 W/m² 6,0 °C 7,4 °C 0,0 km/h (0 Bft)
27.03.2024 21:55 21,0 °C 7,4 °C 49 % 91 % 985,3 hPa 0,0 l/m² 0,0 km/h (0 Bft) SO 133 ° 0 min 0 W/m² 6,0 °C 7,4 °C 0,0 km/h (0 Bft)
27.03.2024 21:56 21,0 °C 7,4 °C 49 % 91 % 985,3 hPa 0,0 l/m² 0,0 km/h (0 Bft) SO 133 ° 0 min 0 W/m² 6,0 °C 7,4 °C 0,0 km/h (0 Bft)
27.03.2024 21:57 21,0 °C 7,5 °C 49 % 91 % 985,3 hPa 0,0 l/m² 0,0 km/h (0 Bft) SO 133 ° 0 min 0 W/m² 6,1 °C 7,5 °C 0,0 km/h (0 Bft)
27.03.2024 21:58 21,1 °C 7,5 °C 49 % 91 % 985,3 hPa 0,0 l/m² 0,0 km/h (0 Bft) SO 133 ° 0 min 0 W/m² 6,1 °C 7,5 °C 0,0 km/h (0 Bft)
27.03.2024 21:59 21,1 °C 7,6 °C 49 % 91 % 985,3 hPa 0,0 l/m² 0,0 km/h (0 Bft) SO 133 ° 0 min 0 W/m² 6,2 °C 7,6 °C 0,0 km/h (0 Bft)
27.03.2024 22:00 21,1 °C 7,6 °C 49 % 91 % 985,2 hPa 0,0 l/m² 0,0 km/h (0 Bft) SO 133 ° 0 min 0 W/m² 6,2 °C 7,6 °C 0,0 km/h (0 Bft)
27.03.2024 22:01 21,0 °C 7,6 °C 49 % 91 % 985,2 hPa 0,0 l/m² 0,0 km/h (0 Bft) SO 133 ° 0 min 0 W/m² 6,2 °C 7,6 °C 0,0 km/h (0 Bft)
27.03.2024 22:02 21,0 °C 7,6 °C 49 % 91 % 985,2 hPa 0,0 l/m² 0,0 km/h (0 Bft) SO 133 ° 0 min 0 W/m² 6,2 °C 7,6 °C 0,0 km/h (0 Bft)
27.03.2024 22:03 21,0 °C 7,6 °C 49 % 91 % 985,1 hPa 0,0 l/m² 0,0 km/h (0 Bft) SO 133 ° 0 min 0 W/m² 6,2 °C 7,6 °C 0,0 km/h (0 Bft)
27.03.2024 22:04 21,0 °C 7,6 °C 49 % 91 % 985,1 hPa 0,0 l/m² 0,0 km/h (0 Bft) SO 133 ° 0 min 0 W/m² 6,2 °C 7,6 °C 0,0 km/h (0 Bft)
27.03.2024 22:05 21,0 °C 7,6 °C 49 % 91 % 985,1 hPa 0,0 l/m² 0,0 km/h (0 Bft) SO 133 ° 0 min 0 W/m² 6,2 °C 7,6 °C 0,0 km/h (0 Bft)
27.03.2024 22:06 21,0 °C 7,6 °C 49 % 91 % 985,0 hPa 0,0 l/m² 0,0 km/h (0 Bft) SO 133 ° 0 min 0 W/m² 6,2 °C 7,6 °C 0,0 km/h (0 Bft)
27.03.2024 22:07 21,0 °C 7,6 °C 49 % 90 % 985,0 hPa 0,0 l/m² 0,0 km/h (0 Bft) SO 133 ° 0 min 0 W/m² 6,1 °C 7,6 °C 0,0 km/h (0 Bft)
27.03.2024 22:08 21,0 °C 7,6 °C 49 % 90 % 985,0 hPa 0,0 l/m² 0,0 km/h (0 Bft) SO 133 ° 0 min 0 W/m² 6,1 °C 7,6 °C 0,0 km/h (0 Bft)
27.03.2024 22:09 21,1 °C 7,5 °C 49 % 90 % 985,0 hPa 0,0 l/m² 0,0 km/h (0 Bft) SO 132 ° 0 min 0 W/m² 6,0 °C 7,5 °C 0,0 km/h (0 Bft)
27.03.2024 22:10 21,0 °C 7,5 °C 49 % 91 % 985,1 hPa 0,0 l/m² 0,0 km/h (0 Bft) SO 133 ° 0 min 0 W/m² 6,1 °C 7,5 °C 0,0 km/h (0 Bft)
27.03.2024 22:11 21,0 °C 7,5 °C 49 % 91 % 984,9 hPa 0,0 l/m² 0,0 km/h (0 Bft) SO 133 ° 0 min 0 W/m² 6,1 °C 7,5 °C 0,0 km/h (0 Bft)
27.03.2024 22:12 21,0 °C 7,5 °C 49 % 91 % 985,0 hPa 0,0 l/m² 0,0 km/h (0 Bft) SO 133 ° 0 min 0 W/m² 6,1 °C 7,5 °C 0,0 km/h (0 Bft)
27.03.2024 22:13 21,0 °C 7,4 °C 49 % 91 % 984,9 hPa 0,0 l/m² 0,0 km/h (0 Bft) SO 133 ° 0 min 0 W/m² 6,0 °C 7,4 °C 0,0 km/h (0 Bft)
27.03.2024 22:14 21,0 °C 7,4 °C 49 % 91 % 984,9 hPa 0,0 l/m² 0,0 km/h (0 Bft) SO 133 ° 0 min 0 W/m² 6,0 °C 7,4 °C 0,0 km/h (0 Bft)
27.03.2024 22:15 21,0 °C 7,4 °C 49 % 91 % 984,9 hPa 0,0 l/m² 0,0 km/h (0 Bft) SO 133 ° 0 min 0 W/m² 6,0 °C 7,4 °C 0,0 km/h (0 Bft)
27.03.2024 22:16 21,0 °C 7,4 °C 49 % 91 % 984,9 hPa 0,0 l/m² 0,0 km/h (0 Bft) SO 133 ° 0 min 0 W/m² 6,0 °C 7,4 °C 0,0 km/h (0 Bft)
27.03.2024 22:17 21,0 °C 7,4 °C 49 % 91 % 985,0 hPa 0,0 l/m² 0,0 km/h (0 Bft) SO 132 ° 0 min 0 W/m² 6,0 °C 7,4 °C 0,0 km/h (0 Bft)
27.03.2024 22:18 21,0 °C 7,3 °C 49 % 91 % 984,9 hPa 0,0 l/m² 0,0 km/h (0 Bft) SO 132 ° 0 min 0 W/m² 5,9 °C 7,3 °C 0,0 km/h (0 Bft)
27.03.2024 22:19 21,0 °C 7,4 °C 49 % 91 % 985,0 hPa 0,0 l/m² 0,0 km/h (0 Bft) SO 133 ° 0 min 0 W/m² 6,0 °C 7,4 °C 0,0 km/h (0 Bft)
27.03.2024 22:20 21,0 °C 7,4 °C 49 % 91 % 985,0 hPa 0,0 l/m² 0,0 km/h (0 Bft) SO 133 ° 0 min 0 W/m² 6,0 °C 7,4 °C 0,0 km/h (0 Bft)
27.03.2024 22:21 21,0 °C 7,4 °C 49 % 91 % 985,0 hPa 0,0 l/m² 0,0 km/h (0 Bft) SO 132 ° 0 min 0 W/m² 6,0 °C 7,4 °C 0,0 km/h (0 Bft)
27.03.2024 22:22 21,0 °C 7,4 °C 49 % 91 % 985,0 hPa 0,0 l/m² 0,0 km/h (0 Bft) SO 133 ° 0 min 0 W/m² 6,0 °C 7,4 °C 0,0 km/h (0 Bft)
27.03.2024 22:23 21,0 °C 7,4 °C 49 % 91 % 984,9 hPa 0,0 l/m² 0,0 km/h (0 Bft) SO 133 ° 0 min 0 W/m² 6,0 °C 7,4 °C 0,0 km/h (0 Bft)
27.03.2024 22:24 21,0 °C 7,3 °C 49 % 91 % 985,0 hPa 0,0 l/m² 0,0 km/h (0 Bft) SO 133 ° 0 min 0 W/m² 5,9 °C 7,3 °C 0,0 km/h (0 Bft)
27.03.2024 22:25 21,0 °C 7,3 °C 49 % 91 % 984,9 hPa 0,0 l/m² 0,0 km/h (0 Bft) SO 132 ° 0 min 0 W/m² 5,9 °C 7,3 °C 0,0 km/h (0 Bft)
27.03.2024 22:26 21,1 °C 7,2 °C 49 % 90 % 984,9 hPa 0,0 l/m² 0,8 km/h (0 Bft) SO 133 ° 0 min 0 W/m² 5,7 °C 7,2 °C 3,2 km/h (1 Bft)
27.03.2024 22:27 21,0 °C 7,1 °C 49 % 90 % 985,0 hPa 0,0 l/m² 2,1 km/h (1 Bft) SO 133 ° 0 min 0 W/m² 5,6 °C 7,1 °C 3,2 km/h (1 Bft)
27.03.2024 22:28 21,0 °C 7,1 °C 49 % 91 % 984,9 hPa 0,0 l/m² 0,7 km/h (0 Bft) SO 133 ° 0 min 0 W/m² 5,7 °C 7,1 °C 1,6 km/h (1 Bft)
27.03.2024 22:29 21,0 °C 7,1 °C 49 % 91 % 984,9 hPa 0,0 l/m² 0,5 km/h (0 Bft) SO 133 ° 0 min 0 W/m² 5,7 °C 7,1 °C 1,6 km/h (1 Bft)
27.03.2024 22:30 21,0 °C 7,1 °C 49 % 91 % 984,9 hPa 0,0 l/m² 0,3 km/h (0 Bft) SO 133 ° 0 min 0 W/m² 5,7 °C 7,1 °C 1,6 km/h (1 Bft)
27.03.2024 22:31 21,0 °C 7,1 °C 49 % 91 % 984,9 hPa 0,0 l/m² 2,0 km/h (1 Bft) S-SO 148 ° 0 min 0 W/m² 5,7 °C 7,1 °C 3,2 km/h (1 Bft)
27.03.2024 22:32 21,0 °C 7,1 °C 49 % 91 % 984,9 hPa 0,0 l/m² 2,8 km/h (1 Bft) S-SW 199 ° 0 min 0 W/m² 5,7 °C 7,1 °C 4,8 km/h (1 Bft)
27.03.2024 22:33 21,0 °C 7,1 °C 49 % 91 % 984,8 hPa 0,0 l/m² 2,9 km/h (1 Bft) S-SW 200 ° 0 min 0 W/m² 5,7 °C 7,1 °C 4,8 km/h (1 Bft)
27.03.2024 22:34 21,0 °C 7,1 °C 49 % 91 % 984,9 hPa 0,0 l/m² 3,0 km/h (1 Bft) S-SW 212 ° 0 min 0 W/m² 5,7 °C 7,1 °C 4,8 km/h (1 Bft)
27.03.2024 22:35 21,1 °C 7,0 °C 49 % 91 % 984,9 hPa 0,0 l/m² 1,3 km/h (1 Bft) S-SW 212 ° 0 min 0 W/m² 5,6 °C 7,0 °C 3,2 km/h (1 Bft)
27.03.2024 22:36 21,0 °C 6,9 °C 49 % 91 % 984,9 hPa 0,0 l/m² 0,1 km/h (0 Bft) S-SW 212 ° 0 min 0 W/m² 5,5 °C 6,9 °C 1,6 km/h (1 Bft)
27.03.2024 22:37 21,0 °C 6,9 °C 49 % 91 % 984,9 hPa 0,0 l/m² 0,0 km/h (0 Bft) S-SW 212 ° 0 min 0 W/m² 5,5 °C 6,9 °C 0,0 km/h (0 Bft)
27.03.2024 22:38 21,0 °C 6,9 °C 49 % 91 % 984,9 hPa 0,0 l/m² 0,0 km/h (0 Bft) S-SW 212 ° 0 min 0 W/m² 5,5 °C 6,9 °C 0,0 km/h (0 Bft)
27.03.2024 22:39 21,0 °C 6,8 °C 49 % 91 % 985,0 hPa 0,0 l/m² 1,0 km/h (0 Bft) S-SW 212 ° 0 min 0 W/m² 5,4 °C 6,8 °C 3,2 km/h (1 Bft)
27.03.2024 22:40 21,0 °C 6,8 °C 49 % 91 % 985,0 hPa 0,0 l/m² 0,1 km/h (0 Bft) S-SW 212 ° 0 min 0 W/m² 5,4 °C 6,8 °C 1,6 km/h (1 Bft)
27.03.2024 22:41 21,1 °C 6,7 °C 49 % 91 % 984,8 hPa 0,0 l/m² 0,5 km/h (0 Bft) S-SW 212 ° 0 min 0 W/m² 5,3 °C 6,7 °C 1,6 km/h (1 Bft)
27.03.2024 22:42 21,0 °C 6,4 °C 49 % 90 % 984,9 hPa 0,0 l/m² 0,4 km/h (0 Bft) S-SW 212 ° 0 min 0 W/m² 4,9 °C 6,4 °C 1,6 km/h (1 Bft)
27.03.2024 22:43 21,0 °C 6,2 °C 49 % 89 % 984,9 hPa 0,0 l/m² 0,6 km/h (0 Bft) S-SW 212 ° 0 min 0 W/m² 4,5 °C 6,2 °C 1,6 km/h (1 Bft)
27.03.2024 22:44 21,0 °C 5,9 °C 49 % 89 % 985,0 hPa 0,0 l/m² 0,3 km/h (0 Bft) S-SW 212 ° 0 min 0 W/m² 4,2 °C 5,9 °C 1,6 km/h (1 Bft)
27.03.2024 22:45 21,1 °C 5,7 °C 49 % 89 % 985,1 hPa 0,0 l/m² 0,0 km/h (0 Bft) S-SW 212 ° 0 min 0 W/m² 4,0 °C 5,7 °C 0,0 km/h (0 Bft)
27.03.2024 22:46 21,1 °C 5,6 °C 49 % 90 % 985,1 hPa 0,0 l/m² 1,1 km/h (1 Bft) S-SW 212 ° 0 min 0 W/m² 4,1 °C 5,6 °C 3,2 km/h (1 Bft)
27.03.2024 22:47 21,0 °C 5,4 °C 49 % 90 % 985,2 hPa 0,0 l/m² 4,1 km/h (1 Bft) S-SW 211 ° 0 min 0 W/m² 3,9 °C 5,4 °C 6,4 km/h (2 Bft)
27.03.2024 22:48 21,0 °C 5,3 °C 49 % 90 % 985,2 hPa 0,0 l/m² 5,6 km/h (2 Bft) S-SW 208 ° 0 min 0 W/m² 3,8 °C 5,3 °C 6,4 km/h (2 Bft)
27.03.2024 22:49 21,0 °C 5,3 °C 49 % 91 % 985,2 hPa 0,0 l/m² 4,2 km/h (1 Bft) S-SW 207 ° 0 min 0 W/m² 4,0 °C 5,3 °C 4,8 km/h (1 Bft)
27.03.2024 22:50 21,0 °C 5,5 °C 49 % 91 % 985,2 hPa 0,0 l/m² 2,7 km/h (1 Bft) S-SW 207 ° 0 min 0 W/m² 4,2 °C 5,5 °C 3,2 km/h (1 Bft)
27.03.2024 22:51 21,0 °C 5,6 °C 49 % 92 % 985,2 hPa 0,0 l/m² 3,1 km/h (1 Bft) S-SW 207 ° 0 min 0 W/m² 4,4 °C 5,6 °C 4,8 km/h (1 Bft)
27.03.2024 22:52 21,0 °C 5,8 °C 49 % 92 % 985,3 hPa 0,0 l/m² 0,8 km/h (0 Bft) S-SW 207 ° 0 min 0 W/m² 4,6 °C 5,8 °C 3,2 km/h (1 Bft)
27.03.2024 22:53 21,0 °C 5,9 °C 49 % 92 % 985,2 hPa 0,0 l/m² 0,0 km/h (0 Bft) S-SW 207 ° 0 min 0 W/m² 4,7 °C 5,9 °C 0,0 km/h (0 Bft)
27.03.2024 22:54 21,0 °C 5,9 °C 49 % 92 % 985,3 hPa 0,0 l/m² 1,0 km/h (0 Bft) S-SW 207 ° 0 min 0 W/m² 4,7 °C 5,9 °C 3,2 km/h (1 Bft)
27.03.2024 22:55 21,1 °C 6,1 °C 49 % 92 % 985,3 hPa 0,0 l/m² 1,9 km/h (1 Bft) S-SW 207 ° 0 min 0 W/m² 4,9 °C 6,1 °C 4,8 km/h (1 Bft)
27.03.2024 22:56 21,0 °C 6,2 °C 49 % 92 % 985,4 hPa 0,0 l/m² 0,0 km/h (0 Bft) S-SW 207 ° 0 min 0 W/m² 5,0 °C 6,2 °C 0,0 km/h (0 Bft)
27.03.2024 22:57 21,0 °C 6,2 °C 49 % 92 % 985,4 hPa 0,0 l/m² 0,3 km/h (0 Bft) S-SW 207 ° 0 min 0 W/m² 5,0 °C 6,2 °C 1,6 km/h (1 Bft)
27.03.2024 22:58 21,0 °C 6,3 °C 49 % 92 % 985,4 hPa 0,0 l/m² 0,1 km/h (0 Bft) S-SW 207 ° 0 min 0 W/m² 5,1 °C 6,3 °C 1,6 km/h (1 Bft)
27.03.2024 22:59 21,0 °C 6,3 °C 49 % 92 % 985,4 hPa 0,0 l/m² 1,9 km/h (1 Bft) S-SW 207 ° 0 min 0 W/m² 5,1 °C 6,3 °C 4,8 km/h (1 Bft)
27.03.2024 23:00 21,0 °C 6,3 °C 49 % 92 % 985,5 hPa 0,0 l/m² 3,0 km/h (1 Bft) S-SW 207 ° 0 min 0 W/m² 5,1 °C 6,3 °C 4,8 km/h (1 Bft)
27.03.2024 23:01 21,0 °C 6,4 °C 49 % 92 % 985,4 hPa 0,0 l/m² 2,0 km/h (1 Bft) S-SW 207 ° 0 min 0 W/m² 5,2 °C 6,4 °C 3,2 km/h (1 Bft)
27.03.2024 23:02 21,0 °C 6,5 °C 49 % 92 % 985,5 hPa 0,0 l/m² 2,4 km/h (1 Bft) S-SW 207 ° 0 min 0 W/m² 5,3 °C 6,5 °C 3,2 km/h (1 Bft)
27.03.2024 23:03 21,0 °C 6,5 °C 49 % 92 % 985,5 hPa 0,0 l/m² 2,6 km/h (1 Bft) S-SW 207 ° 0 min 0 W/m² 5,3 °C 6,5 °C 3,2 km/h (1 Bft)
27.03.2024 23:04 21,0 °C 6,5 °C 49 % 92 % 985,4 hPa 0,0 l/m² 0,5 km/h (0 Bft) S-SW 207 ° 0 min 0 W/m² 5,3 °C 6,5 °C 1,6 km/h (1 Bft)
27.03.2024 23:05 21,1 °C 6,6 °C 49 % 92 % 985,4 hPa 0,0 l/m² 1,6 km/h (1 Bft) S-SW 207 ° 0 min 0 W/m² 5,4 °C 6,6 °C 4,8 km/h (1 Bft)
27.03.2024 23:06 21,1 °C 6,6 °C 49 % 92 % 985,3 hPa 0,0 l/m² 1,3 km/h (1 Bft) S-SW 207 ° 0 min 0 W/m² 5,4 °C 6,6 °C 3,2 km/h (1 Bft)
27.03.2024 23:07 21,0 °C 6,7 °C 49 % 92 % 985,2 hPa 0,0 l/m² 3,3 km/h (1 Bft) W-NW 298 ° 0 min 0 W/m² 5,5 °C 6,7 °C 6,4 km/h (2 Bft)
27.03.2024 23:08 21,1 °C 6,7 °C 49 % 92 % 985,1 hPa 0,0 l/m² 0,8 km/h (0 Bft) W-NW 293 ° 0 min 0 W/m² 5,5 °C 6,7 °C 3,2 km/h (1 Bft)
27.03.2024 23:09 21,0 °C 6,7 °C 49 % 92 % 985,0 hPa 0,0 l/m² 1,2 km/h (1 Bft) NW 311 ° 0 min 0 W/m² 5,5 °C 6,7 °C 4,8 km/h (1 Bft)
27.03.2024 23:10 21,0 °C 6,8 °C 49 % 92 % 985,0 hPa 0,0 l/m² 1,3 km/h (1 Bft) W 268 ° 0 min 0 W/m² 5,6 °C 6,8 °C 4,8 km/h (1 Bft)
27.03.2024 23:12 21,0 °C 7,1 °C 49 % 92 % 985,1 hPa 0,0 l/m² 3,3 km/h (1 Bft) W-NW 298 ° 0 min 0 W/m² 5,9 °C 7,1 °C 6,4 km/h (2 Bft)
27.03.2024 23:13 21,0 °C 7,1 °C 49 % 93 % 985,1 hPa 0,0 l/m² 5,7 km/h (2 Bft) W 277 ° 0 min 0 W/m² 6,0 °C 7,1 °C 8,0 km/h (2 Bft)
27.03.2024 23:14 21,1 °C 7,3 °C 49 % 93 % 985,2 hPa 0,0 l/m² 5,3 km/h (1 Bft) W 275 ° 0 min 0 W/m² 6,2 °C 7,3 °C 9,7 km/h (2 Bft)
27.03.2024 23:15 21,0 °C 7,5 °C 49 % 93 % 985,1 hPa 0,0 l/m² 2,5 km/h (1 Bft) W-NW 290 ° 0 min 0 W/m² 6,4 °C 7,5 °C 4,8 km/h (1 Bft)
27.03.2024 23:16 21,1 °C 7,6 °C 49 % 93 % 985,2 hPa 0,0 l/m² 1,6 km/h (1 Bft) W-SW 247 ° 0 min 0 W/m² 6,5 °C 7,6 °C 4,8 km/h (1 Bft)
27.03.2024 23:17 21,0 °C 7,6 °C 49 % 92 % 985,1 hPa 0,0 l/m² 4,8 km/h (1 Bft) W-SW 247 ° 0 min 0 W/m² 6,4 °C 7,6 °C 11,3 km/h (2 Bft)
27.03.2024 23:23 21,0 °C 7,0 °C 49 % 90 % 985,1 hPa 0,0 l/m² 3,1 km/h (1 Bft) W-SW 252 ° 0 min 0 W/m² 5,5 °C 7,0 °C 4,8 km/h (1 Bft)
27.03.2024 23:24 21,0 °C 6,9 °C 49 % 91 % 985,0 hPa 0,0 l/m² 4,6 km/h (1 Bft) SW 236 ° 0 min 0 W/m² 5,5 °C 6,9 °C 8,0 km/h (2 Bft)
27.03.2024 23:25 21,0 °C 6,9 °C 49 % 91 % 985,0 hPa 0,0 l/m² 3,6 km/h (1 Bft) W-SW 238 ° 0 min 0 W/m² 5,5 °C 6,9 °C 4,8 km/h (1 Bft)
27.03.2024 23:27 21,0 °C 7,0 °C 49 % 91 % 985,0 hPa 0,0 l/m² 3,9 km/h (1 Bft) W-SW 255 ° 0 min 0 W/m² 5,6 °C 7,0 °C 6,4 km/h (2 Bft)
27.03.2024 23:29 21,0 °C 7,1 °C 49 % 91 % 984,9 hPa 0,0 l/m² 3,7 km/h (1 Bft) W 276 ° 0 min 0 W/m² 5,7 °C 7,1 °C 9,7 km/h (2 Bft)
27.03.2024 23:30 21,0 °C 7,1 °C 49 % 91 % 984,7 hPa 0,0 l/m² 6,0 km/h (2 Bft) W 268 ° 0 min 0 W/m² 5,7 °C 7,1 °C 9,7 km/h (2 Bft)
27.03.2024 23:31 21,0 °C 7,2 °C 49 % 91 % 984,7 hPa 0,0 l/m² 6,9 km/h (2 Bft) W-NW 286 ° 0 min 0 W/m² 5,8 °C 6,8 °C 9,7 km/h (2 Bft)
27.03.2024 23:32 21,0 °C 7,3 °C 49 % 91 % 984,7 hPa 0,0 l/m² 3,0 km/h (1 Bft) W 278 ° 0 min 0 W/m² 5,9 °C 7,3 °C 9,7 km/h (2 Bft)
27.03.2024 23:34 21,0 °C 7,5 °C 49 % 92 % 984,7 hPa 0,0 l/m² 6,2 km/h (2 Bft) W 273 ° 0 min 0 W/m² 6,3 °C 7,5 °C 12,9 km/h (3 Bft)
27.03.2024 23:36 21,0 °C 7,7 °C 49 % 91 % 984,8 hPa 0,0 l/m² 7,6 km/h (2 Bft) W 270 ° 0 min 0 W/m² 6,3 °C 6,7 °C 12,9 km/h (3 Bft)
27.03.2024 23:38 21,0 °C 7,9 °C 49 % 91 % 984,7 hPa 0,0 l/m² 2,4 km/h (1 Bft) NW 322 ° 0 min 0 W/m² 6,5 °C 7,9 °C 9,7 km/h (2 Bft)
27.03.2024 23:40 21,0 °C 8,2 °C 49 % 91 % 984,7 hPa 0,0 l/m² 3,9 km/h (1 Bft) W-NW 290 ° 0 min 0 W/m² 6,8 °C 8,2 °C 8,0 km/h (2 Bft)
27.03.2024 23:41 21,0 °C 8,3 °C 49 % 91 % 984,7 hPa 0,0 l/m² 5,6 km/h (2 Bft) W 277 ° 0 min 0 W/m² 6,9 °C 8,3 °C 11,3 km/h (2 Bft)
27.03.2024 23:42 21,0 °C 8,4 °C 49 % 91 % 984,7 hPa 0,0 l/m² 4,4 km/h (1 Bft) W-NW 298 ° 0 min 0 W/m² 7,0 °C 8,4 °C 8,0 km/h (2 Bft)
27.03.2024 23:45 21,0 °C 8,7 °C 49 % 91 % 984,7 hPa 0,0 l/m² 8,3 km/h (2 Bft) W 279 ° 0 min 0 W/m² 7,3 °C 7,3 °C 16,1 km/h (3 Bft)
27.03.2024 23:47 21,0 °C 8,8 °C 49 % 90 % 984,7 hPa 0,0 l/m² 7,4 km/h (2 Bft) W 269 ° 0 min 0 W/m² 7,3 °C 8,0 °C 16,1 km/h (3 Bft)
27.03.2024 23:49 21,0 °C 8,9 °C 49 % 90 % 984,7 hPa 0,0 l/m² 7,4 km/h (2 Bft) W 277 ° 0 min 0 W/m² 7,4 °C 8,1 °C 12,9 km/h (3 Bft)
27.03.2024 23:50 21,0 °C 8,9 °C 49 % 90 % 984,8 hPa 0,0 l/m² 6,9 km/h (2 Bft) W-NW 286 ° 0 min 0 W/m² 7,4 °C 8,5 °C 16,1 km/h (3 Bft)
27.03.2024 23:51 21,0 °C 9,0 °C 49 % 90 % 984,8 hPa 0,0 l/m² 6,8 km/h (2 Bft) W-NW 286 ° 0 min 0 W/m² 7,4 °C 8,7 °C 11,3 km/h (2 Bft)
27.03.2024 23:52 21,0 °C 9,1 °C 49 % 90 % 984,8 hPa 0,0 l/m² 4,6 km/h (1 Bft) W-NW 297 ° 0 min 0 W/m² 7,5 °C 9,1 °C 8,0 km/h (2 Bft)
27.03.2024 23:55 21,0 °C 9,2 °C 49 % 89 % 984,8 hPa 0,0 l/m² 6,3 km/h (2 Bft) W-NW 293 ° 0 min 0 W/m² 7,5 °C 9,2 °C 12,9 km/h (3 Bft)
27.03.2024 23:57 21,0 °C 9,2 °C 49 % 89 % 984,8 hPa 0,0 l/m² 6,9 km/h (2 Bft) W 263 ° 0 min 0 W/m² 7,5 °C 8,8 °C 12,9 km/h (3 Bft)
27.03.2024 23:59 21,0 °C 9,2 °C 49 % 89 % 984,8 hPa 0,0 l/m² 7,5 km/h (2 Bft) NW 312 ° 0 min 0 W/m² 7,5 °C 8,4 °C 14,5 km/h (3 Bft)
_ Min-Zeit 21:06 04:34 13:09 13:24 23:49 - 22:56 - - - - 04:34 02:40 22:56
Minimum _ 20,9 °C 0,3 °C 48 % 56 % 984,7 hPa - 0,0 km/h (0 Bft) - - - - -0,8 °C -0,2 °C 0,0 km/h (0 Bft)
_ Max-Zeit 11:53 15:51 23:59 07:49 00:33 23:59 14:43 - - 09:47 11:21 14:36 13:37 14:43
Maximum _ 21,3 °C 17,2 °C 49 % 94 % 991,1 hPa 0,0 l/m² 22,3 km/h
O (4 Bft)
- - 3 min 745 W/m² 10,4 °C 16,9 °C 29,0 km/h
O-NO (5 Bft)
Durchschnitt _ 21,1 °C 8,6 °C 49 % 80 % 987,3 hPa #0,0 l/m² 4,8 km/h (1 Bft) O-NO - #10:32 h 162 W/m² 5,2 °C 7,7 °C 6,9 km/h (2 Bft)
© 2009 Mathias Hoßbach